[[{"header":{"parameterUnit":"m.s-1","parameterCategory":1,"la1":30.6,"la2":28.766,"lo1":-90.7593,"lo2":-88.6598,"dy":0.0162,"dx":0.0183,"nx":116,"ny":114,"refTime":"2024-05-01T00:00:00:Z","depth":0,"parameterNumber":2,"parameterNumberName":"U-component_of_WINDS"},"data":[0.0,0.0,0.0,0.0,0.0,0.0,0.0,0.0,0.0,0.0,0.0,0.0,0.0,0.0,0.0,0.0,0.0,0.0,0.0,0.0,0.0,0.0,0.0,0.0,0.0,0.0,0.0,0.0,0.0,0.0,0.0,0.0,0.0,0.0,0.0,0.0,0.0,0.0,0.0,0.0,0.0,0.0,0.0,0.0,0.0,0.0,0.0,0.0,0.0,0.0,0.0,0.0,0.0,0.0,0.0,0.0,0.0,0.0,0.0,0.0,0.0,0.0,0.0,0.0,0.0,0.0,0.0,0.0,0.0,0.0,0.0,0.0,0.0,0.0,0.0,0.0,0.0,0.0,0.0,0.0,0.0,0.0,0.0,0.0,0.0,0.0,0.0,0.0,0.0,0.0,0.0,0.0,0.0,0.0,0.0,0.0,0.0,0.0,0.0,0.0,0.0,0.0,0.0,0.0,0.0,0.0,0.0,0.0,0.0,0.0,0.0,0.0,0.0,0.0,0.0,0.0,0.0,0.0,0.0,0.0,0.0,0.0,0.0,0.0,0.0,0.0,0.0,0.0,0.0,0.0,0.0,0.0,0.0,0.0,0.0,0.0,0.0,0.0,0.0,0.0,0.0,0.0,0.0,0.0,0.0,0.0,0.0,0.0,0.0,0.0,0.0,0.0,0.0,0.0,0.0,0.0,0.0,0.0,0.0,0.0,0.0,0.0,0.0,0.0,0.0,0.0,0.0,0.0,0.0,0.0,0.0,0.0,0.0,0.0,0.0,0.0,0.0,0.0,0.0,0.0,0.0,0.0,0.0,0.0,0.0,0.0,0.0,0.0,0.0,0.0,0.0,0.0,0.0,0.0,0.0,0.0,0.0,0.0,0.0,0.0,0.0,0.0,0.0,0.0,0.0,0.0,0.0,0.0,0.0,0.0,0.0,0.0,0.0,0.0,0.0,0.0,0.0,0.0,0.0,0.0,0.0,0.0,0.0,0.0,0.0,0.0,0.0,0.0,0.0,0.0,0.0,0.0,0.0,0.0,0.0,0.0,0.0,0.0,0.0,0.0,0.0,0.0,0.0,0.0,0.0,0.0,0.0,0.0,0.0,0.0,0.0,0.0,0.0,0.0,0.0,0.0,0.0,0.0,0.0,0.0,0.0,0.0,0.0,0.0,0.0,0.0,0.0,0.0,0.0,0.0,0.0,0.0,0.0,0.0,0.0,0.0,0.0,0.0,0.0,0.0,0.0,0.0,0.0,0.0,0.0,0.0,0.0,0.0,0.0,0.0,0.0,0.0,0.0,0.0,0.0,0.0,0.0,0.0,0.0,0.0,0.0,0.0,0.0,0.0,0.0,0.0,0.0,0.0,0.0,0.0,0.0,0.0,0.0,0.0,0.0,0.0,0.0,0.0,0.0,0.0,0.0,0.0,0.0,0.0,0.0,0.0,0.0,0.0,0.0,0.0,0.0,0.0,0.0,0.0,0.0,0.0,0.0,0.0,0.0,0.0,0.0,0.0,0.0,0.0,0.0,0.0,0.0,0.0,0.0,0.0,0.0,0.0,0.0,0.0,0.0,0.0,0.0,0.0,0.0,0.0,0.0,0.0,0.0,0.0,0.0,0.0,0.0,0.0,0.0,0.0,0.0,0.0,0.0,0.0,0.0,0.0,0.0,0.0,0.0,0.0,0.0,0.0,0.0,0.0,0.0,0.0,0.0,0.0,0.0,0.0,0.0,0.0,0.0,0.0,0.0,0.0,0.0,0.0,0.0,0.0,0.0,0.0,0.0,0.0,0.0,0.0,0.0,0.0,0.0,0.0,0.0,0.0,0.0,0.0,0.0,0.0,0.0,0.0,0.0,0.0,0.0,0.0,0.0,0.0,0.0,0.0,0.0,0.0,0.0,0.0,0.0,0.0,0.0,0.0,0.0,0.0,0.0,0.0,0.0,0.0,0.0,0.0,0.0,0.0,0.0,0.0,0.0,0.0,0.0,0.0,0.0,0.0,0.0,0.0,0.0,0.0,0.0,0.0,0.0,0.0,0.0,0.0,0.0,0.0,0.0,0.0,0.0,0.0,0.0,0.0,0.0,0.0,0.0,0.0,0.0,0.0,0.0,0.0,0.0,0.0,0.0,0.0,0.0,0.0,0.0,0.0,0.0,0.0,0.0,0.0,0.0,0.0,0.0,0.0,0.0,0.0,0.0,0.0,0.0,0.0,0.0,0.0,0.0,0.0,0.0,0.0,0.0,0.0,0.0,0.0,0.0,0.0,0.0,0.0,0.0,0.0,0.0,0.0,0.0,0.0,0.0,0.0,0.0,0.0,0.0,0.0,0.0,0.0,0.0,0.0,0.0,0.0,0.0,0.0,0.0,0.0,0.0,0.0,0.0,0.0,0.0,0.0,0.0,0.0,0.0,0.0,0.0,0.0,0.0,0.0,0.0,0.0,0.0,0.0,0.0,0.0,0.0,0.0,0.0,0.0,0.0,0.0,0.0,0.0,0.0,0.0,0.0,0.0,0.0,0.0,0.0,0.0,0.0,0.0,0.0,0.0,0.0,0.0,0.0,0.0,0.0,0.0,0.0,0.0,0.0,0.0,0.0,0.0,0.0,0.0,0.0,0.0,0.0,0.0,0.0,0.0,0.0,0.0,0.0,0.0,0.0,0.0,0.0,0.0,0.0,0.0,0.0,0.0,0.0,0.0,0.0,0.0,0.0,0.0,0.0,0.0,0.0,0.0,0.0,0.0,0.0,0.0,0.0,0.0,0.0,0.0,0.0,0.0,0.0,0.0,0.0,0.0,0.0,0.0,0.0,0.0,0.0,0.0,0.0,0.0,0.0,0.0,0.0,0.0,0.0,0.0,0.0,0.0,0.0,0.0,0.0,0.0,0.0,0.0,0.0,0.0,0.0,0.0,0.0,0.0,0.0,0.0,0.0,0.0,0.0,0.0,0.0,0.0,0.0,0.0,0.0,0.0,0.0,0.0,0.0,0.0,0.0,0.0,0.0,0.0,0.0,0.0,0.0,0.0,0.0,0.0,0.0,0.0,0.0,0.0,0.0,0.0,0.0,0.0,0.0,0.0,0.0,0.0,0.0,0.0,0.0,0.0,0.0,0.0,0.0,0.0,0.0,0.0,0.0,0.0,0.0,0.0,0.0,0.0,0.0,0.0,0.0,0.0,0.0,0.0,0.0,0.0,0.0,0.0,0.0,0.0,0.0,0.0,0.0,0.0,0.0,0.0,0.0,0.0,0.0,0.0,0.0,0.0,0.0,0.0,0.0,0.0,0.0,0.0,0.0,0.0,0.0,0.0,0.0,0.0,0.0,0.0,0.0,0.0,0.0,0.0,0.0,0.0,0.0,0.0,0.0,0.0,0.0,0.0,0.0,0.0,0.0,0.0,0.0,0.0,0.0,0.0,0.0,0.0,0.0,0.0,0.0,0.0,0.0,0.0,0.0,0.0,0.0,0.0,0.0,0.0,0.0,0.0,0.0,0.0,0.0,0.0,0.0,0.0,0.0,0.0,0.0,0.0,0.0,0.0,0.0,0.0,0.0,0.0,0.0,0.0,0.0,0.0,0.0,0.0,0.0,0.0,0.0,0.0,0.0,0.0,0.0,0.0,0.0,0.0,0.0,0.0,0.0,0.0,0.0,0.0,0.0,0.0,0.0,0.0,0.0,0.0,0.0,0.0,0.0,0.0,0.0,0.0,0.0,0.0,0.0,0.0,0.0,0.0,0.0,0.0,0.0,0.0,0.0,0.0,0.0,0.0,0.0,0.0,0.0,0.0,0.0,0.0,0.0,0.0,0.0,0.0,0.0,0.0,0.0,0.0,0.0,0.0,0.0,0.0,0.0,0.0,0.0,0.0,0.0,0.0,0.0,0.0,0.0,0.0,0.0,0.0,0.0,0.0,0.0,0.0,0.0,0.0,0.0,0.0,0.0,0.0,0.0,0.0,0.0,0.0,0.0,0.0,0.0,0.0,0.0,0.0,0.0,0.0,0.0,0.0,0.0,0.0,0.0,0.0,0.0,0.0,0.0,0.0,0.0,0.0,0.0,0.0,0.0,0.0,0.0,0.0,0.0,0.0,0.0,0.0,0.0,0.0,0.0,0.0,0.0,0.0,0.0,0.0,0.0,0.0,0.0,0.0,0.0,0.0,0.0,0.0,0.0,0.0,0.0,0.0,0.0,0.0,0.0,0.0,0.0,0.0,0.0,0.0,0.0,0.0,0.0,0.0,0.0,0.0,0.0,0.0,0.0,0.0,0.0,0.0,0.0,0.0,0.0,0.0,0.0,0.0,0.0,0.0,0.0,0.0,0.0,0.0,0.0,0.0,0.0,0.0,0.0,0.0,0.0,0.0,0.0,0.0,0.0,0.0,0.0,0.0,0.0,0.0,0.0,0.0,0.0,0.0,0.0,0.0,0.0,0.0,0.0,0.0,0.0,0.0,0.0,0.0,0.0,0.0,0.0,0.0,0.0,0.0,0.0,0.0,0.0,0.0,0.0,0.0,0.0,0.0,0.0,0.0,0.0,0.0,0.0,0.0,0.0,0.0,0.0,0.0,0.0,0.0,0.0,0.0,0.0,0.0,0.0,0.0,0.0,0.0,0.0,0.0,0.0,0.0,0.0,0.0,0.0,0.0,0.0,0.0,0.0,0.0,0.0,0.0,0.0,0.0,0.0,0.0,0.0,0.0,0.0,0.0,0.0,0.0,0.0,0.0,0.0,0.0,0.0,0.0,0.0,0.0,0.0,0.0,0.0,0.0,0.0,0.0,0.0,0.0,0.0,0.0,0.0,0.0,0.0,0.0,0.0,0.0,0.0,0.0,0.0,0.0,0.0,0.0,0.0,0.0,0.0,0.0,0.0,0.0,0.0,0.0,0.0,0.0,0.0,0.0,0.0,0.0,0.0,0.0,0.0,0.0,0.0,0.0,0.0,0.0,0.0,0.0,0.0,0.0,0.0,0.0,0.0,0.0,0.0,0.0,0.0,0.0,0.0,0.0,0.0,0.0,0.0,0.0,0.0,0.0,0.0,0.0,0.0,0.0,0.0,0.0,0.0,0.0,0.0,0.0,0.0,0.0,0.0,0.0,0.0,0.0,0.0,0.0,0.0,0.0,0.0,0.0,0.0,0.0,0.0,0.0,0.0,0.0,0.0,0.0,0.0,0.0,0.0,0.0,0.0,0.0,0.0,0.0,0.0,0.0,0.0,0.0,0.0,0.0,0.0,0.0,0.0,0.0,0.0,0.0,0.0,0.0,0.0,0.0,0.0,0.0,0.0,0.0,0.0,0.0,0.0,0.0,0.0,0.0,0.0,0.0,0.0,0.0,0.0,0.0,0.0,0.0,0.0,0.0,0.0,0.0,0.0,0.0,0.0,0.0,0.0,0.0,0.0,0.0,0.0,0.0,0.0,0.0,0.0,0.0,0.0,0.0,0.0,0.0,0.0,0.0,0.0,0.0,0.0,0.0,0.0,0.0,0.0,0.0,0.0,0.0,0.0,0.0,0.0,0.0,0.0,0.0,0.0,0.0,0.0,0.0,0.0,0.0,0.0,0.0,0.0,0.0,0.0,0.0,0.0,0.0,0.0,0.0,0.0,0.0,0.0,0.0,0.0,0.0,0.0,0.0,0.0,0.0,0.0,0.0,0.0,0.0,0.0,0.0,0.0,0.0,0.0,0.0,0.0,0.0,0.0,0.0,0.0,0.0,0.0,0.0,0.0,0.0,0.0,0.0,0.0,0.0,0.0,0.0,0.0,0.0,0.0,0.0,0.0,0.0,0.0,0.0,0.0,0.0,0.0,0.0,0.0,0.0,0.0,0.0,0.0,0.0,0.0,0.0,0.0,0.0,0.0,0.0,0.0,0.0,0.0,0.0,0.0,0.0,0.0,0.0,0.0,0.0,0.0,0.0,0.0,0.0,0.0,0.0,0.0,0.0,0.0,0.0,0.0,0.0,0.0,0.0,0.0,0.0,0.0,0.0,0.0,0.0,0.0,0.0,0.0,0.0,0.0,0.0,0.0,0.0,0.0,0.0,0.0,0.0,0.0,0.0,0.0,0.0,0.0,0.0,0.0,0.0,0.0,0.0,0.0,0.0,-1.7905,0.0,0.0,0.0,0.0,0.0,0.0,0.0,0.0,0.0,0.0,0.0,0.0,0.0,0.0,0.0,0.0,0.0,0.0,0.0,0.0,0.0,0.0,0.0,0.0,-1.3956,-1.4173,-1.4688,-1.5112,-1.5344,-1.5257,0.0,0.0,0.0,0.0,0.0,-1.5526,-1.5163,-1.5045,-1.5221,-1.5624,-1.6142,-1.68,-1.6744,-1.6249,-1.5492,0.0,0.0,0.0,0.0,0.0,0.0,0.0,0.0,0.0,0.0,0.0,0.0,0.0,0.0,0.0,0.0,0.0,0.0,0.0,0.0,0.0,0.0,0.0,0.0,0.0,0.0,0.0,0.0,0.0,0.0,0.0,0.0,0.0,0.0,0.0,0.0,0.0,0.0,0.0,0.0,0.0,0.0,0.0,0.0,0.0,0.0,0.0,0.0,0.0,0.0,0.0,0.0,0.0,0.0,0.0,0.0,0.0,0.0,0.0,0.0,0.0,0.0,0.0,0.0,0.0,0.0,0.0,0.0,0.0,0.0,0.0,-1.8322,0.0,0.0,0.0,0.0,0.0,0.0,0.0,0.0,0.0,0.0,0.0,0.0,0.0,0.0,0.0,0.0,0.0,0.0,0.0,0.0,0.0,-1.3702,-1.4346,-1.4149,-1.4335,-1.5237,-1.5471,-1.552,-1.5437,-1.5853,0.0,0.0,0.0,-1.6297,-1.6297,-1.6154,-1.6022,-1.5903,-1.678,-1.7713,-1.8641,-1.8641,-1.7977,-1.6724,-1.6304,0.0,0.0,0.0,0.0,0.0,0.0,0.0,0.0,0.0,0.0,0.0,0.0,0.0,0.0,0.0,0.0,0.0,0.0,0.0,0.0,0.0,0.0,0.0,0.0,0.0,0.0,0.0,0.0,0.0,0.0,0.0,0.0,0.0,0.0,0.0,0.0,0.0,0.0,0.0,0.0,0.0,0.0,0.0,0.0,0.0,0.0,0.0,0.0,0.0,0.0,0.0,0.0,0.0,0.0,0.0,0.0,0.0,0.0,0.0,0.0,0.0,0.0,0.0,-2.2805,-2.2919,-2.2025,-2.3458,-2.3615,-2.2699,-2.1243,-2.0926,-2.1262,-1.9078,0.0,0.0,0.0,0.0,0.0,0.0,0.0,0.0,0.0,0.0,0.0,0.0,0.0,0.0,0.0,0.0,0.0,0.0,0.0,-1.3737,-1.4794,-1.5229,-1.553,-1.579,-1.6507,-1.6768,-1.6366,-1.6502,-1.6552,-1.6436,-1.6552,-1.6637,-1.6637,-1.6488,-1.6392,-1.6318,-1.7483,-1.8881,-2.0457,-2.0457,-2.0608,-2.0821,-1.8709,-1.7648,-1.7387,0.0,0.0,0.0,0.0,0.0,0.0,0.0,0.0,0.0,0.0,0.0,0.0,0.0,0.0,0.0,0.0,0.0,0.0,0.0,0.0,0.0,0.0,0.0,0.0,0.0,0.0,0.0,0.0,0.0,0.0,0.0,0.0,0.0,0.0,0.0,0.0,0.0,0.0,0.0,0.0,0.0,-1.8054,-1.8689,0.0,0.0,0.0,0.0,0.0,0.0,0.0,0.0,0.0,0.0,0.0,0.0,0.0,-2.2086,-2.2085,-2.4358,-2.5451,-2.5294,-2.7557,-2.8213,-2.7476,-2.821,-2.8171,-2.7476,-2.6847,0.0,-2.1518,-2.1,0.0,0.0,0.0,0.0,0.0,0.0,0.0,0.0,0.0,0.0,0.0,0.0,0.0,0.0,0.0,0.0,0.0,0.0,0.0,0.0,0.0,-1.6484,-1.7054,-1.75,-1.8594,-1.8814,-1.7755,-1.8104,-1.7934,-1.6976,-1.7068,-1.7144,-1.7144,-1.7102,-1.7653,-1.8877,-2.0571,-2.2227,-2.3786,-2.4176,-2.4445,-2.4569,-2.3201,-2.1199,-1.8846,-1.8227,0.0,0.0,0.0,0.0,0.0,0.0,0.0,0.0,0.0,0.0,0.0,0.0,0.0,0.0,0.0,0.0,0.0,0.0,0.0,0.0,0.0,0.0,0.0,0.0,0.0,0.0,0.0,0.0,0.0,0.0,0.0,0.0,0.0,0.0,0.0,0.0,0.0,0.0,0.0,-1.7323,-1.7741,-1.8764,-1.8053,-1.7469,0.0,0.0,0.0,0.0,0.0,0.0,0.0,0.0,0.0,-2.454,-2.5349,-2.5997,-2.6516,-2.8058,-2.8815,-2.8777,-3.0259,-3.0563,-2.9875,-3.0471,-3.0364,-2.9649,-2.8959,-2.7485,-2.5483,-2.4002,-2.2648,-2.1472,0.0,0.0,0.0,0.0,-1.98,-1.9416,0.0,0.0,0.0,0.0,0.0,0.0,0.0,0.0,0.0,0.0,0.0,0.0,-1.707,-1.7916,-1.8742,-1.9459,-2.0558,-2.057,-1.9074,-1.9322,-1.8907,-1.7488,-1.7564,-1.7639,-1.7639,-1.8123,-1.9418,-2.1573,-2.3666,-2.5519,-2.7041,-2.7694,-2.7911,-2.7779,-2.7404,-2.4857,-2.0747,-1.9914,-1.8796,-1.7493,0.0,0.0,0.0,0.0,0.0,0.0,0.0,0.0,0.0,0.0,0.0,0.0,0.0,0.0,0.0,0.0,0.0,0.0,0.0,0.0,0.0,0.0,0.0,0.0,0.0,0.0,0.0,0.0,0.0,0.0,0.0,0.0,0.0,0.0,0.0,0.0,0.0,-1.8331,-1.8856,-1.9701,-1.9664,-1.9412,0.0,0.0,0.0,0.0,0.0,0.0,-2.5091,-2.548,-2.6459,-2.8175,-2.8926,-2.9674,-3.0381,-3.1157,-3.1543,-3.1519,-3.2244,-3.2211,-3.1536,-3.2147,-3.2,-3.1287,-3.0617,-3.0046,-2.9331,-2.674,-2.481,-2.345,-2.2907,-2.2187,-2.1516,-2.2104,-2.1979,-2.1613,0.0,0.0,0.0,0.0,0.0,0.0,0.0,0.0,0.0,0.0,0.0,-1.7003,-1.8361,-1.9572,-2.0585,-2.1383,-2.1823,-2.147,-2.0116,-1.958,-1.8851,-1.7814,-1.7908,-1.7968,-1.7968,-1.9789,-2.1684,-2.3643,-2.586,-2.7811,-2.9527,-3.0139,-3.0346,-3.0242,-3.0336,-2.7834,-2.3405,-2.1639,-2.0447,-1.9572,-1.7673,0.0,0.0,0.0,0.0,0.0,0.0,0.0,0.0,0.0,0.0,0.0,0.0,0.0,0.0,0.0,0.0,0.0,0.0,0.0,0.0,0.0,0.0,0.0,0.0,0.0,0.0,0.0,0.0,0.0,0.0,0.0,0.0,0.0,0.0,0.0,0.0,0.0,0.0,-2.2803,-2.3373,0.0,0.0,0.0,0.0,-2.3443,-2.4977,-2.6457,-2.7741,-2.8962,-3.0039,-3.0965,-3.1712,-3.206,-3.1991,-3.2853,-3.3258,-3.3186,-3.3859,-3.3826,-3.3203,-3.38,-3.3689,-3.2969,-3.2935,-3.2517,-3.1617,-2.8682,-2.6787,-2.5705,-2.5288,-2.4538,-2.3736,-2.3696,-2.3714,-2.3697,0.0,0.0,0.0,-1.6219,-1.6522,-1.6799,-1.6926,-1.7064,-1.7276,-1.7551,-1.8193,-1.8985,-1.9915,-2.1751,-2.3031,-2.3309,-2.4345,-2.4197,-2.2287,-2.1513,-2.0498,-1.9156,-1.8595,-1.8991,-2.0415,-2.26,-2.47,-2.6703,-2.8867,-3.0689,-3.2173,-3.2806,-3.3035,-3.2885,-3.2585,-3.1069,-2.8547,-2.5916,-2.3656,-2.1773,-2.0322,-1.8929,0.0,0.0,0.0,0.0,0.0,0.0,0.0,0.0,0.0,0.0,0.0,0.0,0.0,0.0,0.0,0.0,0.0,0.0,0.0,0.0,0.0,0.0,0.0,0.0,0.0,0.0,0.0,0.0,0.0,0.0,0.0,0.0,0.0,0.0,0.0,0.0,0.0,-2.3759,-2.5332,0.0,-2.5527,-2.6156,-2.6662,-2.6779,-2.8391,-2.9777,-3.0711,-3.1641,-3.2502,-3.3288,-3.4544,-3.4928,-3.4373,-3.516,-3.5312,-3.4795,-3.5031,-3.5014,-3.4795,-3.497,-3.4891,-3.4622,-3.4052,-3.3201,-3.2062,-3.0549,-2.9275,-2.8236,-2.7559,-2.7088,-2.6738,-2.6246,-2.6153,-2.6149,0.0,-1.5947,0.0,-1.6586,-1.6884,-1.7157,-1.7344,-1.7639,-1.7922,-1.8108,-1.9123,-2.0212,-2.1243,-2.3172,-2.4497,-2.472,-2.5678,-2.5303,-2.304,-2.2169,-2.1042,-1.9433,-1.9515,-2.0576,-2.2607,-2.5285,-2.7542,-2.9391,-3.1471,-3.2972,-3.385,-3.452,-3.4656,-3.4298,-3.4219,-3.3416,-3.1994,-2.9971,-2.7414,-2.4504,-2.2831,-2.1121,-1.9504,0.0,0.0,0.0,0.0,0.0,0.0,0.0,0.0,0.0,0.0,0.0,0.0,0.0,0.0,0.0,0.0,0.0,0.0,0.0,0.0,0.0,0.0,0.0,0.0,0.0,0.0,0.0,0.0,0.0,0.0,0.0,0.0,0.0,0.0,0.0,-2.5295,-2.6109,-2.8206,-2.9275,-2.8452,-2.9691,-3.0325,-2.9817,-3.1106,-3.2374,-3.3355,-3.388,-3.4607,-3.5622,-3.6637,-3.6924,-3.6377,-3.6654,-3.6518,-3.6011,-3.5718,-3.56,-3.56,-3.5549,-3.552,-3.5487,-3.4914,-3.4191,-3.3332,-3.2332,-3.1494,-3.0694,-2.9028,-2.8343,-2.818,-2.7399,-2.7301,-2.7375,-1.6057,-1.625,-1.6454,-1.6833,-1.724,-1.7557,-1.77,-1.7996,-1.8347,-1.8745,-1.9453,-2.0567,-2.2241,-2.3769,-2.4918,-2.5561,-2.563,-2.4647,-2.2279,-2.1493,-2.0353,-1.8649,-2.0684,-2.2665,-2.4382,-2.7691,-3.0145,-3.163,-3.3589,-3.4578,-3.4608,-3.525,-3.5144,-3.4409,-3.5195,-3.4741,-3.3474,-3.3522,-3.144,-2.7867,-2.5078,-2.3419,-2.2379,0.0,0.0,0.0,0.0,0.0,0.0,0.0,0.0,0.0,0.0,0.0,0.0,0.0,0.0,0.0,0.0,0.0,0.0,0.0,0.0,0.0,0.0,0.0,0.0,0.0,0.0,0.0,0.0,0.0,0.0,0.0,0.0,0.0,-2.367,-2.5842,-2.8246,-3.0041,-3.2181,-3.3208,-3.242,-3.3056,-3.3237,-3.2496,-3.3119,-3.4146,-3.56,-3.5684,-3.6377,-3.7889,-3.7973,-3.7973,-3.7939,-3.7212,-3.6863,-3.6829,-3.6028,-3.5633,-3.5633,-3.5616,-3.56,-3.56,-3.56,-3.5566,-3.543,-3.3903,-3.3292,-3.2937,-2.9729,-2.8329,-2.7984,-2.7153,-2.7081,-2.726,-1.5647,-1.6262,-1.6799,-1.6942,-1.7462,-1.7908,-1.8108,-1.822,-1.8352,-1.8562,-1.987,-2.1291,-2.2673,-2.4749,-2.6123,-2.6303,-2.6318,-2.5363,-2.312,-2.1804,-2.0825,-2.0198,-2.2235,-2.4584,-2.7121,-3.0114,-3.2527,-3.4412,-3.5429,-3.6163,-3.6611,-3.6791,-3.6526,-3.5911,-3.6141,-3.5735,-3.4881,-3.4313,-3.3524,-3.2385,-2.8849,-2.6426,-2.4814,0.0,0.0,0.0,0.0,0.0,0.0,0.0,0.0,0.0,0.0,0.0,0.0,0.0,0.0,0.0,0.0,0.0,0.0,0.0,0.0,0.0,0.0,0.0,0.0,0.0,0.0,0.0,0.0,0.0,0.0,0.0,-2.5926,-2.7493,-2.6786,-2.9483,-3.205,-3.3485,-3.5091,-3.5937,-3.5577,-3.6208,-3.6366,-3.5627,-3.6248,-3.6857,-3.7263,-3.777,-3.8261,-3.8684,-3.9208,-3.9225,-3.87,-3.8497,-3.8125,-3.7584,-3.6823,-3.6468,-3.6451,-3.5876,-3.56,-3.56,-3.56,-3.4991,-3.396,-3.355,-3.2739,-3.1668,-3.0629,-3.0161,-2.9946,-2.8641,-2.7601,-2.6768,-1.577,-1.6392,-1.696,-1.7131,-1.7625,-1.8062,-1.8234,-1.8279,-1.8475,-1.8939,-2.0226,-2.1609,-2.2973,-2.469,-2.5764,-2.5764,-2.5764,-2.4789,-2.2526,-2.1495,-2.1352,-2.2236,-2.4549,-2.7011,-2.9595,-3.2348,-3.4472,-3.5923,-3.6552,-3.706,-3.7404,-3.7404,-3.721,-3.6881,-3.6881,-3.6656,-3.6264,-3.5803,-3.55,-3.5128,-3.261,-3.0198,-2.7983,-2.6891,-2.563,-2.4385,-2.3881,-2.3682,-2.3431,-2.2017,0.0,0.0,0.0,0.0,0.0,0.0,0.0,0.0,0.0,0.0,0.0,0.0,0.0,0.0,0.0,0.0,0.0,0.0,0.0,0.0,0.0,0.0,0.0,0.0,-2.8658,-3.0765,-3.1727,-3.3027,-3.4589,-3.6446,-3.7401,-3.7843,-3.7729,-3.8379,-3.8379,-3.733,-3.7939,-3.8362,-3.8362,-3.8768,-3.914,-3.9445,-3.9893,-3.9893,-3.9469,-3.914,-3.8768,-3.8345,-3.7303,-3.6795,-3.6778,-3.5977,-3.56,-3.56,-3.56,-3.4923,-3.3846,-3.3541,-3.2713,0.0,0.0,0.0,0.0,0.0,-2.7813,-2.6535,-1.6134,-1.659,-1.7002,-1.7344,-1.774,-1.8042,-1.8169,-1.8254,-1.8627,-1.9601,-2.0524,-2.1651,-2.3128,-2.4067,-2.4575,-2.4485,-2.4462,-2.3548,-2.1368,-2.1116,-2.2069,-2.4427,-2.7236,-2.9686,-3.169,-3.4427,-3.6118,-3.6701,-3.733,-3.7644,-3.7644,-3.7644,-3.7599,-3.7524,-3.7524,-3.7479,-3.7404,-3.7404,-3.7045,-3.6432,-3.5848,-3.3923,-3.1319,-3.0115,-2.9025,-2.7982,-2.6854,-2.6083,-2.5408,-2.4382,0.0,0.0,0.0,0.0,0.0,0.0,0.0,0.0,0.0,0.0,0.0,0.0,0.0,0.0,0.0,0.0,0.0,0.0,0.0,0.0,0.0,0.0,0.0,0.0,-3.1701,-3.4439,-3.7037,-3.6352,-3.6463,-3.8845,-3.9106,-3.9106,-3.9106,-3.9723,-3.9571,-3.8261,-3.8751,-3.9106,-3.9106,0.0,0.0,0.0,0.0,-4.0096,-4.0096,-3.9445,-3.9106,-3.9106,-3.7726,-3.6998,-3.6914,-3.6096,-3.5684,-3.56,-3.5498,-3.5064,-3.432,-3.3575,-3.2831,-3.2107,-3.1464,-3.114,-3.0903,-2.937,-2.79,-2.662,-1.62,-1.659,-1.7002,-1.7344,-1.774,-1.8042,-1.8169,-1.8254,-1.8661,-1.9649,-2.0538,-2.1651,-2.3128,-2.4067,-2.438,-2.3849,-2.3754,-2.3214,-2.2058,-2.2302,-2.3518,-2.5825,-2.9457,-3.1961,-3.3095,-3.6207,-3.7898,-3.8018,-3.8691,-3.9,-3.9,-3.9,-3.8736,-3.8197,-3.8197,-3.7898,-3.7404,-3.7404,-3.7045,-3.6477,-3.6357,-3.4989,-3.2972,-3.2199,-3.1425,-3.0717,-3.0504,-3.0651,-3.0683,-2.862,-2.7879,-2.7422,-2.4803,-2.3645,0.0,0.0,0.0,0.0,0.0,0.0,0.0,0.0,0.0,0.0,0.0,0.0,0.0,0.0,0.0,0.0,0.0,0.0,0.0,-3.105,-3.4137,-3.6804,-3.8403,-3.8923,-3.9302,-3.9817,-3.9893,-3.9893,-3.9893,-4.0028,-3.9994,-3.9706,-3.9808,-3.9893,-3.9893,-3.9893,-3.996,-4.0096,-4.0096,-4.0096,-4.0096,-3.996,-3.9893,-3.9893,0.0,0.0,-3.7669,-3.6907,-3.6214,-3.5566,-3.4979,-3.4286,-3.3558,-3.2835,-3.209,-3.1393,-3.1258,-3.0835,-3.0209,-2.9294,-2.8364,-2.745,-1.6513,-1.6863,-1.7199,-1.7372,-1.774,-1.8042,-1.8169,-1.8254,-1.8621,-1.9503,-2.0128,-2.1052,-2.249,-2.2853,-2.3018,-2.3046,-2.2621,-2.2625,-2.3312,-2.4135,-2.5904,-2.878,-3.1767,-3.387,-3.4981,-3.7225,-3.8392,-3.8392,-3.908,-3.9388,-3.9388,-3.9388,-3.923,-3.8901,-3.8901,-3.8721,-3.8407,-3.8407,-3.8033,-3.7404,-3.709,-3.6163,-3.4921,-3.4262,-3.3799,-3.3439,-3.3125,-3.2796,-3.2288,-3.0758,-2.9854,-2.9038,-2.717,-2.5893,-2.4721,0.0,0.0,0.0,0.0,0.0,0.0,0.0,0.0,0.0,0.0,0.0,0.0,0.0,0.0,-2.6228,-2.7759,0.0,-3.1801,-3.4218,-3.629,-3.8052,-3.9378,-3.9876,-4.0096,-4.0096,-4.0096,-4.0096,-4.0096,-4.0096,-4.0096,-4.0096,-4.0096,-4.0096,-4.0096,-4.0096,-4.0096,-4.0096,-4.0096,-4.0096,-4.0096,-4.0096,-4.0096,-4.0096,-3.9368,-3.8616,-3.7872,-3.7151,-3.6349,-3.5583,-3.5216,-3.4641,-3.3863,-3.2767,-3.187,-3.119,-3.119,-3.0751,-3.0074,-2.9685,-2.9059,-2.8298,-1.6833,-1.722,-1.7509,-1.7509,-1.776,-1.8022,-1.8149,-1.8234,-1.8562,-1.9346,-1.9721,-2.0399,-2.1705,-2.1592,-2.1567,-2.2008,-2.1442,-2.2016,-2.4297,-2.5749,-2.801,-3.1361,-3.3679,-3.5342,-3.6282,-3.7808,-3.8527,-3.8392,-3.908,-3.9388,-3.9388,-3.9388,-3.9388,-3.9373,-3.9239,-3.923,-3.923,-3.923,-3.8826,-3.8153,-3.7629,-3.7045,-3.6417,-3.5759,-3.5504,-3.5415,-3.4726,-3.3709,-3.2557,-3.1765,-3.0808,-2.9819,-2.9041,-2.795,-2.6574,-2.4721,-2.3731,0.0,0.0,0.0,0.0,0.0,0.0,0.0,0.0,-2.5379,-2.6085,-2.7061,-2.8253,-2.9673,-3.1507,-3.2901,-3.4593,-3.6994,-3.7967,-3.8803,-3.9935,-4.0096,-4.0096,-4.0096,-4.0096,-4.0096,-4.0096,-4.0096,-4.0096,-4.0096,-4.0096,-4.0096,-4.0096,-4.0096,-4.0096,-4.0096,-4.0096,-4.0096,-4.0096,-4.0096,-4.0096,-4.0096,-3.9503,-3.8819,-3.8091,-3.7347,-3.6569,-3.5802,-3.5515,-3.4979,-3.4184,-3.2983,-3.2154,-3.163,-3.163,-3.1258,-3.07,-3.026,-2.9719,-2.9093,-1.6876,-1.7399,-1.7828,-1.7828,-1.7882,-1.7949,-1.8002,-1.8115,-1.8536,-1.946,-1.9767,-2.026,-2.1176,-2.1348,-2.1152,-2.0519,-2.0494,-2.1571,-2.4139,-2.6174,-2.8535,-3.1391,-3.4577,-3.6058,-3.5624,-3.8033,-3.9005,-3.8392,-3.908,-3.9388,-3.9388,-3.9388,-3.9388,-3.9358,-3.8781,-3.8497,-3.8497,-3.8497,-3.8123,-3.7509,-3.7434,-3.7045,-3.6417,-3.5759,-3.5504,-3.5415,-3.4726,-3.4008,-3.32,-3.1929,-3.1406,-3.1077,-2.9864,-2.937,-2.8651,-2.5742,-2.4511,-2.3543,-2.114,-2.1348,-2.2585,-2.4156,-2.4522,-2.5394,0.0,-2.9537,-3.0003,-3.2047,-3.3013,-3.3784,-3.466,-3.5438,-3.6427,-3.7864,-3.8662,-3.9335,-4.0003,-4.0096,-4.0096,-4.0096,-4.0096,-4.0096,-4.0096,-4.0096,-4.0096,-4.0096,-4.0096,-4.0096,-4.0096,-4.0096,-4.0096,-4.0096,-4.0096,-4.0096,-4.0096,-4.0096,-4.0096,-4.0096,-4.0028,-3.9605,-3.8853,-3.8108,-3.7364,-3.6592,-3.5216,-3.4201,-3.3508,-3.3339,-3.3237,-3.3152,-3.3152,-3.3102,-3.2797,-3.0816,-3.0057,-2.9871,-1.6593,-1.7123,-1.7611,-1.7611,-1.7767,-1.7929,-1.8002,-1.8115,-1.8351,-1.8787,-1.9091,-1.955,-2.0358,-2.0591,-2.0401,-1.9628,-2.0367,-2.2016,-2.4701,-2.7193,-2.962,-3.1974,-3.4921,-3.6178,-3.5519,-3.7315,-3.8302,-3.8392,-3.8676,-3.9035,-3.9388,-3.9388,-3.9388,-3.9373,-3.9125,-3.899,-3.899,-3.899,-3.8826,-3.8512,-3.7719,-3.7255,-3.6821,-3.5026,-3.4098,-3.3648,-3.287,-3.1663,0.0,-2.9359,-2.9047,-2.9044,-2.9029,-2.8689,-2.7973,-2.6163,-2.5242,-2.4805,-2.462,-2.4903,-2.5839,-2.833,-2.9255,-3.0093,-3.2144,-3.2862,-3.3462,-3.4758,-3.558,-3.632,-3.7377,-3.7791,-3.8272,-3.9151,-3.9546,-3.9799,-4.0045,-4.0096,-3.9943,-3.952,-3.9842,-4.0096,-4.0096,-4.0096,-4.0096,-4.0096,-4.0096,-4.0096,-4.0096,-4.0096,-4.0096,-4.0096,-4.0096,-4.0096,-4.0096,-4.0096,-4.0096,-4.0096,-4.0096,-3.9723,-3.8971,-3.8244,-3.7246,-3.6079,-3.5436,-3.4726,-3.4032,-3.4032,-3.3795,-3.3406,-3.3406,-3.3406,-3.3237,-3.1884,-3.1376,-3.1207,-1.6343,-1.69,-1.7393,-1.7393,-1.7686,-1.7922,-1.7975,-1.8109,-1.8208,-1.8274,-1.8553,-1.8989,-1.9584,-1.9798,-1.9686,-1.9145,-2.0221,-2.2012,-2.4583,-2.7,-2.9411,-3.1824,-3.4158,-3.5429,-3.5504,-3.6761,-3.7734,-3.8392,-3.8586,-3.8931,-3.9388,-3.9388,-3.9388,-3.9373,-3.923,-3.9125,-3.9125,-3.9125,-3.9035,-3.8745,-3.7793,-3.709,-3.6342,-3.4083,-3.2333,-3.102,-3.058,-2.9277,-2.7647,-2.6741,-2.646,-2.6614,-2.7433,-2.7195,-2.65,-2.5982,-2.5423,-2.5393,-2.7065,-2.7836,-2.8826,-3.1611,-3.3153,-3.4112,-3.4455,-3.5503,-3.6473,-3.6777,-3.7513,-3.8358,-3.9265,-3.9444,-3.9575,-4.002,-4.0282,-4.0333,-4.013,-4.0096,-3.9842,-3.9089,-3.9276,-3.9571,-3.9791,-3.9977,-4.0096,-4.0096,-4.0096,-4.0197,-4.0375,-4.0214,-4.0197,-4.0417,-4.0214,-4.0096,-4.0096,-4.0096,-4.0096,-4.0096,-4.0096,-3.9825,-3.9276,-3.8531,-3.7483,-3.6225,-3.6225,-3.5943,-3.5419,-3.5216,-3.4928,-3.4624,-3.4421,-3.4336,-3.4252,-3.3491,-3.2933,-3.2462,-1.6281,-1.69,-1.7393,-1.7393,-1.7686,-1.7902,-1.7902,-1.8063,-1.8202,-1.8189,-1.8498,-1.8783,-1.8989,-1.9088,-1.9116,-1.9101,-1.9793,-2.112,-2.3223,-2.4779,-2.7101,-3.0432,-3.1884,-3.3529,-3.5459,-3.6761,-3.7734,-3.8392,-3.9065,-3.9394,-3.9388,-3.9388,-3.9388,-3.9394,-3.8721,-3.8422,-3.8422,-3.8422,-3.8063,-3.7464,-3.7419,-3.6267,-3.4459,-3.3066,-3.0466,-2.7631,-2.8207,-2.7609,-2.6312,-2.4808,-2.4351,-2.4524,-2.518,-2.5023,-2.4654,-2.5017,-2.4746,-2.482,-2.6987,-2.8685,-3.0346,-3.253,-3.4689,-3.6135,-3.5518,-3.733,-3.9009,-3.8353,-3.9193,-4.0028,-4.007,-4.007,-4.007,-4.0096,-4.0696,-4.0916,-4.0197,-4.0096,-3.9842,-3.9089,-3.8396,-3.8261,0.0,-3.969,-4.0096,-4.0096,-4.0096,-4.0417,-4.1136,-4.0476,-4.0434,-4.1136,-4.046,-4.0096,-4.0096,-4.0096,-4.0096,-4.0096,-4.0096,-4.0096,-4.0045,-3.9292,-3.8548,-3.7838,-3.7838,-3.7821,-3.7736,-3.7032,-3.7127,-3.7702,-3.6998,-3.6694,-3.6609,-3.5808,-3.4585,-3.3372,-1.5818,-1.6207,-1.6671,-1.6892,-1.7289,-1.7645,-1.7862,-1.8009,-1.8095,-1.8183,-1.8498,0.0,0.0,0.0,0.0,0.0,-1.9711,-2.0834,-2.2459,-2.4323,-2.61,-2.7757,-2.9986,-3.1495,-3.2168,-3.3484,-3.4696,-3.5821,-3.6477,-3.7045,-3.7479,-3.7898,-3.8078,-3.8078,-3.7838,-3.7749,-3.7749,-3.7749,-3.7375,-3.6716,-3.5818,-3.4801,-3.3544,-3.0826,-2.8535,-2.6565,0.0,-2.3604,-2.2768,-2.1789,-2.1789,-2.2395,-2.3703,-2.4082,-2.4227,-2.5199,-2.6139,-2.7302,-2.9514,-3.1632,-3.384,-3.637,-3.7928,-3.8913,-3.9196,-3.9933,-4.0201,-3.9005,-3.8254,-3.7624,-3.7158,-3.7057,-3.7202,-3.7708,-3.9294,-4.0392,-4.0146,-4.051,-4.0375,-3.914,-3.9208,0.0,0.0,0.0,0.0,-4.0062,-4.0544,-4.0713,-4.0485,-4.0696,-4.0713,-4.0485,-4.0231,-4.0096,-4.0096,-4.0096,-4.0096,-4.0096,-4.0096,-3.9842,-3.9343,-3.9106,-3.8599,-3.7905,-3.7905,-3.7905,-3.7889,-3.7635,-3.7686,-3.7889,-3.7635,-3.7533,-3.7432,-3.6671,-3.6079,-3.5436,0.0,-1.6291,-1.6569,-1.695,-1.7232,0.0,0.0,0.0,0.0,0.0,0.0,0.0,0.0,0.0,0.0,0.0,0.0,-2.021,-2.1407,-2.2959,-2.4294,-2.5352,-2.7254,-2.8725,-2.9665,-3.0557,-3.1795,-3.3363,-3.3842,-3.4307,-3.4726,-3.513,-3.5429,-3.5654,-3.5654,-3.5789,-3.6013,-3.6013,-3.5504,-3.4622,-3.3484,-3.2228,-3.0705,-2.7962,-2.5957,0.0,-2.2154,-2.0933,-2.0311,-1.987,-2.038,-2.1469,-2.29,-2.3988,-2.4964,-2.5979,-2.7468,-2.9476,-3.26,-3.4733,-3.6778,-3.9497,-4.0544,-4.0881,-4.0901,-4.1057,-4.0662,-3.869,-3.7386,-3.6289,-3.5301,-3.5116,-3.5352,-3.6087,-3.7952,-3.9512,-4.0045,-4.0273,-4.0155,-3.9462,-3.9368,-3.9326,0.0,0.0,0.0,-4.0045,-4.0781,-4.1102,-4.0908,-4.1339,-4.1373,-4.0908,-4.0612,-4.0383,-4.0096,-4.0096,-4.0096,-4.0096,-4.0096,-3.9859,-3.9402,-3.9402,-3.9123,-3.8684,-3.8684,-3.8684,-3.8667,-3.8396,-3.8447,-3.865,-3.8396,-3.8294,-3.821,-3.7466,-3.7032,-3.6558,0.0,0.0,-1.7045,0.0,0.0,0.0,0.0,0.0,0.0,0.0,0.0,0.0,0.0,0.0,0.0,0.0,0.0,0.0,-2.0089,-2.0772,-2.1762,-2.3171,-2.3873,-2.5381,-2.7906,-2.8099,-2.9119,-3.0981,-3.114,-3.1228,-3.1228,-3.1258,-3.163,-3.2228,-3.2228,-3.2587,-3.3185,-3.3185,-3.2422,-3.1168,-3.0412,-2.8613,-2.6232,-2.4739,-2.2973,-2.1158,-2.0474,-1.9788,-1.9184,-1.9137,-2.0206,-2.1798,-2.298,-2.4874,-2.6786,-2.7413,-2.8965,-3.1478,-3.5985,-3.7844,-3.9115,-4.1666,-4.2286,-4.195,-4.0617,-4.0702,-4.0289,-3.751,-3.6592,-3.5885,-3.447,-3.4218,-3.4487,-3.5318,-3.6854,-3.8464,-3.996,-3.9605,-3.9411,-4.013,-3.8971,-3.8684,-4.0079,0.0,0.0,-4.0163,0.0,-4.1559,-4.2252,-4.2337,-4.232,-4.2236,-4.1593,-4.0882,-4.0113,-4.0096,-4.0096,-4.0096,-4.0096,-4.0096,-4.0096,-4.0096,-4.0096,-4.0096,-4.0096,-4.0096,-4.0045,-3.9326,-3.9462,-4.0028,-3.9326,-3.9056,-3.8954,-3.8227,-3.7499,-3.6812,0.0,0.0,0.0,0.0,0.0,0.0,0.0,0.0,0.0,0.0,0.0,0.0,0.0,0.0,0.0,0.0,0.0,0.0,-1.9286,-2.0036,-2.0631,-2.0988,-2.2207,-2.3423,-2.4606,-2.5103,-2.5829,-2.6821,-2.7365,-2.7643,-2.7658,-2.8132,-2.8444,-2.8634,-2.8634,-2.8723,-2.8886,-2.8886,-2.8411,-2.7583,-2.6876,-2.5912,-2.471,-2.3275,-2.2416,-2.184,-2.107,-2.0674,-2.0544,-2.0604,-2.2297,-2.4646,-2.619,-2.7833,-2.9507,-3.1141,-3.3543,-3.6105,-3.7993,-3.9868,-4.1427,-4.2124,-4.2286,-4.1922,-4.0482,-3.9834,-3.8896,-3.6468,-3.4046,-3.2249,-3.1944,-3.1832,-3.2433,-3.4369,-3.6939,-3.9225,-4.0713,-4.1221,-4.1525,-4.1711,-4.1407,-4.1322,-4.1694,-4.1559,0.0,0.0,-4.1897,-4.21,-4.2286,-4.2828,-4.2625,-4.1525,-4.183,-4.139,-4.0113,-4.0096,-4.0096,-4.0096,-4.0096,-4.0096,-4.0096,-4.0096,-4.0096,-4.0096,-4.0096,-4.0096,-4.0096,-3.991,-3.9943,-4.0079,-3.9893,-3.9825,-3.974,-3.8988,-3.8599,-3.8328,0.0,0.0,0.0,0.0,0.0,0.0,0.0,0.0,0.0,0.0,0.0,0.0,0.0,0.0,0.0,0.0,0.0,0.0,0.0,-1.9449,-1.9715,-1.9715,-2.0508,-2.1272,-2.1932,-2.2312,-2.2973,-2.3953,-2.4087,-2.4302,-2.4545,-2.4657,-2.4887,-2.5145,-2.5145,-2.5316,-2.5597,-2.5597,-2.5189,0.0,0.0,-2.3091,-2.2392,-2.1249,-2.1018,-2.1222,-2.0762,-2.1447,-2.2728,-2.3975,-2.57,-2.7592,-2.9323,-3.0948,-3.2596,-3.4498,-3.6427,-3.8355,-4.0383,-4.1847,-4.2777,-4.2777,-4.254,-4.1728,-3.9547,-3.8475,-3.7125,-3.4155,-3.1858,-3.0302,-3.0048,-3.023,-3.1204,-3.3544,-3.5926,-3.8379,-4.0849,-4.1271,-4.1677,-4.2675,-4.2489,-4.2422,-4.276,-4.2489,-4.2574,0.0,-4.298,-4.2777,-4.2777,-4.3504,-4.3386,-4.2219,-4.2252,-4.1602,-4.0113,-4.0096,-4.0096,-4.0096,-4.0096,-4.0096,-4.0096,-4.0096,-4.0096,-4.0096,0.0,-4.0096,-4.0096,-4.0096,-4.0096,-4.0096,-4.0096,-4.0096,-4.0011,-3.9259,-3.8988,-3.8836,0.0,0.0,0.0,0.0,0.0,0.0,0.0,0.0,0.0,0.0,-1.8163,-1.8279,0.0,0.0,0.0,0.0,0.0,0.0,0.0,0.0,-1.9169,-1.9097,-1.9155,-1.9488,-2.0088,-2.006,-2.0659,-2.1927,-2.1357,-2.1353,-2.1863,-2.1344,-2.1403,-2.1963,-2.1963,-2.2287,-2.284,-2.2928,-2.2568,-2.1913,-2.1295,-2.0635,-1.9987,0.0,-1.9566,-2.0233,-2.0442,-2.2224,-2.492,-2.7708,-2.9248,-3.0324,-3.2334,-3.4044,-3.5652,-3.7414,-3.8346,-3.9492,-4.2567,-4.3477,-4.3521,-4.3291,-4.2709,-4.1313,-3.8123,-3.6767,-3.5138,-3.1502,-3.0045,-2.9301,-2.9049,-2.952,-3.0767,-3.3347,-3.4986,-3.7172,-4.0832,-4.0781,-4.117,-4.3318,-4.2997,-4.2861,-4.3504,-4.298,-4.3149,-4.4513,-4.3944,-4.3572,-4.3572,-4.4215,-4.4265,-4.3589,-4.2743,-4.1677,-4.04,-4.0299,-4.0197,-4.0096,-4.0096,-4.0096,-4.0096,-4.0096,-4.0096,-4.0096,-4.0096,-4.0096,-4.0096,-4.0096,-4.0096,-4.0096,-4.0096,-4.0096,-4.0028,-3.9377,-3.914,-3.8954,0.0,0.0,0.0,0.0,0.0,0.0,0.0,0.0,0.0,0.0,-1.8133,-1.8082,0.0,0.0,0.0,0.0,0.0,0.0,0.0,0.0,0.0,-1.9046,-1.9493,-1.9864,-2.0103,-1.9522,-1.9609,-2.0462,-1.9827,-1.955,-1.9652,-1.9536,-1.955,-1.9667,-1.9667,-1.9744,-1.989,-2.0444,-2.0298,-1.971,-2.0127,-1.9895,-1.928,-1.9145,0.0,0.0,-2.2149,-2.34,-2.4995,-2.824,-3.0267,-3.1967,-3.5061,-3.6632,-3.7691,-3.9209,-4.0594,-4.1869,-4.3071,-4.3893,-4.4107,-4.2811,-4.1931,-4.0417,-3.6723,-3.4829,-3.314,-3.0529,-2.8822,-2.8369,-3.0253,-3.065,-3.1913,-3.5616,-3.6941,-3.8582,-4.166,-4.1999,-4.2523,-4.4209,-4.4293,-4.4259,-4.4395,-4.4293,0.0,0.0,-4.4479,-4.4384,-4.4384,-4.453,-4.4547,-4.4412,-4.3014,-4.2168,-4.1914,-4.1305,-4.0696,-4.0096,-4.0096,-4.0096,-4.0096,-4.0096,-4.0096,-4.0096,-4.0096,0.0,-4.0096,-4.0096,-4.0096,-4.0096,-4.0096,-4.0096,-4.0079,-3.996,-3.991,-3.9876,0.0,0.0,0.0,0.0,0.0,0.0,-1.6653,-1.7261,-1.7798,-1.8196,-1.8398,-1.8636,-1.9016,-1.8858,-1.8911,0.0,0.0,0.0,0.0,0.0,0.0,0.0,0.0,0.0,-2.0399,-2.0071,-2.0214,-2.0888,0.0,-2.0097,-2.0378,-2.0082,-1.9924,-1.9924,-1.9969,-1.9975,-2.0004,-2.0402,-2.0378,-2.0117,-2.0436,-2.0378,0.0,0.0,0.0,0.0,0.0,-2.3725,-2.4814,-2.7704,-2.9781,-3.183,-3.5595,-3.7845,-3.9174,-3.9884,-4.1136,-4.2455,-4.3217,-4.3995,-4.4242,-4.2675,-4.1745,-3.9969,-3.5323,-3.3412,-3.1724,-2.8584,-2.7308,-2.7374,-2.9345,-2.9978,-3.124,-3.4364,-3.5863,-3.7547,-4.013,-4.1212,-4.2286,-4.3792,-4.4361,-4.4615,-4.4615,-4.4615,-4.4615,-4.4615,-4.4615,-4.4615,-4.4615,-4.4615,-4.4429,-4.3995,-4.3267,-4.2692,-4.2286,-4.1576,-4.1018,-4.0663,-4.0282,-4.0096,-4.0096,-4.0096,-4.0096,-4.0096,-4.0096,0.0,-4.0629,-4.0265,-4.0333,-4.0629,-4.0265,-4.0096,-4.0096,-4.0096,-4.0096,-4.0045,0.0,0.0,0.0,0.0,0.0,0.0,-1.6476,-1.6933,-1.7458,-1.8183,-1.8834,-1.938,-1.9844,-1.9549,-1.955,0.0,0.0,0.0,0.0,0.0,0.0,0.0,0.0,0.0,0.0,0.0,0.0,-2.1604,-2.1012,0.0,0.0,0.0,0.0,0.0,-2.0753,-2.0781,-2.0795,-2.1023,-2.1056,0.0,0.0,-2.1077,0.0,0.0,0.0,0.0,0.0,-2.3644,-2.4447,-2.682,-2.8719,-3.0703,-3.428,-3.7101,-3.9166,-3.9479,-4.0637,-4.2023,-4.3105,-4.3859,-4.3995,-4.2625,-4.1508,-3.9429,-3.4482,-3.2521,-3.0751,-2.717,-2.6319,-2.6718,-2.8405,-2.921,-3.0419,-3.2935,-3.4382,-3.6047,-3.8461,-4.002,-4.155,-4.3189,-4.4113,-4.4615,-4.4615,-4.4615,0.0,-4.4615,-4.4615,-4.4615,-4.4615,-4.4615,-4.4299,-4.369,-4.3673,-4.3301,-4.254,-4.1796,-4.1373,-4.1187,-4.0468,-4.0096,-4.0096,-4.0096,-4.0197,-4.035,-4.035,0.0,0.0,-4.0823,-4.0815,-4.1136,-4.0544,-4.0248,-4.0096,-4.0096,-4.0096,-4.0028,0.0,0.0,0.0,0.0,0.0,0.0,-1.6126,-1.6943,-1.78,-1.8474,-1.9346,-1.9978,-2.0142,-1.9907,-1.9812,0.0,0.0,0.0,0.0,0.0,0.0,0.0,0.0,0.0,0.0,0.0,0.0,-2.1604,-2.1012,0.0,0.0,0.0,0.0,0.0,0.0,-2.0719,-2.0762,-2.1319,0.0,0.0,0.0,0.0,0.0,0.0,0.0,0.0,0.0,-2.3327,-2.3718,-2.596,-2.7482,-2.8714,-3.0363,-3.3206,-3.6201,-3.7525,-3.8983,-4.0601,-4.279,-4.3443,-4.3335,-4.2489,-4.073,-3.8314,-3.4869,-3.2488,-3.0282,-2.7719,-2.6667,-2.6868,-2.9093,-2.9562,-3.0586,-3.36,-3.4209,-3.5383,-3.8369,-3.9514,-4.0863,-4.3139,-4.4113,-4.4615,-4.4615,-4.4615,-4.4615,-4.4615,-4.4615,-4.4615,-4.4615,-4.4615,-4.4581,-4.4496,-4.4496,-4.4096,-4.3291,-4.2574,-4.1863,-4.1187,-4.0468,-4.0096,-4.0096,-4.0096,-4.0485,-4.1102,-4.1102,0.0,0.0,-4.2117,-4.1728,-4.1204,-4.1136,-4.0679,-4.0096,-4.0096,-4.0096,-4.0096,0.0,0.0,0.0,0.0,0.0,0.0,-1.6328,-1.6879,-1.7539,-1.8372,-1.9105,-1.9578,-1.9694,-1.9835,-2.0037,-2.0337,-2.0378,0.0,0.0,0.0,0.0,0.0,0.0,0.0,0.0,0.0,-2.1671,-2.1956,-2.1716,0.0,0.0,0.0,0.0,0.0,0.0,0.0,-2.1737,0.0,0.0,0.0,0.0,0.0,0.0,0.0,0.0,0.0,0.0,0.0,-2.3238,-2.45,-2.5703,-2.6746,-2.7065,-2.9042,-3.1817,-3.483,-3.7087,-3.9,-4.089,-4.2066,-4.2557,-4.183,-4.0307,-3.8162,-3.4919,-3.2488,-3.0349,-2.8384,-2.7381,-2.7398,-2.9161,-2.9477,-3.0028,-3.1698,-3.2395,-3.3523,-3.5736,-3.7511,-3.9438,-4.1786,-4.3149,-4.4062,0.0,0.0,-4.4615,-4.4615,-4.4615,-4.4615,-4.4615,-4.4615,-4.4615,-4.4615,-4.413,-4.3961,-4.4113,-4.2472,-4.1711,-4.1847,-4.0671,-4.0096,-4.013,-4.0544,-4.0916,-4.1221,-4.1677,0.0,0.0,-4.2472,-4.2388,-4.2455,-4.1559,-4.1018,-4.0696,-4.0265,-4.0096,-4.0096,0.0,0.0,0.0,0.0,0.0,-1.6112,-1.6491,-1.6748,-1.7245,-1.8255,-1.8721,-1.9001,-1.9158,-1.9422,-1.9747,-2.0105,-2.0355,0.0,0.0,0.0,0.0,0.0,0.0,0.0,0.0,0.0,-2.2208,-2.2208,-2.2208,-2.2208,0.0,0.0,0.0,0.0,0.0,0.0,0.0,0.0,0.0,0.0,0.0,0.0,0.0,0.0,0.0,0.0,0.0,0.0,0.0,0.0,0.0,-2.5269,-2.4957,-2.615,-2.8426,-3.2257,-3.4936,-3.7114,-3.92,-4.0705,-4.1508,-4.1001,-3.9572,-3.7557,-3.4813,-3.2466,-3.0423,-2.8995,-2.8127,-2.7995,-2.9185,-2.9397,-2.9628,-3.0373,-3.1224,-3.2262,-3.3623,-3.5836,-3.8023,-3.9885,0.0,-4.301,-4.3798,-4.4316,-4.4615,-4.4615,-4.4615,-4.4615,-4.4615,-4.4615,-4.4615,-4.4615,-4.4045,-4.4028,-4.4598,-4.2557,-4.1897,-4.2608,-4.1119,-4.0553,-4.0773,-4.1288,-4.1644,-4.1897,-4.2405,0.0,0.0,-4.3183,-4.3014,-4.298,-4.1931,-4.1255,-4.0798,-4.0299,-4.0096,-4.0096,0.0,0.0,0.0,0.0,0.0,-1.64,-1.64,-1.6512,-1.7042,-1.8228,-1.8394,-1.8464,-1.8587,-1.8614,-1.8721,-1.8987,-1.9862,0.0,0.0,0.0,0.0,0.0,0.0,0.0,-2.2208,-2.2208,-2.2208,-2.2208,-2.2208,-2.2208,-2.2208,-2.2208,-2.2208,-2.2208,0.0,0.0,0.0,0.0,0.0,0.0,0.0,0.0,-2.2592,0.0,0.0,0.0,0.0,0.0,0.0,0.0,0.0,0.0,0.0,-2.5048,-2.6599,-2.9955,-3.2488,-3.4936,-3.8145,-3.9571,-4.013,-4.0113,-3.834,-3.6198,-3.4566,-3.2398,-3.0455,-2.9586,-2.8853,-2.8608,-2.9284,-2.9397,-2.9628,-3.0373,-3.1224,-3.2057,-3.2812,-3.4927,-3.6695,0.0,-3.9597,-4.1307,-4.2058,-4.3635,-4.4615,-4.4615,-4.4615,0.0,-4.4615,-4.4615,-4.4615,-4.4615,-4.4598,-4.4598,-4.4615,-4.3047,-4.2658,-4.3358,-4.1897,-4.1576,-4.2269,-4.2286,-4.2692,-4.3375,0.0,0.0,0.0,-4.4581,-4.3684,-4.2303,-4.2286,-4.1416,-4.0113,-4.0096,-4.0096,-4.0096,0.0,0.0,0.0,0.0,0.0,0.0,-1.6512,-1.6573,-1.6991,-1.8039,-1.8193,-1.8259,-1.8437,-1.8464,-1.8545,-1.8721,-1.9422,0.0,0.0,0.0,0.0,0.0,0.0,0.0,-2.1769,-2.1793,-2.1793,-2.1793,-2.2486,-2.2817,-2.2817,-2.2817,-2.2817,-2.2788,-2.239,-2.2208,0.0,0.0,0.0,0.0,0.0,-2.2301,-2.2324,0.0,0.0,0.0,0.0,0.0,0.0,0.0,0.0,0.0,0.0,0.0,0.0,-2.7613,-2.9858,-3.2273,-3.4382,-3.5872,-3.6814,-3.6814,-3.5877,-3.4667,-3.3567,-3.1967,-3.0605,-3.0228,-2.9579,-2.9301,-3.0009,-2.9744,-2.9851,-3.1157,-3.1204,-3.1516,-3.2859,-3.5064,-3.6999,-3.8244,-4.1403,-4.3736,0.0,0.0,-4.4818,-4.5314,-4.4874,-4.4615,-4.4615,-4.4615,-4.4615,-4.4615,-4.4062,-4.4045,-4.4598,-4.3064,-4.2675,-4.3375,-4.2422,-4.2066,-4.2303,-4.2828,-4.32,0.0,0.0,0.0,0.0,-4.4615,-4.3978,-4.3014,-4.2489,-4.1694,-4.0781,-4.0299,-4.0096,-4.0087,0.0,0.0,0.0,0.0,0.0,0.0,-1.6758,-1.6834,-1.7183,-1.7981,-1.8084,-1.815,-1.8275,-1.8286,-1.8356,-1.8518,-1.8907,0.0,0.0,0.0,0.0,0.0,0.0,0.0,-2.1385,-2.1372,-2.1456,-2.1686,-2.2487,-2.3003,-2.32,-2.32,-2.3174,-2.3083,-2.2363,-2.2096,0.0,0.0,0.0,0.0,-2.2208,-2.2208,-2.2208,0.0,0.0,0.0,0.0,0.0,0.0,0.0,0.0,0.0,0.0,0.0,0.0,0.0,-2.8335,-3.0352,-3.2185,-3.3762,-3.4885,-3.4885,-3.4287,-3.3484,-3.2662,-3.152,-3.0609,-3.0526,-3.0125,-2.9959,-3.0423,-3.0125,-3.0149,-3.1141,-3.1479,-3.1947,-3.2887,-3.5087,0.0,-3.9017,-4.1842,0.0,0.0,-4.4688,-4.4801,-4.5246,-4.484,-4.4615,-4.4615,-4.4615,-4.4615,-4.4615,-4.4113,-4.4079,-4.4615,-4.3335,-4.3098,-4.3842,-4.3081,-4.2861,-4.3166,-4.3639,-4.3859,0.0,0.0,0.0,0.0,-4.4265,-4.369,-4.2912,-4.2168,-4.1424,-4.073,-4.0282,-4.0096,-4.0087,0.0,0.0,0.0,0.0,0.0,0.0,0.0,-1.725,-1.7565,-1.8043,-1.8084,-1.8084,-1.8084,-1.8084,-1.8177,-1.8367,-1.8394,0.0,0.0,0.0,0.0,0.0,0.0,-2.0771,-2.0944,-2.0944,-2.1184,-2.1703,-2.2255,-2.2824,-2.3372,-2.3399,-2.3319,-2.3101,-2.2233,-2.1982,-2.2217,0.0,0.0,0.0,-2.2264,-2.2264,0.0,0.0,0.0,0.0,0.0,0.0,0.0,0.0,0.0,0.0,0.0,0.0,0.0,0.0,0.0,0.0,0.0,-3.2847,-3.3935,-3.3935,-3.3328,-3.254,-3.1853,-3.1087,0.0,-3.0506,-3.0506,-3.0506,-3.0506,-3.0456,-3.0456,-3.0576,-3.2,-3.3081,-3.2984,-3.5209,0.0,0.0,-4.1367,0.0,-4.3409,-4.4147,-4.4632,-4.4682,-4.4632,-4.4615,-4.4615,-4.4615,-4.4615,-4.4615,-4.4615,-4.4615,-4.4615,-4.3859,-4.3859,-4.4598,-4.3842,-4.3876,-4.4615,-4.4615,-4.4615,0.0,0.0,0.0,0.0,-4.3741,-4.298,-4.2219,-4.1491,-4.0747,-4.0096,-4.007,-4.0045,-3.9995,0.0,0.0,0.0,0.0,0.0,0.0,0.0,0.0,0.0,0.0,-1.8084,-1.8084,-1.8084,-1.8084,-1.8111,0.0,0.0,0.0,0.0,0.0,0.0,0.0,-1.9552,-1.9773,-2.051,-2.0447,-2.0512,-2.0743,-2.2073,-2.2803,-2.295,-2.3352,-2.3527,-2.3447,-2.2791,-2.2439,-2.2358,-2.2239,0.0,0.0,-2.2887,-2.2887,0.0,0.0,0.0,0.0,-2.2592,-2.3054,0.0,0.0,0.0,0.0,0.0,0.0,0.0,0.0,-2.7484,-2.8811,-2.9342,0.0,-3.1373,-3.1373,-3.1219,-3.1032,0.0,-3.0642,-3.0506,-3.0506,-3.0506,-3.0506,-3.0506,-3.0042,-3.0066,-3.1295,-3.2414,-3.3287,-3.3812,-3.6901,0.0,-4.0763,-4.275,-4.4085,-4.4282,-4.4496,-4.4852,-4.5399,-4.4936,-4.4615,-4.4615,-4.4615,-4.4615,-4.4615,-4.4615,-4.4615,-4.4615,-4.4401,-4.4401,-4.4615,-4.4429,-4.4429,-4.4615,-4.4615,-4.4615,0.0,0.0,0.0,-4.4547,-4.3741,-4.298,-4.2219,-4.1491,-4.0747,-4.007,-3.9986,-3.9627,-3.9209,0.0,0.0,0.0,0.0,0.0,0.0,0.0,0.0,0.0,0.0,-1.8084,-1.8084,-1.8084,-1.8084,-1.8084,0.0,0.0,0.0,0.0,0.0,0.0,-1.9226,-1.9093,-1.9303,-1.9914,-1.9875,-2.0153,-2.0777,-2.19,-2.2691,-2.316,-2.3531,-2.3672,-2.3561,-2.3178,-2.2986,-2.2916,-2.301,-2.3262,-2.3558,-2.3558,0.0,0.0,0.0,0.0,0.0,-2.296,-2.3152,0.0,-2.4615,-2.4866,-2.4911,0.0,0.0,0.0,0.0,-2.7896,-2.8736,-2.8922,-2.9734,-3.0485,-3.0401,-3.0426,-3.0506,-3.0464,-3.0485,-3.0506,-3.0506,-3.0506,-3.0506,-3.0506,-3.0497,-3.0755,-3.1589,-3.3105,0.0,0.0,0.0,-4.0348,-4.155,-4.3081,-4.4181,0.0,-4.4615,-4.4784,-4.5162,-4.4835,-4.4615,-4.4615,-4.4615,-4.4615,-4.4615,-4.4615,-4.4615,-4.4615,-4.4615,-4.4615,-4.4615,-4.4615,-4.4615,-4.4615,-4.4615,-4.4412,0.0,0.0,0.0,-4.3498,-4.2709,-4.2168,-4.1711,-4.0984,-4.0468,-4.007,-3.9935,-3.947,-3.8908,0.0,0.0,0.0,0.0,0.0,0.0,0.0,0.0,0.0,0.0,0.0,0.0,0.0,0.0,0.0,0.0,0.0,0.0,0.0,0.0,-1.8255,-1.8623,-1.8836,-1.9103,-1.9491,-1.9491,-2.0023,-2.116,-2.1711,-2.2429,-2.3331,-2.3539,-2.3583,-2.3471,-2.3366,-2.3416,-2.3547,-2.3865,-2.4098,-2.4219,-2.4134,0.0,0.0,0.0,0.0,0.0,0.0,0.0,0.0,-2.5189,-2.5223,-2.4814,-2.6737,0.0,0.0,0.0,0.0,0.0,-2.9059,-2.9802,-3.0405,-3.0157,-3.0253,-3.0422,-3.0338,-3.0422,-3.0506,-3.0506,-3.0506,-3.0539,-3.0659,-3.129,-3.181,-3.1961,0.0,0.0,-3.9022,-3.9969,-4.0905,-4.2151,-4.3064,0.0,-4.435,-4.453,-4.4615,-4.4615,-4.4615,-4.4615,-4.4615,-4.4615,-4.4547,-4.4429,-4.4429,-4.4378,-4.4259,-4.4479,-4.4615,-4.4615,-4.4496,-4.4429,-4.4401,-4.431,-4.3876,-4.3223,0.0,0.0,-4.2209,-4.1482,-4.1178,-4.111,-4.0375,-4.002,-3.9901,-3.9884,-3.9322,-3.8509,0.0,0.0,0.0,0.0,0.0,0.0,0.0,0.0,0.0,0.0,0.0,0.0,0.0,0.0,0.0,0.0,0.0,0.0,0.0,-1.8084,-1.8334,-1.8843,-1.874,-1.9042,-1.9891,-1.9903,-2.0278,-2.1031,-2.1572,-2.191,-2.2083,-2.2625,-2.2919,-2.3017,-2.2987,-2.3193,-2.3593,-2.3537,-2.4026,-2.4824,-2.4303,0.0,0.0,0.0,0.0,0.0,0.0,0.0,0.0,-2.4863,-2.5448,-2.5873,-2.6777,0.0,0.0,0.0,0.0,0.0,-2.8525,-2.9423,-3.0206,-2.9743,-2.9826,-3.0081,-3.006,-3.0295,-3.0506,-3.0506,-3.0506,-3.0729,-3.1444,-3.1618,-3.2121,-3.3567,0.0,-3.8898,0.0,0.0,-4.2733,-4.2337,0.0,-4.4198,-4.3656,-4.4198,-4.4615,-4.4615,-4.4615,-4.4615,-4.4615,-4.4615,-4.4282,-4.3623,-4.3589,-4.3284,-4.2642,-4.3955,-4.4615,-4.4598,-4.391,-4.3589,-4.3572,-4.2929,-4.2574,-4.2455,0.0,-4.2233,-4.2065,-4.1334,-4.103,-4.0963,-4.0333,-3.9688,-3.9156,-3.9566,-3.8541,-3.6934,0.0,0.0,0.0,0.0,0.0,0.0,0.0,0.0,0.0,0.0,0.0,0.0,0.0,0.0,0.0,0.0,0.0,0.0,0.0,-1.8524,-1.8782,-1.9298,-1.932,-1.9568,-2.0145,-2.0266,-2.0633,-2.1328,-2.1584,-2.1883,-2.2297,-2.2646,-2.3017,-2.3369,-2.3308,-2.3597,-2.4096,-2.4299,-2.4655,-2.5093,0.0,0.0,0.0,0.0,0.0,0.0,0.0,0.0,0.0,0.0,-2.6027,-2.6035,-2.6847,0.0,0.0,0.0,0.0,0.0,-2.789,-2.8434,-2.9112,-2.9556,-3.0463,-3.1224,-3.1157,-3.1534,-3.1895,-3.181,-3.181,-3.2026,-3.284,-3.3306,-3.4436,-3.6973,0.0,-3.943,-4.1499,-4.198,-4.2307,0.0,0.0,-4.3978,-4.4045,-4.4395,-4.4615,-4.4615,-4.4615,-4.4615,-4.4615,-4.4615,-4.4215,-4.3426,-4.3392,-4.3064,-4.2303,-4.2997,-4.3555,-4.3944,-4.3166,-4.3014,-4.3358,-4.2642,-4.2066,-4.1711,0.0,-4.107,-4.0384,-4.0323,-4.0093,-3.9771,-3.9856,-3.9428,-3.8745,-3.8218,-3.7381,-3.643,0.0,0.0,0.0,0.0,0.0,0.0,0.0,0.0,0.0,0.0,0.0,0.0,0.0,0.0,0.0,0.0,0.0,0.0,0.0,-1.908,-1.931,-1.9838,-1.9998,-2.0182,-2.0393,-2.0604,-2.1026,-2.1662,-2.1722,-2.2031,-2.2598,-2.2769,-2.3108,-2.3547,-2.3471,-2.3842,-2.4509,-2.4701,-2.4927,-2.5163,0.0,0.0,0.0,0.0,0.0,0.0,0.0,0.0,0.0,0.0,0.0,0.0,0.0,0.0,0.0,-2.7119,-2.7372,-2.7545,-2.7386,-2.7679,-2.8298,-2.9496,-3.0951,-3.2127,-3.2236,-3.2873,-3.3345,-3.3102,-3.3148,-3.3421,-3.3985,-3.5058,0.0,-3.9328,-3.959,-4.0187,-4.226,-4.2139,-4.2297,-4.3527,-4.369,-4.3927,-4.4547,-4.4615,-4.4615,-4.4615,-4.4615,-4.453,-4.4344,-4.4316,-4.3804,-4.2722,-4.2814,-4.2459,-4.1523,-4.1673,-4.2209,-4.3149,-4.2388,-4.2257,-4.26,-4.2011,-4.1326,-4.0613,-4.0481,-3.9794,-3.8843,-3.9109,-3.8903,-3.8497,-3.9189,-3.9119,-3.8469,-3.6904,-3.6384,-3.6305,0.0,0.0,0.0,0.0,0.0,0.0,0.0,0.0,0.0,0.0,0.0,0.0,0.0,0.0,0.0,0.0,0.0,0.0,-1.9631,-1.9631,-1.9849,-2.0343,-2.0549,-2.064,-2.067,-2.0942,-2.1324,-2.1877,-2.2063,-2.218,-2.2259,-2.2555,-2.2739,-2.2769,-2.2909,-2.3543,-2.4454,-2.3809,-2.4096,-2.4968,-2.4444,0.0,0.0,0.0,0.0,0.0,0.0,0.0,0.0,0.0,0.0,0.0,0.0,0.0,-2.7003,-2.7003,-2.7119,-2.7218,-2.7233,-2.778,-2.8614,-2.955,-3.0631,-3.1694,-3.2554,-3.3551,-3.4145,-3.3579,-3.3906,-3.4309,-3.4358,-3.6105,-3.7806,-3.8564,-4.0575,-4.2327,-4.3189,0.0,-4.4367,-4.4513,-4.4513,-4.4547,-4.4598,-4.4615,-4.4615,-4.4615,-4.4615,-4.4265,-4.3538,-4.3504,-4.2566,-4.0574,-4.1076,-4.0671,-3.9247,-3.9785,-4.0837,-4.2371,-4.1627,-4.0956,-4.0343,-4.0146,-3.963,-3.8882,-3.8733,-3.8606,-3.8474,-3.7966,-3.7735,-3.7764,-3.8497,-3.8679,-3.8278,-3.6305,-3.5941,-3.6305,0.0,0.0,0.0,0.0,0.0,0.0,0.0,0.0,0.0,0.0,0.0,0.0,0.0,0.0,0.0,0.0,0.0,0.0,-2.0113,-2.0136,-2.0354,-2.0891,-2.0976,-2.1008,-2.1008,-2.1381,-2.1704,-2.1894,-2.2173,-2.234,-2.2328,-2.2451,-2.2616,-2.283,-2.28,-2.3308,-2.4193,-2.4097,-2.4517,-2.5253,-2.5228,-2.5372,0.0,0.0,0.0,0.0,0.0,0.0,0.0,0.0,-2.6309,-2.6486,-2.6733,-2.6899,-2.6977,-2.6899,-2.6963,-2.7081,-2.7081,-2.7668,-2.858,-2.9844,-3.1187,-3.2478,-3.3466,-3.4784,-3.5654,-3.5117,-3.5524,-3.5871,-3.5684,-3.7594,-3.9219,-3.9285,-4.098,-4.2557,-4.3318,-4.3673,-4.4045,-4.4547,-4.4147,-4.4045,-4.4564,-4.4615,-4.4542,-4.4412,-4.4002,-4.3586,-4.3288,-4.2762,-4.1787,-4.0354,-4.032,-3.9891,-3.9017,-3.8739,-3.9084,-4.0049,-4.0196,-4.0121,-3.9912,-3.9396,-3.8789,-3.8133,-3.7994,-3.769,-3.7322,-3.7442,-3.7221,-3.689,-3.716,-3.7235,-3.7071,-3.591,-3.5651,-3.5797,0.0,0.0,0.0,0.0,0.0,0.0,0.0,0.0,0.0,0.0,0.0,0.0,0.0,0.0,0.0,0.0,0.0,0.0,-2.063,-2.0653,-2.0733,-2.0948,-2.096,-2.096,-2.096,-2.1366,-2.1666,-2.1843,-2.2173,-2.2328,-2.2328,-2.2389,-2.2641,-2.3077,-2.317,-2.3684,-2.4474,-2.4593,-2.4907,-2.5316,-2.555,-2.5612,0.0,0.0,0.0,0.0,0.0,0.0,0.0,0.0,-2.6645,-2.6806,-2.6806,-2.6873,-2.6925,-2.6832,-2.703,-2.731,-2.731,-2.7751,-2.8571,-3.0129,-3.1431,-3.2633,-3.4006,-3.5632,-3.6754,-3.6476,-3.6702,-3.7058,-3.7449,-3.8543,0.0,0.0,-4.1158,-4.2286,-4.3257,-4.3217,-4.3267,-4.3819,-4.3358,-4.3202,-4.3753,-4.3776,-4.3676,-4.3547,-4.306,-4.269,-4.2444,-4.1875,-4.0933,-3.956,-3.9472,-3.9059,-3.8294,-3.7908,-3.7921,-3.8302,-3.8767,-3.8902,-3.8798,-3.8681,-3.8161,-3.7354,-3.7265,-3.6965,-3.6538,-3.6723,-3.6631,-3.6368,-3.6196,-3.6227,-3.6321,-3.5701,-3.5504,-3.5504,0.0,0.0,0.0,0.0,0.0,0.0,0.0,0.0,-1.8803,-1.9614,-1.9941,0.0,0.0,0.0,0.0,0.0,0.0,0.0,-2.119,-2.119,-2.096,-2.0423,-2.0412,-2.0412,-2.0412,-2.0736,-2.1158,-2.1698,-2.2042,-2.2197,-2.2197,-2.234,-2.2805,-2.352,-2.4078,-2.4743,-2.5469,-2.5159,-2.5048,-2.5106,-2.5032,-2.5021,-2.5077,0.0,0.0,0.0,0.0,0.0,0.0,0.0,-2.6645,-2.6806,-2.6806,-2.6806,-2.6806,-2.6806,-2.7363,-2.7981,-2.7981,-2.8101,-2.8625,-3.0373,-3.1113,-3.1959,-3.4027,-3.5895,-3.726,-3.748,-3.7313,-3.7695,-3.953,-3.8816,0.0,-4.0647,-4.11,-4.1702,-4.3172,-4.276,-4.2286,-4.2286,-4.2153,-4.2088,-4.2105,-4.198,-4.1898,-4.1898,-4.1881,-4.158,-4.0833,-4.0756,-3.9842,-3.7867,-3.8358,-3.8048,-3.6692,-3.728,-3.7501,-3.7399,-3.7399,-3.7115,-3.6646,-3.7921,-3.7735,-3.6399,-3.6399,-3.6399,-3.6337,-3.5733,-3.5846,-3.6337,-3.5733,-3.5878,-3.6321,-3.5701,-3.5504,-3.5504,0.0,0.0,0.0,0.0,0.0,0.0,0.0,0.0,-1.9266,-1.9647,-2.0069,0.0,0.0,0.0,0.0,0.0,0.0,0.0,-2.0653,-2.0641,-2.0412,-1.993,-2.0228,-2.0473,-2.0595,-2.1252,-2.1739,-2.2042,-2.2539,-2.2558,-2.2197,-2.2715,-2.3159,-2.3533,-2.4564,-2.5196,-2.5514,-2.5719,-2.5746,-2.5735,-2.566,-2.5626,-2.564,0.0,0.0,0.0,0.0,0.0,0.0,0.0,0.0,0.0,-2.6806,-2.6806,-2.6806,-2.6806,-2.6977,-2.7176,-2.7255,-2.8154,-2.9312,-3.0398,-3.1609,-3.2944,-3.462,-3.6117,-3.7462,-3.867,-3.9166,-3.9229,-3.8602,-3.9478,0.0,-3.8914,-4.0171,-4.1416,-4.1849,-4.1698,-4.1685,-4.2119,-4.1661,-4.1339,-4.1326,-4.1672,-4.1504,-4.0488,-4.0353,-4.0005,-3.935,-3.8734,-3.8017,-3.7191,-3.7115,-3.6981,-3.6708,-3.6321,-3.6321,-3.6692,-3.6692,-3.66,-3.6461,-3.686,-3.6569,-3.5765,-3.5765,-3.5765,-3.5765,-3.5554,-3.5587,-3.5733,-3.5569,-3.5619,-3.5733,-3.5569,-3.5504,-3.5504,0.0,0.0,0.0,0.0,0.0,0.0,0.0,0.0,-1.9464,-1.9903,-2.0222,-2.0508,0.0,0.0,0.0,0.0,0.0,0.0,-2.0159,-2.0125,-1.9998,-1.9711,-1.9975,-2.0308,-2.0687,-2.191,-2.2416,-2.2197,-2.2573,-2.2483,-2.1976,-2.2901,-2.3536,-2.4006,-2.5371,-2.5934,-2.5864,-2.6484,-2.6622,-2.6394,-2.6301,-2.6259,-2.6259,0.0,0.0,0.0,0.0,0.0,0.0,0.0,0.0,0.0,-2.6806,-2.6806,-2.6864,-2.7164,-2.7465,-2.7852,-2.8542,-2.947,-3.0483,-3.1566,-3.2611,-3.3786,-3.5263,-3.6677,-3.8169,-3.9929,-4.0151,-3.9814,-3.9026,-3.9577,0.0,-3.932,-3.9865,-4.0669,-4.1516,-4.0798,-4.0341,-4.0711,-4.01,-3.9642,-3.9641,-3.992,-3.9776,-3.8906,-3.8758,-3.8563,-3.8195,-3.768,-3.7191,-3.6723,-3.6245,-3.606,-3.6227,-3.5461,-3.5413,-3.6053,-3.6053,-3.6053,-3.6053,-3.629,-3.6085,-3.5504,-3.5504,-3.5355,-3.51,-3.51,-3.51,-3.51,-3.51,-3.5265,-3.5504,-3.5504,-3.5504,-3.5474,0.0,0.0,-1.9156,-1.8998,0.0,0.0,0.0,0.0,-1.9532,-2.0323,-2.041,-2.0529,0.0,0.0,0.0,0.0,0.0,0.0,0.0,-1.9734,-1.9734,-1.9688,-1.9856,-2.0222,-2.0826,-2.2524,-2.3009,-2.2113,-2.2383,-2.225,-2.1788,-2.3021,-2.4018,-2.4791,-2.6342,-2.675,-2.642,-2.7322,-2.7429,-2.6976,-2.686,-2.6849,-2.6891,-2.6835,0.0,0.0,0.0,0.0,0.0,0.0,0.0,0.0,-2.6806,-2.6806,-2.6948,-2.7679,-2.8458,-2.9376,-3.073,-3.1335,-3.1913,-3.3337,-3.394,-3.4562,-3.595,-3.7362,-3.8919,-4.0904,-4.0353,-3.9663,-4.0214,-3.9317,-3.9047,-4.0746,-3.9846,-3.9561,-4.1443,-3.9924,-3.8591,-3.8608,-3.8007,-3.756,-3.7501,-3.7458,-3.734,-3.7251,-3.728,-3.728,-3.7221,-3.7221,-3.6919,-3.6245,-3.5661,-3.5323,-3.531,-3.4696,-3.4696,-3.5325,-3.5325,-3.5325,-3.5357,-3.5963,-3.593,-3.5415,-3.5415,-3.5055,-3.4503,-3.4444,-3.4414,-3.4414,-3.4414,-3.4801,-3.5415,-3.5415,-3.5415,-3.5325,0.0,0.0,-1.9345,-1.9293,0.0,0.0,0.0,0.0,0.0,-2.0561,0.0,0.0,0.0,0.0,0.0,0.0,0.0,0.0,0.0,-2.0044,-2.009,-1.9711,-2.095,-2.1728,-2.1864,-2.2536,-2.246,-2.1566,-2.2701,-2.318,-2.3126,-2.3949,-2.4901,-2.5908,-2.6692,-2.7001,-2.6857,-2.6981,-2.696,-2.6847,-2.6806,-2.7116,-2.7538,-2.7003,-2.6722,0.0,0.0,0.0,0.0,0.0,0.0,0.0,-2.6806,-2.6806,-2.6835,-2.7006,-2.7929,-2.9018,-2.9325,-3.0746,-3.2363,-3.3321,-3.4559,-3.5792,-3.663,-3.7073,-3.7793,-3.9422,-3.9629,-3.955,-3.9674,-3.936,-3.889,-3.82,-3.812,-3.8301,-3.8753,-3.835,-3.795,-3.7835,-3.7706,-3.7354,-3.6723,-3.7101,-3.6996,-3.5973,-3.6352,-3.6399,-3.5941,-3.591,-3.5604,-3.4949,-3.4783,-3.4434,-3.3933,-3.3784,-3.3784,0.0,-3.3933,-3.3933,-3.3948,-3.4599,-3.484,-3.4728,-3.4728,-3.4638,-3.4474,-3.3918,-3.3709,-3.3709,-3.3709,-3.4113,-3.4728,-3.4728,-3.4728,-3.4681,0.0,0.0,0.0,0.0,0.0,0.0,0.0,0.0,0.0,0.0,0.0,-2.0775,-2.1158,-2.119,0.0,0.0,-2.0833,-2.0492,0.0,-2.0148,-2.0546,-2.0881,-2.2302,-2.2823,-2.2344,-2.2882,-2.2867,-2.2249,-2.2905,-2.322,-2.3244,-2.4759,-2.563,-2.5975,-2.7311,-2.744,-2.6634,-2.7077,-2.727,-2.727,-2.727,-2.765,-2.8171,-2.7596,-2.7385,-2.7272,-2.6477,0.0,0.0,0.0,0.0,0.0,0.0,0.0,-2.6922,-2.7613,-2.8117,-2.8783,-3.0144,-3.1383,-3.2646,-3.4176,-3.5159,-3.5888,-3.6269,-3.6377,-3.6689,-3.7815,-3.8442,-3.8695,-3.8433,-3.829,-3.8071,-3.7636,-3.7437,-3.7545,-3.8181,-3.7616,-3.7086,-3.7041,-3.6784,-3.643,-3.6022,-3.629,-3.6196,-3.5569,-3.5797,-3.571,-3.5058,-3.5011,-3.4696,-3.4023,-3.3709,-3.3529,-3.3499,-3.3185,-3.3185,-3.3499,-3.3499,-3.3335,-3.3051,-3.3709,-3.4008,-3.4008,-3.4008,-3.3829,-3.3514,-3.317,-3.3021,-3.3021,-3.3021,-3.3425,-3.4008,-3.4008,-3.4008,-3.3994,0.0,0.0,0.0,0.0,0.0,0.0,0.0,0.0,0.0,0.0,0.0,-2.0969,-2.1284,-2.1247,-2.1063,0.0,0.0,0.0,-1.9909,0.0,0.0,-2.2187,-2.3276,-2.3484,-2.268,-2.3239,-2.3421,-2.3179,-2.3053,-2.3077,-2.3232,-2.5205,-2.6056,-2.5949,-2.7725,-2.7746,-2.6564,-2.7421,-2.7862,-2.7974,-2.7974,-2.8326,-2.8834,-2.8317,-2.808,-2.7897,-2.6923,-2.6975,-2.7445,-2.7048,0.0,0.0,0.0,0.0,-2.7154,-2.8221,-2.8376,-2.8723,-3.1249,-3.2273,-3.3169,-3.517,-3.5572,-3.5522,-3.5638,-3.5671,-3.5821,-3.6429,-3.7119,-3.7542,-3.7231,-3.6966,-3.6957,-3.7499,-3.6987,-3.6894,-3.7991,-3.7033,-3.6258,-3.6258,-3.5797,-3.5504,-3.5504,-3.5504,-3.5504,-3.5504,-3.5385,-3.5085,-3.4533,-3.4399,-3.4008,-3.335,-3.2796,-3.2721,-3.3155,-3.2736,-3.2736,-3.3155,-3.3155,-3.2871,-3.2333,-3.2901,-3.3215,-3.332,-3.332,-3.3021,-3.2497,-3.2392,-3.2318,-3.2318,-3.2318,-3.2751,-3.332,-3.332,-3.332,-3.3245,0.0,0.0,0.0,0.0,0.0,0.0,0.0,0.0,0.0,0.0,-2.0732,-2.0933,-2.1712,-2.1422,-2.1339,-2.1653,-2.1319,-2.0942,-2.0598,0.0,0.0,-2.235,-2.297,-2.3317,-2.3354,-2.3007,-2.2963,-2.3179,-2.3352,-2.3751,-2.4394,-2.482,-2.5706,-2.7,-2.7241,-2.744,-2.7701,-2.775,-2.8115,-2.8577,-2.8577,-2.9019,-2.9563,-2.8878,-2.8433,-2.8054,-2.7215,-2.7169,-2.7489,-2.743,-2.7887,0.0,0.0,0.0,-2.7492,-2.7169,-2.79,-2.9032,-3.0099,-3.2243,-3.4412,-3.5312,-3.5504,-3.5504,-3.5522,-3.5537,-3.5569,0.0,-3.6059,-3.6415,-3.6934,-3.6377,-3.5905,-3.6001,-3.581,-3.5714,-3.5918,-3.5761,-3.5619,-3.5619,-3.5569,-3.5504,-3.5504,-3.5504,-3.5504,-3.5504,-3.4951,-3.4608,-3.4503,-3.3933,-3.332,-3.2662,-3.2557,-3.2243,-3.1765,-3.2243,-3.2243,-3.1765,-3.1765,-3.172,-3.1645,-3.1735,-3.2079,-3.2647,-3.2647,-3.2572,-3.2437,-3.1869,-3.163,-3.163,-3.163,-3.2034,-3.2647,-3.2647,-3.2647,-3.2632,0.0,0.0,0.0,0.0,0.0,0.0,0.0,0.0,0.0,0.0,0.0,-2.1365,-2.1502,-2.1548,-2.1592,-2.162,-2.1444,-2.1403,-2.1631,-2.2012,-2.2474,-2.2982,-2.3364,-2.3451,-2.323,-2.3002,-2.3043,-2.3362,-2.3457,-2.408,-2.5173,-2.5565,-2.6278,-2.7217,-2.7792,-2.8008,-2.7917,-2.8184,-2.845,-2.8689,-2.8689,-2.945,-3.0418,-2.9345,-2.9425,-2.991,-2.8483,-2.805,-2.8176,-2.8176,-2.7942,-2.7721,-2.8129,0.0,0.0,0.0,-2.7501,-2.8061,-2.9674,-3.2243,-3.4578,-3.4861,-3.522,-3.5504,-3.5504,-3.5504,-3.5537,-3.5572,-3.5668,-3.5823,-3.6209,-3.5914,-3.5604,-3.5604,-3.5554,-3.5504,-3.5504,-3.5504,-3.5504,-3.5504,-3.5504,-3.5504,-3.5504,-3.5504,-3.534,-3.4966,-3.4683,-3.4189,-3.3425,-3.3095,-3.2647,-3.1959,-3.1929,-3.1795,-3.1511,-3.1795,-3.1795,-3.1511,-3.1511,-3.1511,-3.1511,-3.1511,-3.166,-3.1929,-3.1929,-3.1929,-3.1914,-3.163,-3.1511,-3.1511,-3.1511,-3.1675,-3.1929,-3.1929,-3.1929,-3.1929,0.0,0.0,0.0,0.0,0.0,0.0,0.0,0.0,0.0,0.0,0.0,-2.1843,-2.1495,0.0,0.0,0.0,-2.1544,-2.1701,-2.2248,-2.2443,-2.275,-2.3144,-2.3299,-2.3216,-2.283,-2.2787,-2.2914,-2.3166,-2.3396,-2.4117,-2.5278,-2.5975,-2.6676,-2.743,-2.8402,-2.8566,-2.8163,-2.87,-2.8959,-2.8989,-2.9219,-3.0088,-3.1125,-3.0276,-3.0691,-3.1505,-2.9799,-2.9217,-2.9216,-2.8999,-2.8418,-2.7881,-2.8505,-2.8055,0.0,0.0,0.0,-2.7508,-2.9309,-3.1531,-3.3497,-3.4067,-3.4575,-3.5053,-3.5429,-3.5504,-3.5504,0.0,-3.5504,-3.5522,-3.5621,-3.5587,-3.5504,-3.5504,-3.5504,-3.5504,-3.5504,-3.5504,-3.5504,-3.5504,-3.5504,-3.5504,-3.5504,-3.5504,-3.522,-3.4563,-3.4354,-3.3724,-3.2572,-3.2333,-3.2019,-3.1525,-3.1511,-3.1511,-3.1511,-3.1511,-3.1585,-3.175,-3.1585,-3.1511,-3.1511,-3.1511,-3.1511,-3.1511,-3.1511,-3.1511,-3.1511,-3.1511,-3.1511,-3.1511,-3.1511,-3.1511,-3.1511,-3.1511,-3.1511,-3.1511,0.0,0.0,0.0,0.0,0.0,0.0,0.0,0.0,0.0,0.0,0.0,-2.219,-2.2166,-2.2353,-2.245,-2.2371,-2.1937,-2.1761,-2.191,-2.2097,-2.2246,-2.227,-2.2282,0.0,-2.2234,-2.2234,-2.2234,-2.2265,-2.3118,-2.3816,-2.4382,-2.5265,-2.648,-2.8,-2.8612,-2.8851,-2.878,-2.9328,-2.9639,-2.9822,-3.0634,-3.1217,-3.1627,-3.2121,-3.2224,-3.1957,-3.0878,-3.0585,-3.0558,-2.9798,-2.9929,-3.0205,-2.9072,-2.8665,-2.8375,0.0,0.0,0.0,-2.8785,-2.9631,-3.0835,-3.2838,-3.3405,-3.3763,-3.5173,-3.5504,-3.5504,-3.5504,-3.5504,-3.5504,-3.5504,-3.5504,-3.5504,-3.5504,-3.5504,-3.5504,-3.5504,-3.5504,-3.5504,-3.5504,-3.5504,-3.5504,-3.5504,-3.5504,-3.522,-3.4563,-3.3903,-3.3245,-3.2557,-3.1899,-3.154,-3.1511,-3.1511,-3.1511,-3.1511,-3.1511,-3.1824,-3.2452,-3.1795,-3.1511,-3.1511,-3.1511,-3.1511,-3.1511,-3.1511,-3.1511,-3.1511,-3.1511,-3.1511,-3.1511,-3.1511,-3.1511,-3.1511,-3.1511,-3.1511,-3.1511,0.0,0.0,0.0,0.0,0.0,0.0,0.0,0.0,0.0,0.0,0.0,0.0,0.0,-2.2218,-2.2342,-2.2107,-2.2044,-2.203,-2.2092,-2.2166,-2.2197,-2.2197,-2.2197,-2.2197,-2.2197,-2.2197,-2.2247,-2.2328,-2.3467,-2.4181,-2.4533,-2.5999,-2.699,-2.751,-2.8087,-2.875,-2.9435,-2.9557,-2.9758,-3.0062,-3.0782,-3.1599,-3.2399,-3.2618,-3.3013,-3.3337,-3.2456,-3.154,-3.0807,-3.0966,-3.0279,-2.9305,-2.8854,-2.839,-2.7897,-2.7041,-2.7377,-2.804,-2.8245,-2.9191,-3.0305,-3.1145,-3.202,-3.2929,-3.3977,-3.4547,-3.4966,-3.5415,-3.5504,-3.5504,-3.5504,-3.5504,-3.5504,-3.5504,-3.5504,-3.5504,-3.5504,-3.5504,-3.534,-3.4906,-3.4846,-3.4681,-3.4262,-3.4218,-3.3933,-3.3275,-3.3006,-3.2587,-3.1884,-3.163,-3.1511,-3.1511,-3.1511,-3.1511,-3.1511,-3.1511,-3.163,-3.1854,-3.1615,-3.1511,-3.1511,-3.1511,-3.1511,-3.1511,-3.1511,-3.1511,-3.1511,-3.1511,-3.1511,-3.1511,-3.1511,-3.1511,-3.1511,-3.1511,-3.1511,-3.1511,0.0,0.0,0.0,-2.14,0.0,-2.173,-2.1761,-2.173,-2.173,-2.1761,0.0,0.0,0.0,0.0,-2.287,-2.2321,-2.2231,-2.2197,-2.2197,-2.2197,-2.227,-2.245,-2.2462,-2.2534,-2.2714,-2.2546,-2.2513,-2.2594,-2.3684,-2.43,-2.4533,-2.6155,-2.7047,-2.7229,-2.7762,-2.8546,-2.9467,-2.9557,-2.9803,-3.0183,-3.1168,-3.1913,-3.2551,-3.3307,-3.3866,-3.4129,-3.3541,0.0,0.0,0.0,0.0,-3.0002,-2.9318,-2.833,-2.7331,-2.691,-2.7164,-2.7594,-2.7594,-2.8274,-2.9132,-2.9699,-3.051,-3.1501,-3.278,-3.3438,-3.4037,-3.4981,-3.516,-3.5235,-3.5459,-3.5504,-3.5504,-3.5504,-3.531,-3.5235,-3.5474,-3.5115,-3.4741,-3.4533,-3.4309,-3.3978,-3.3529,-3.3499,-3.3215,-3.2557,-3.2512,0.0,-3.154,-3.1511,-3.1511,-3.1511,-3.1511,-3.1511,-3.1511,-3.1511,-3.1511,-3.1511,-3.1511,-3.1511,-3.1511,-3.1511,-3.1511,-3.1511,-3.1511,-3.1511,-3.1511,-3.1511,-3.1511,-3.1511,-3.1511,-3.1511,-3.1511,-3.1511,-3.1511,-3.1511,-2.0967,-2.1371,-2.1679,-2.1486,-2.1616,-2.1808,-2.1941,-2.1859,-2.1808,-2.1941,0.0,0.0,0.0,0.0,0.0,-2.3119,-2.2566,-2.2234,-2.2209,-2.2234,-2.2462,-2.2987,-2.3035,-2.3276,-2.3794,-2.33,-2.3035,-2.3035,-2.3717,-2.4148,-2.4382,-2.5636,-2.6555,-2.7204,-2.7749,-2.826,-2.8807,-2.9369,-2.9789,-3.0256,-3.1867,-3.2232,-3.2082,-3.4342,-3.4797,-3.4233,-3.4088,-3.4105,0.0,-3.329,0.0,-3.2591,-3.0558,-2.8471,-2.6849,-2.6849,-2.682,-2.6806,0.0,0.0,0.0,-2.8554,-2.8889,-2.9486,-3.1723,-3.2243,-3.269,-3.4158,-3.4474,-3.4698,-3.5325,-3.5474,-3.5489,-3.5474,-3.4936,-3.4758,-3.5385,-3.4352,-3.3754,-3.4384,-3.3858,-3.3455,-3.344,-3.344,-3.317,-3.2512,-3.2452,-3.2183,-3.154,-3.1511,-3.1511,-3.1511,-3.1511,-3.1511,-3.1511,-3.1511,-3.1511,-3.1511,-3.1511,-3.1511,-3.1511,-3.1511,-3.1511,-3.1511,-3.1511,-3.1511,-3.1511,-3.1511,-3.1511,-3.1511,-3.1511,-3.1511,-3.1511,-3.1511,-3.1511,-3.1511,-2.1463,-2.2,-2.2464,-2.2528,-2.2914,-2.323,-2.3263,-2.323,-2.323,0.0,0.0,0.0,-2.3502,-2.3809,-2.3902,-2.3613,-2.3445,-2.3204,-2.2787,-2.3156,-2.3264,-2.3023,-2.3372,-2.3649,-2.3806,-2.3748,-2.3729,-2.3729,-2.4441,-2.4978,-2.5323,-2.5912,-2.6285,-2.6424,-2.718,-2.7692,-2.8093,-2.9254,-3.0021,-3.0593,-3.2101,-3.2715,-3.2871,-3.4713,-3.532,-3.5155,0.0,-3.4698,-3.4174,0.0,-3.3079,-3.1848,-3.0207,-2.8665,-2.7434,-2.7434,-2.7142,-2.6895,-2.7345,0.0,0.0,0.0,0.0,0.0,-3.0437,-3.1145,-3.1827,-3.272,-3.3752,-3.4414,-3.4098,-3.4846,-3.534,-3.4846,-3.5026,-3.5115,-3.4801,-3.4474,-3.3918,-3.3155,-3.2901,-3.2602,-3.2093,-3.2049,-3.1974,0.0,-3.178,-3.1705,-3.1511,-3.1511,-3.1511,-3.1511,-3.1511,-3.1511,-3.1511,-3.1511,-3.1511,-3.1511,-3.1511,-3.1511,-3.1511,-3.1511,-3.1511,-3.1511,-3.1511,-3.1511,-3.1511,-3.1511,-3.1511,-3.1511,-3.1511,-3.1511,-3.1511,-3.1511,-3.1511,-3.1511,-2.204,-2.2496,-2.2943,-2.3268,-2.3601,-2.3806,-2.3806,-2.3806,-2.3806,0.0,0.0,0.0,-2.4386,-2.4218,-2.4085,-2.4085,-2.3926,-2.3673,-2.336,-2.3691,-2.3857,-2.376,-2.4129,-2.4408,-2.4546,-2.4509,-2.442,-2.4341,-2.4838,-2.5156,-2.5256,-2.5909,-2.5983,-2.5709,-2.6791,-2.7467,-2.7868,-2.9118,-2.9947,-3.0623,-3.2163,-3.2671,-3.2707,-3.4651,-3.518,0.0,0.0,0.0,-3.4731,-3.4731,-3.3486,-3.1792,-3.0894,-2.9478,-2.8129,-2.8129,-2.7868,-2.7665,-2.8028,-2.8129,-2.8244,-2.8706,0.0,0.0,-2.9836,-3.0244,-3.0745,-3.2109,-3.3065,-3.3619,-3.3514,-3.4143,-3.4532,-3.4159,-3.4397,-3.4622,-3.4533,-3.4039,-3.338,-3.2602,-3.2243,-3.1929,-3.154,-3.1511,-3.1511,-3.1511,-3.1511,-3.1511,-3.1511,-3.1511,-3.1511,-3.1511,-3.1511,-3.1511,-3.1511,-3.1511,-3.1511,-3.1511,-3.1511,-3.1511,-3.1511,-3.1511,-3.1511,-3.1511,-3.1511,-3.1511,-3.1511,-3.1511,-3.1511,-3.1511,-3.1511,-3.1511,-3.1511,-3.1511,-3.1511,-3.1511,0.0,-2.2931,-2.3252,-2.3722,-2.3902,-2.4008,-2.3974,-2.3974,-2.3974,0.0,-2.4386,-2.4855,-2.5299,-2.4939,-2.4675,-2.4614,-2.4239,-2.395,-2.3923,-2.4071,-2.4378,-2.4791,-2.5046,-2.5303,-2.5594,-2.5362,-2.5117,-2.4935,-2.5056,-2.5024,-2.4838,-2.5726,-2.5782,-2.5211,-2.6704,-2.7547,-2.7982,-2.8993,-2.9823,-3.0589,-3.2178,-3.2539,-3.2289,-3.4322,-3.473,-3.4285,-3.4892,-3.5213,-3.5377,-3.535,-3.3919,-3.2131,-3.2059,-3.0675,-2.8999,0.0,-2.8811,-2.8839,-2.8811,-2.8811,-2.8825,-2.8898,-2.8419,0.0,-2.9632,-2.9482,-2.9625,-3.1617,-3.2124,-3.2393,-3.2931,-3.314,-3.3215,-3.314,-3.3259,-3.3589,-3.4173,-3.3245,-3.2452,-3.2392,-3.1854,-3.1511,-3.1511,-3.1511,-3.1511,-3.1511,-3.1511,-3.1511,-3.1511,-3.1511,-3.1511,-3.1511,-3.1511,-3.1511,-3.1511,-3.1511,-3.1511,-3.1511,-3.1511,-3.1511,-3.1511,-3.1511,-3.1511,-3.1511,-3.1511,-3.1511,-3.1511,-3.1511,-3.1511,-3.1511,-3.1511,-3.1511,-3.1511,-3.1511,-3.1511,-3.1511,-2.2851,-2.3316,-2.3685,-2.3782,-2.4594,-2.5198,-2.5046,-2.5151,-2.5198,-2.5046,-2.5456,-2.5708,-2.5572,-2.5672,-2.5696,-2.5414,-2.5141,-2.49,-2.4614,-2.5024,-2.5225,-2.5044,-2.5483,-2.5695,-2.5606,-2.5834,-2.5901,-2.5681,-2.541,-2.5598,-2.6295,-2.5921,-2.5794,-2.5941,-2.7162,-2.7796,-2.7982,-2.9082,-3.0307,-3.1594,-3.2572,-3.3273,-3.3794,-3.4306,-3.4374,-3.432,-3.4418,-3.4495,-3.4537,-3.4463,-3.3568,-3.2391,-3.1874,-3.1477,0.0,-2.9652,0.0,0.0,0.0,0.0,0.0,0.0,0.0,0.0,-2.9013,-2.895,-2.8915,-2.8895,-2.9774,-3.0436,-3.0023,-3.0835,-3.1397,-3.0835,-3.1753,-3.2616,-3.2841,-3.2677,-3.2288,-3.1765,-3.1585,-3.1511,-3.1511,-3.1511,-3.1511,-3.1511,-3.1511,-3.1511,-3.1511,-3.1511,-3.1511,-3.1511,-3.1511,-3.1511,-3.1511,-3.1511,-3.1511,-3.1511,-3.1511,-3.1511,-3.1511,-3.1511,-3.1511,-3.1511,-3.1511,-3.1511,-3.1511,-3.1511,-3.1511,-3.1511,-3.1511,-3.1511,-3.1511,-3.1511,-3.1511,-3.1467,-2.3047,-2.3595,-2.4122,-2.4411,-2.5164,-2.5723,-2.5606,-2.5676,-2.5711,-2.5606,-2.5837,-2.5945,-2.5783,-2.5884,-2.5933,-2.5748,-2.5641,-2.5531,-2.5379,-2.5424,-2.5492,-2.5654,-2.5698,-2.5787,-2.5898,-2.6188,-2.6258,-2.6062,-2.5651,-2.5544,-2.5769,-2.5644,-2.5658,-2.5762,-2.681,-2.7755,-2.8512,-2.9045,-3.023,-3.1861,-3.2678,-3.3469,-3.4199,-3.428,-3.4312,-3.4245,-3.3891,-3.3768,-3.3711,-3.3484,-3.3097,0.0,-3.1778,-3.1804,-3.183,0.0,-3.019,-3.0569,0.0,0.0,0.0,-3.0299,0.0,0.0,0.0,-2.9025,-2.8829,-2.859,-2.9114,-2.9481,-2.9156,-2.9656,-2.9996,-2.9671,-3.0553,-3.1322,-3.138,-3.2034,-3.2243,-3.1585,-3.1511,-3.1511,-3.1511,-3.1511,-3.1511,-3.1511,-3.1511,-3.1511,-3.1511,-3.1511,-3.1511,-3.1511,-3.1511,-3.1511,-3.1511,-3.1511,-3.1511,-3.1511,-3.1511,-3.1511,-3.1511,-3.1511,-3.1511,-3.1511,-3.1511,-3.1511,-3.1511,-3.1511,-3.1511,-3.1511,-3.1511,-3.1511,-3.1511,-3.1511,-3.1511,-3.1467,-2.3522,-2.4055,-2.4583,-2.5025,-2.5588,-2.5945,-2.591,-2.5945,-2.5945,-2.591,-2.6082,-2.6181,-2.6105,-2.6242,-2.6328,-2.6253,-2.6241,-2.6168,-2.6128,-2.5812,-2.5878,-2.6372,-2.6008,-2.592,-2.6188,-2.6396,-2.6346,-2.6052,-2.5736,-2.5435,-2.5146,-2.5493,-2.562,-2.5588,-2.6667,-2.7776,-2.8881,-2.9108,-3.0161,-3.1681,-3.2431,-3.3182,-3.3846,-3.3825,-3.3753,-3.3582,-3.3066,-3.2861,-3.2763,-3.254,-3.2465,-3.2366,-3.1481,-3.178,0.0,0.0,0.0,0.0,0.0,0.0,0.0,0.0,0.0,-2.9534,0.0,0.0,0.0,-2.8799,0.0,0.0,0.0,0.0,0.0,0.0,0.0,0.0,0.0,-3.0934,0.0,-3.154,-3.1511,-3.1511,-3.1511,-3.1511,-3.1511,-3.1511,-3.1511,-3.1511,-3.1511,-3.1511,-3.1511,-3.1511,-3.1511,-3.1511,-3.1511,-3.1511,-3.1511,-3.1511,-3.1511,-3.1511,-3.1511,-3.1467,-3.1467,-3.1511,-3.1467,-3.1467,-3.1467,-3.1467,-3.1467,-3.1467,-3.1511,-3.1511,-3.1511,-3.1467,-3.1467,-3.1453,-2.473,-2.4964,-2.5025,-2.5099,-2.5704,-2.6097,-2.5945,-2.6062,-2.6097,-2.591,-2.6746,-2.7225,-2.6898,-2.7582,-2.7927,-2.7605,-2.7409,-2.72,-2.6873,-2.6822,-2.6941,-2.7145,-2.67,-2.6333,-2.6201,-2.6396,-2.6145,-2.5409,-2.5536,-2.5824,-2.6298,-2.5992,-2.6051,-2.6425,-2.7793,-2.8231,-2.804,-2.9624,-3.0538,-3.0957,-3.1596,-3.2122,0.0,-3.214,-3.1708,-3.1319,-3.1608,-3.1599,-3.1456,0.0,-3.1558,-3.105,0.0,-3.1287,-3.2122,-3.104,0.0,0.0,0.0,0.0,0.0,0.0,-3.0054,0.0,0.0,0.0,-2.8799,-2.7863,0.0,0.0,0.0,0.0,0.0,0.0,0.0,0.0,-2.7448,-2.8584,-2.999,-3.1347,-3.1511,-3.1511,-3.1511,-3.1511,-3.1511,-3.1511,-3.1511,-3.1511,-3.1511,-3.1511,-3.1511,-3.1511,-3.1511,-3.1511,-3.1511,-3.1511,-3.1511,-3.1511,-3.1511,-3.1511,-3.1511,-3.138,-3.138,-3.1511,-3.138,-3.1322,-3.1322,-3.1322,-3.1322,-3.1322,-3.1438,-3.1511,-3.1511,-3.138,-3.1322,-3.1292,-2.4414,-2.464,-2.5029,-2.5327,-2.5952,-2.6361,-2.6258,-2.6589,-2.6689,-2.6295,-2.7169,-2.779,-2.7662,-2.8238,-2.8737,-2.895,-2.8874,-2.8637,-2.8113,-2.7524,-2.721,-2.7281,-2.6461,-2.6079,-2.6361,-2.6465,-2.6339,-2.6011,-2.5728,-2.5724,-2.5984,-2.5812,-2.608,-2.6709,-2.7635,-2.8287,-2.8792,-2.9558,-3.0104,-3.0481,-3.0753,-3.0733,0.0,-3.1355,-3.1179,-3.0607,-3.0681,-3.0722,-3.0745,0.0,-3.0823,0.0,0.0,0.0,0.0,-3.0905,0.0,0.0,0.0,0.0,0.0,0.0,0.0,0.0,-2.9142,0.0,-2.8883,0.0,0.0,0.0,0.0,0.0,0.0,0.0,-2.7265,0.0,0.0,0.0,-2.915,0.0,0.0,0.0,-3.0741,-3.1214,-3.1511,-3.1511,-3.1511,-3.1511,-3.1511,-3.1511,-3.1511,-3.1511,-3.1511,-3.1511,-3.1511,-3.1511,-3.1511,-3.1511,-3.1511,-3.1467,-3.138,-3.1322,-3.1292,-3.1249,-3.122,-3.1176,-3.1176,-3.1176,-3.1176,-3.119,-3.1249,-3.1336,-3.138,-3.1322,-3.1263,-3.1161,-2.4471,-2.4786,-2.5385,-2.5774,-2.6223,-2.6549,-2.67,-2.7065,-2.7228,-2.6977,-2.7745,-2.8386,-2.8549,-2.9026,-2.9616,-3.0181,-3.0231,-2.993,-2.9176,-2.8411,-2.7896,-2.7745,-2.6653,-2.6251,-2.6713,-2.6575,-2.6411,-2.626,-2.5799,-2.5674,-2.5824,-2.5674,-2.6013,-2.6743,-2.7265,-2.8027,-2.8917,-2.9207,-2.9551,-2.994,-3.0113,-2.9908,-2.9603,-3.0511,-3.0616,-3.0228,-3.0075,-3.0113,-3.0165,-2.9719,-3.0126,0.0,-2.9821,0.0,-3.084,0.0,0.0,0.0,-3.0726,0.0,0.0,0.0,0.0,0.0,0.0,0.0,0.0,0.0,0.0,0.0,0.0,0.0,0.0,0.0,0.0,-2.7304,0.0,-2.7572,0.0,0.0,0.0,0.0,0.0,-3.0639,-3.1112,-3.1112,0.0,-3.1511,-3.1511,-3.1511,-3.1511,-3.1511,-3.1511,-3.1511,-3.1511,-3.1511,-3.1511,-3.1511,-3.1511,-3.1438,-3.1307,-3.1263,-3.1176,-3.1117,-3.1043,-3.1014,-3.1014,-3.1014,-3.1014,-3.1014,-3.1014,-3.1073,-3.1161,-3.1161,-3.1087,-3.0984,-2.546,-2.6047,-2.6449,-2.6461,-2.6487,-2.6675,-2.7216,-2.7268,-2.7469,-2.7984,-2.8512,-2.9076,-2.9679,-3.0231,-3.0771,-3.1298,-3.1336,-3.0896,-2.9829,-2.9729,-2.9465,-2.8863,-2.7821,-2.7243,-2.7256,-2.6763,-2.6223,-2.5624,-2.5598,-2.5921,-2.6449,-2.585,-2.5946,-2.6512,-2.7065,-2.7448,-2.7726,-2.8767,-2.9212,-2.9262,-2.9872,-2.9999,-2.9756,0.0,-2.9517,-2.983,-2.9792,0.0,0.0,-2.9151,-2.9327,0.0,0.0,0.0,0.0,0.0,0.0,0.0,0.0,0.0,0.0,-3.0552,0.0,0.0,0.0,0.0,-2.9437,0.0,0.0,0.0,0.0,0.0,0.0,0.0,0.0,0.0,0.0,0.0,0.0,0.0,0.0,0.0,0.0,-2.9589,-3.0157,0.0,-3.0994,-3.1511,-3.1511,-3.1511,-3.1511,-3.1511,-3.1511,-3.1511,-3.1511,-3.1511,-3.1511,-3.1511,-3.1511,-3.1438,-3.1292,-3.1161,-3.1102,-3.1087,-3.0895,-3.0791,-3.0791,-3.0791,-3.0791,-3.0791,-3.0791,-3.0791,-3.0821,-3.0821,-3.0821,-3.0791,-2.6172,-2.6361,-2.6499,-2.6499,-2.6499,-2.6688,-2.7241,-2.7595,-2.8021,-2.8574,-2.9427,-3.0256,-3.0796,-3.1348,-3.1901,-3.2453,-3.2546,-3.219,-3.1449,-3.0733,-3.0256,-3.0016,-2.8925,-2.8373,-2.8373,-2.7833,-2.7281,-2.6751,-2.6386,-2.6298,-2.6499,-2.6298,-2.6298,-2.6512,-2.7065,-2.7517,-2.7992,-2.8686,-2.9214,-2.9618,0.0,-2.9869,-2.9779,0.0,-2.9693,-2.9792,-2.9792,-2.9792,0.0,-2.9566,-2.9628,-2.9754,-2.9566,-2.9365,-2.9404,-3.0328,-2.9923,0.0,0.0,0.0,-2.9641,-2.9564,0.0,0.0,0.0,0.0,0.0,0.0,0.0,0.0,0.0,0.0,0.0,0.0,0.0,0.0,0.0,0.0,0.0,0.0,0.0,0.0,0.0,0.0,0.0,0.0,-3.0562,0.0,-3.1481,-3.1511,-3.1511,-3.1511,-3.1511,-3.1511,-3.1511,-3.1511,-3.1467,-3.138,-3.138,-3.1234,-3.0969,-3.091,-3.0851,-3.0762,-3.0702,-3.0672,-3.0672,-3.0672,-3.0672,-3.0672,-3.0672,-3.0672,-3.0672,-3.0762,-3.0732,-3.0672,-2.6499,-2.6499,-2.6499,-2.6499,-2.6663,-2.6977,-2.7494,-2.8222,-2.89,-2.9414,-3.0319,-3.1097,-3.1625,-3.2001,-3.2441,-3.3074,-3.3124,-3.2742,-3.1964,-3.1461,-3.1009,-3.0633,-2.9917,-2.949,0.0,0.0,-2.8222,-2.7871,-2.6952,-2.66,-2.6788,-2.6373,-2.6298,-2.6512,-2.6864,-2.7406,-2.8134,-2.8486,-2.9089,-2.9792,0.0,-2.9792,0.0,0.0,-2.9792,-2.9792,0.0,-2.9792,-2.9792,-2.9792,-2.9792,-2.9792,-2.9792,-2.9528,-2.9378,-3.0088,-2.9805,-2.943,-3.0451,-3.0215,0.0,-2.9635,-2.9547,0.0,-2.9512,0.0,0.0,0.0,0.0,0.0,0.0,0.0,0.0,0.0,0.0,0.0,0.0,-2.5893,0.0,0.0,0.0,0.0,0.0,0.0,0.0,-3.0025,-3.0213,-3.0636,0.0,-3.1438,-3.1438,-3.1511,-3.1511,-3.1511,-3.1511,-3.1438,-3.138,-3.1307,-3.1263,-3.1087,-3.0791,-3.0791,-3.0732,-3.0598,-3.0598,-3.0598,-3.0598,-3.0598,-3.0598,-3.0598,-3.0598,-3.0598,-3.0598,-3.0702,-3.0672,-3.0598,-2.6499,-2.6499,-2.6499,-2.6524,-2.6964,-2.7482,-2.8059,-2.9076,-3.0005,-3.062,-3.1122,-3.1637,-3.2202,-3.2252,-3.2478,-3.3074,-3.3124,-3.2616,-3.1537,-3.1938,-3.1775,0.0,-3.0708,-3.0696,-3.0696,0.0,0.0,0.0,-2.7318,-2.6813,-2.7253,-2.6138,-2.5971,-2.6499,-2.6499,-2.7102,-2.8109,-2.8109,-2.8762,-2.9792,-2.9792,-2.9792,-2.9792,-2.9792,-2.9792,-2.9792,-2.9792,-2.9792,-2.9792,-2.9792,-2.9792,-2.9792,-2.9792,-2.9792,-2.9792,-2.9792,-2.9792,-2.996,-3.0658,-3.028,-2.9878,-3.0601,0.0,0.0,0.0,0.0,-3.0752,0.0,0.0,0.0,0.0,0.0,0.0,0.0,0.0,0.0,0.0,0.0,0.0,0.0,0.0,0.0,0.0,-2.7282,-2.8077,-2.9895,-2.9927,-3.0322,0.0,-3.1321,-3.1306,-3.1467,-3.1511,-3.1511,-3.1511,-3.1351,-3.1278,-3.1278,-3.1161,-3.0984,-3.0791,-3.0791,-3.0732,-3.0598,-3.0598,-3.0598,-3.0598,-3.0598,-3.0598,-3.0598,-3.0598,-3.0598,-3.0598,-3.0598,-3.0598,-3.0598,-2.6499,-2.6499,-2.6625,-2.704,-2.7228,-2.7607,-2.8561,-2.9327,-3.0281,-3.1625,-3.1926,-3.2215,-3.2792,-3.2855,-3.2918,-3.3111,-3.3124,-3.2998,-3.2667,0.0,0.0,-3.2441,-3.2039,-3.18,-3.18,-3.1122,-3.0156,-2.8888,-2.8097,-2.7331,-2.67,-2.6411,-2.6348,-2.6499,-2.6499,-2.7102,-2.8109,-2.8109,-2.8762,-2.9792,-2.9792,-2.9792,-2.9792,0.0,-2.9792,-2.9792,-2.9792,-2.9792,-2.9792,-2.9792,-2.9792,-2.9792,-2.9792,-2.9792,-2.9792,-2.9792,-2.9792,-2.9818,-3.0037,-2.9935,-2.972,-2.9463,-2.9468,-2.9518,0.0,0.0,0.0,0.0,0.0,0.0,0.0,0.0,0.0,0.0,0.0,0.0,0.0,0.0,0.0,-2.5893,0.0,0.0,-2.6298,-2.697,-2.7904,-2.8995,-2.9124,-2.9793,-3.1262,0.0,-3.0586,-3.1336,-3.1351,-3.1351,-3.1351,-3.1322,-3.1161,-3.094,-3.0881,-3.0791,-3.0642,-3.0642,-3.0642,-3.0598,-3.0598,-3.0598,-3.0598,-3.0598,-3.0598,-3.0598,-3.0598,-3.0598,-3.0598,-3.0598,-3.0598,-3.0598,-2.6499,-2.6688,-2.7027,-2.7544,-2.8047,-2.8599,-2.9214,-2.998,-3.0909,-3.2064,-3.2441,-3.2717,-3.3043,-3.3124,-3.3124,-3.3124,-3.3124,-3.2968,-3.2717,0.0,0.0,-3.2692,-3.2629,-3.2591,-3.2591,-3.18,0.0,-2.9628,-2.8624,-2.7657,-2.6851,-2.6612,-2.6499,-2.6499,-2.6499,-2.6977,-2.777,-2.826,-2.8976,-2.9792,-2.9792,-2.9792,0.0,-2.9792,-2.9792,-2.9792,-2.9792,-2.9792,-2.9792,-2.9792,-2.9792,-2.9792,-2.9792,-2.9792,-2.9792,-2.9792,-2.9792,-2.9792,-2.9792,-2.9792,-2.9716,-2.939,-2.9454,-2.9667,-2.9753,-2.9918,-3.0227,0.0,0.0,0.0,0.0,0.0,0.0,0.0,0.0,0.0,0.0,0.0,0.0,0.0,-2.6608,0.0,-2.5977,-2.7071,-2.8037,-2.8664,-2.8637,-2.9042,0.0,0.0,-3.0089,-3.0689,-3.1279,-3.1605,-3.1605,-3.153,-3.1411,-3.1245,-3.0893,-3.0672,-3.0598,-3.0598,-3.0598,-3.0598,-3.0598,-3.0598,-3.0598,-3.0598,-3.0598,-3.0598,-3.0598,-3.0598,-3.0598,-3.0598,-3.0598,-3.0598,-2.67,-2.709,-2.7557,-2.8109,-2.9151,-2.993,-2.9993,-3.0846,-3.17,-3.2252,-3.2767,-3.3124,-3.3124,-3.3124,-3.3124,-3.3124,-3.3124,-3.2867,-3.2353,-3.2805,-3.2855,-3.2353,-3.2805,-3.3043,-3.2968,-3.2001,-3.1135,0.0,-2.8938,-2.7858,-2.7203,-2.6713,-2.6499,-2.6499,-2.6499,-2.6839,-2.7457,-2.8449,-2.9264,-2.9792,-2.9792,-2.9792,-2.9792,-2.9792,-2.9792,-2.9792,-2.9792,-2.9792,-2.9792,-2.9792,-2.9792,-2.9792,-2.9792,-2.9792,-2.9792,-2.9792,-2.9792,-2.9792,-2.9792,-2.9792,-2.9792,-2.9792,-2.9792,-2.9972,-3.062,-3.0758,-3.0758,-3.0758,-3.0774,-3.054,0.0,0.0,0.0,0.0,0.0,0.0,0.0,0.0,0.0,0.0,0.0,0.0,0.0,-2.7315,-2.8225,-2.8623,-2.8397,0.0,0.0,0.0,-2.9755,-3.0031,-3.1278,-3.1985,-3.1985,-3.1936,-3.186,-3.1741,-3.1051,-3.0685,-3.0598,-3.0598,-3.0598,-3.0598,-3.0598,-3.0598,-3.0598,-3.0598,-3.0598,-3.0598,-3.0598,-3.0598,-3.0598,-3.0598,-3.0598,-3.0598,-2.772,-2.7896,-2.8134,-2.865,-2.9716,-3.062,-3.1047,-3.165,-3.2277,-3.2855,-3.3018,-3.3124,-3.3124,-3.3124,-3.3124,-3.3124,-3.3124,0.0,0.0,0.0,0.0,-3.293,-3.3018,-3.2855,-3.2378,-3.2177,-3.1135,-2.9189,-2.8888,-2.8034,-2.6637,-2.6537,-2.6499,-2.6499,-2.6499,-2.7052,-2.8009,-2.8612,0.0,-2.9792,-2.9792,-2.9792,-2.9792,-2.9792,-2.9792,-2.9792,-2.9792,-2.9792,-2.9792,-2.9792,-2.9792,-2.9792,-2.9792,-2.9792,-2.9792,-2.9792,-2.9792,-2.9792,-2.9792,-2.9792,-2.9792,-2.9792,-2.9792,-2.983,-2.996,-2.9998,-2.9998,-2.9998,-2.9999,-2.9783,-2.9177,0.0,0.0,0.0,0.0,0.0,0.0,0.0,0.0,0.0,0.0,-2.8071,0.0,-2.7485,-2.7654,-2.8482,-2.8326,0.0,0.0,0.0,-2.9812,0.0,-3.1422,0.0,0.0,0.0,-3.2205,-3.1556,-3.1409,-3.1076,-3.0598,-3.0598,-3.0598,-3.0598,-3.0598,-3.0598,-3.0598,-3.0598,-3.0598,-3.0598,-3.0598,-3.0598,-3.0598,-3.0598,-3.0598,-3.0598,-2.8423,-2.8499,-2.8888,-3.0005,-3.0896,-3.1725,-3.2566,-3.3156,-3.3407,-3.3119,-3.3319,-3.3395,-3.3106,-3.3332,-3.3382,-3.3106,-3.3124,-3.3124,-3.3124,-3.3124,-3.3124,-3.3124,-3.3124,-3.2805,-3.2227,-3.1938,-3.0846,-2.8888,-2.8599,-2.7795,-2.6499,-2.6499,-2.6499,-2.6512,-2.6788,-2.7379,-2.8147,0.0,0.0,-2.9792,-2.9792,-2.9792,-2.9792,-2.9792,-2.9792,-2.9792,-2.9792,-2.9792,-2.9792,-2.9792,-2.9792,-2.9792,-2.9792,-2.9792,-2.9792,-2.9792,-2.9792,-2.9792,-2.9792,-2.9792,-2.9792,-2.9792,-2.9792,-2.9792,-2.9792,-2.9792,-2.9792,-2.9792,-2.9792,-2.9845,-2.9933,-2.9351,0.0,0.0,0.0,0.0,0.0,0.0,0.0,0.0,0.0,0.0,0.0,-2.6733,0.0,0.0,0.0,-2.8555,-2.9406,0.0,-2.9608,0.0,0.0,0.0,-3.2174,0.0,-3.2576,-3.2527,-3.1845,-3.1366,-3.1061,-3.0757,-3.0598,-3.0598,-3.0598,-3.0598,-3.0568,-3.0221,-3.0068,-3.0068,-3.0068,-3.0068,-3.0068,-3.0068,-3.0068,-3.0129,-2.9452,-2.959,-3.008,-3.1499,-3.2303,-3.3006,-3.3784,-3.4462,-3.45,-3.3395,-3.3633,-3.3684,-3.3174,-3.347,-3.3545,-3.3162,-3.3124,-3.3124,-3.3124,-3.3124,-3.3124,-3.3124,-3.3124,-3.2805,-3.2227,-3.1675,-3.0645,-2.9076,-2.8436,-2.7607,-2.6663,-2.6549,-2.6562,-2.6688,0.0,0.0,0.0,0.0,-2.9264,-2.9792,-2.9792,-2.9792,-2.9792,-2.9792,-2.9792,-2.9792,-2.9792,-2.9792,-2.9792,-2.9792,-2.9792,-2.9792,-2.9792,-2.9792,-2.9792,-2.9792,-2.9792,-2.9792,-2.9792,-2.9792,-2.9792,-2.9792,-2.9792,-2.9792,-2.9792,-2.9792,-2.9792,-2.9792,-2.9792,-2.9972,-3.0545,-3.0146,0.0,0.0,0.0,0.0,0.0,0.0,0.0,0.0,0.0,0.0,-2.6587,0.0,0.0,0.0,0.0,-2.834,-2.867,-2.9318,-2.9651,0.0,0.0,-3.1814,-3.2481,0.0,-3.2977,-3.3489,-3.2425,-3.1859,-3.1683,-3.1061,-3.0801,-3.0786,-3.067,-3.0598,-3.0538,-2.987,-2.9591,-2.9577,-2.9421,-2.9359,-2.9359,-2.9359,-2.9359,-2.9453,-3.1712,-3.1901,-3.2114,-3.2847,-3.3796,-3.4361,-3.396,-3.4788,-3.5031,-3.3972,-3.3872,-3.3684,-3.3174,-3.3119,-3.3131,-3.3081,-3.3124,-3.3124,-3.3124,-3.3124,-3.3124,-3.3124,-3.3124,-3.2805,-3.2227,-3.1675,-3.0846,0.0,-2.8637,-2.7795,-2.7228,-2.6725,-2.6763,0.0,0.0,0.0,0.0,-2.8863,-2.9264,-2.9792,-2.9792,-2.9792,-2.9792,-2.9792,-2.9792,-2.9792,-2.9792,-2.9792,-2.9792,-2.9792,-2.9792,-2.9792,-2.9792,-2.9792,-2.9792,-2.9792,-2.9792,-2.9792,-2.9792,-2.9792,-2.9792,-2.9792,-2.9792,-2.9792,-2.9792,-2.9792,-2.9792,-2.9792,-2.9792,-2.983,-2.9895,-2.9857,-2.9819,0.0,0.0,0.0,0.0,0.0,-2.8115,-2.8173,0.0,0.0,0.0,-2.8222,0.0,0.0,-2.8278,-2.8843,-3.0306,-3.0451,-3.048,-3.048,-3.1163,-3.1814,-3.2481,-3.3093,-3.3445,-3.3503,-3.3373,-3.2977,-3.2365,-3.1729,-3.1438,-3.1409,-3.0829,-3.0598,-3.0538,-2.987,-2.9591,-2.9515,-2.8857,-2.8588,-2.8588,-2.8588,-2.8588,-2.873,-3.2654,-3.2729,-3.3018,-3.3909,-3.4424,0.0,0.0,-3.5755,-3.5642,-3.4537,-3.4675,-3.455,-3.3671,-3.3872,-3.3796,-3.3174,-3.3124,-3.3124,-3.3124,-3.3124,-3.3124,-3.3124,-3.3124,-3.2805,-3.2227,-3.1675,-3.0871,0.0,0.0,0.0,0.0,0.0,0.0,0.0,0.0,-2.8511,-2.8913,-2.9302,-2.9578,-2.9792,-2.9792,-2.9792,-2.9792,-2.9792,-2.9792,-2.9792,-2.9792,-2.9792,-2.9792,-2.9792,-2.9792,-2.9792,-2.9792,-2.9792,-2.9792,-2.9792,-2.9792,-2.9792,-2.9792,-2.9792,-2.9792,-2.9792,-2.9792,-2.9792,-2.9792,-2.9792,-2.9792,-2.9792,-2.9792,-2.9792,-2.9792,-2.9792,-2.9792,0.0,0.0,0.0,0.0,0.0,0.0,-2.8165,0.0,-2.6966,0.0,0.0,0.0,0.0,0.0,-2.9001,-2.9159,-3.0072,0.0,-3.0476,0.0,-3.1642,-3.3079,-3.2962,-3.3282,-3.4037,-3.3169,-3.2639,-3.235,-3.125,-3.0517,-3.0146,-2.9565,-2.9331,-2.93,-2.8602,-2.8357,-2.8325,-2.8019,-2.7887,-2.7887,-2.7887,-2.7887,-2.7953,-3.3734,0.0,-3.4098,0.0,-3.5203,-3.5466,-3.6292,-3.6405,-3.6065,-3.5044,-3.5257,-3.5019,-3.3796,-3.401,-3.3922,-3.3187,-3.3124,-3.3124,-3.3124,-3.3124,-3.3124,-3.3124,-3.3124,0.0,-3.2466,-3.1763,-3.1022,-3.0269,-2.9365,0.0,0.0,0.0,0.0,0.0,-2.8712,-2.8988,-2.9176,-2.9616,-2.9792,-2.9792,-2.9792,-2.9792,-2.9792,-2.9792,-2.9792,-2.9792,-2.9792,-2.9792,-2.9792,-2.9792,-2.9792,-2.9792,-2.9792,-2.9792,-2.9792,-2.9792,-2.9792,-2.9792,-2.9792,-2.9792,-2.9792,-2.9792,-2.9792,-2.9792,-2.9792,-2.9792,-2.9792,-2.9792,-2.9792,-2.9792,-2.9792,-2.9792,-2.9792,-2.9792,0.0,0.0,0.0,-2.8963,0.0,0.0,-2.7268,-2.6649,-2.6368,-2.6535,0.0,0.0,0.0,0.0,0.0,0.0,0.0,0.0,0.0,0.0,-3.2782,-3.2321,-3.2634,-3.3707,-3.2723,-3.2222,-3.2208,-3.1013,-3.0031,-2.9294,-2.8907,-2.8655,-2.8441,-2.7954,-2.7732,-2.7732,-2.7509,-2.7441,-2.7416,-2.7261,-2.7196,-2.7229,-3.5257,-3.547,-3.5646,-3.6292,-3.6392,-3.6392,-3.6405,-3.6405,-3.6157,-3.5558,-3.5495,-3.4868,-3.3269,-3.3136,-3.3093,-3.3124,-3.3124,-3.3124,-3.3124,-3.3124,-3.3124,0.0,0.0,-3.3124,-3.3111,-3.1964,-3.1386,-3.1373,0.0,0.0,-2.8863,0.0,-2.8398,-2.8888,-2.8888,-2.9252,-2.9779,-2.9792,-2.9792,-2.9792,-2.9792,-2.9792,-2.9792,-2.9792,-2.9792,-2.9792,-2.9792,-2.9792,-2.9792,-2.9792,-2.9792,-2.9792,-2.9792,-2.9792,-2.9792,-2.9792,-2.9792,-2.9792,-2.9792,-2.9792,-2.9792,-2.9792,-2.9792,-2.9792,-2.9792,-2.9792,-2.9792,-2.9792,-2.9792,-2.9792,-2.9792,-2.9792,-2.9792,-2.9792,0.0,0.0,0.0,0.0,0.0,-2.8172,-2.7607,-2.709,-2.6537,-2.7095,0.0,0.0,0.0,0.0,0.0,0.0,0.0,-2.9327,-2.9294,0.0,-3.1121,-3.1121,-3.1455,-3.211,-3.211,-3.211,-3.2083,-3.1392,-3.0423,-2.9307,-2.9307,-2.9002,-2.8468,-2.8356,-2.8286,-2.8217,-2.7573,-2.7304,-2.7241,-2.67,-2.6499,-2.6624,-3.6031,-3.6094,-3.6157,-3.638,-3.6405,-3.6405,-3.6405,-3.6405,-3.6031,-3.5056,-3.4944,-3.45,-3.3262,-3.342,-3.3483,0.0,-3.3124,-3.3124,0.0,-3.3124,-3.3124,-3.3124,-3.2704,-3.2667,-3.3111,-3.1964,-3.1574,-3.1951,0.0,0.0,0.0,-2.9866,-2.9716,-2.9515,-2.9515,-2.9616,-2.9792,-2.9792,-2.9792,-2.9792,-2.9792,-2.9792,-2.9792,-2.9792,-2.9792,-2.9792,-2.9792,-2.9792,-2.9792,-2.9792,-2.9792,-2.9792,-2.9792,-2.9792,-2.9792,-2.9792,-2.9792,-2.9792,-2.9792,-2.9792,-2.9792,-2.9792,-2.9792,-2.9792,-2.9792,-2.9792,-2.9792,-2.9792,-2.9792,-2.9792,-2.9792,-2.9792,-2.9792,-2.9792,-2.9792,0.0,0.0,0.0,-2.8825,-2.865,-2.8185,-2.762,-2.7115,-2.7249,0.0,0.0,0.0,0.0,0.0,0.0,0.0,0.0,-2.9659,0.0,-3.1789,-3.1324,-3.1419,-3.2074,-3.1563,-3.1033,-3.0533,-2.9902,-2.9402,-2.8993,-2.8643,-2.819,-2.7713,-2.801,-2.7952,-2.7611,-2.7803,-2.7607,-2.7291,-2.7115,-2.6813,-2.6521,-3.6367,-3.6405,-3.6405,-3.6405,-3.6405,-3.6405,-3.6405,-3.6194,-3.573,-3.4839,-3.4537,-3.4073,-3.3224,-3.3382,0.0,-3.3106,-3.3124,-3.3124,-3.3124,-3.3124,-3.3124,-3.3124,-3.2729,-3.2704,-3.3111,-3.2164,0.0,-3.1901,-3.1361,-3.0934,-3.062,-3.062,-3.0319,-2.9792,-2.9792,-2.9792,-2.9792,-2.9792,-2.9792,-2.9792,-2.9792,-2.9792,-2.9792,-2.9792,-2.9792,-2.9792,-2.9792,-2.9792,-2.9792,-2.9792,-2.9792,-2.9792,-2.9792,-2.9792,-2.9792,-2.9792,-2.9792,-2.9792,-2.9792,-2.9792,-2.9792,-2.9792,-2.9792,-2.9792,-2.9792,-2.9792,-2.9792,-2.9792,-2.9792,-2.9792,-2.9792,-2.9792,-2.9792,-2.9792,-2.9792,-2.9792,-2.9792,0.0,-2.9126,0.0,0.0,0.0,0.0,-2.7595,-2.7507,0.0,0.0,0.0,0.0,0.0,0.0,-2.9018,-2.9469,-3.0197,-3.122,-3.0827,-3.0827,-3.122,-3.0746,-3.0241,-2.9779,-2.9415,-2.9101,-2.8875,-2.8561,-2.8109,-2.7632,-2.8185,-2.8084,-2.762,-2.7971,-2.777,-2.7291,-2.709,-2.6788,-2.6499,-3.6304,-3.6405,-3.6405,0.0,-3.6405,0.0,-3.6405,-3.5893,-3.5307,-3.4756,-3.4248,-3.3684,-3.3174,-3.3124,-3.3124,-3.3124,0.0,0.0,0.0,-3.3124,-3.3124,-3.3124,-3.3043,-3.3074,-3.3124,-3.2503,-3.1964,-3.1449,-3.0922,-3.0658,-3.062,-3.062,-3.0319,-2.9792,-2.9792,-2.9792,-2.9792,-2.9792,-2.9792,-2.9792,-2.9792,-2.9792,-2.9792,-2.9792,-2.9792,-2.9792,-2.9792,-2.9792,-2.9792,-2.9792,-2.9792,-2.9792,-2.9792,-2.9792,-2.9792,-2.9792,-2.9792,-2.9792,-2.9792,-2.9792,-2.9792,-2.9792,-2.9792,-2.9792,-2.9792,-2.9792,-2.9792,-2.9792,-2.9792,-2.9792,-2.9792,-2.9792,-2.9792,-2.9792,-2.9792,-2.9792,-2.9792,0.0,0.0,0.0,0.0,0.0,-2.821,-2.816,-2.7934,0.0,0.0,0.0,0.0,0.0,-2.7958,-2.8875,-2.8938,-2.9252,-2.9779,-2.9792,-2.9792,-2.9792,-2.9792,-2.9792,-2.9792,-2.9792,-2.9503,-2.895,-2.895,-2.8674,-2.821,-2.8725,-2.8624,-2.816,-2.816,-2.7821,-2.7268,-2.6751,-2.6524,-2.6499,0.0,0.0,-3.6405,-3.6405,-3.6405,-3.6405,-3.6405,-3.5893,-3.5307,-3.4756,-3.4248,-3.3684,-3.3174,-3.3124,-3.3124,-3.3124,-3.3124,-3.3124,-3.3124,-3.3124,-3.3124,-3.3124,-3.2654,-3.2629,-3.3111,-3.2503,-3.2152,-3.2014,-3.1474,-3.0997,-3.062,-3.062,-3.0319,-2.9792,-2.9792,-2.9792,-2.9792,-2.9792,-2.9792,-2.9792,-2.9792,-2.9792,-2.9792,-2.9792,-2.9792,-2.9792,-2.9792,-2.9792,-2.9792,-2.9792,-2.9792,-2.9792,-2.9792,-2.9792,-2.9792,-2.9792,-2.9792,-2.9792,-2.9792,-2.9792,-2.9792,-2.9792,-2.9792,-2.9792,-2.9792,-2.9792,-2.9792,-2.9792,-2.9792,-2.9792,-2.9792,-2.9792,-2.9792,-2.9792,-2.9792,-2.9792,-2.9792,-2.9792,-2.9741,0.0,-2.9591,-2.9365,-2.875,-2.87,-2.8511,0.0,0.0,0.0,-2.8461,-2.8154,-2.8266,-2.8863,-2.9365,-2.9654,-2.9792,-2.9792,-2.9792,-2.9792,-2.9792,-2.9792,-2.9792,-2.9792,-2.9716,-2.9591,-2.9591,-2.9264,-2.875,-2.9352,-2.9252,-2.87,-2.87,-2.8398,-2.7846,-2.7329,-2.6851,-2.6499,-3.6405,-3.6405,-3.6405,-3.6405,-3.6405,-3.6329,-3.6031,-3.5516,-3.4919,-3.4412,-3.3872,-3.3407,-3.3106,-3.3124,-3.3124,-3.3124,-3.3124,-3.3124,-3.3124,-3.3124,-3.3124,-3.3124,-3.278,-3.2629,-3.2679,-3.2378,-3.2089,-3.1838,-3.1298,-3.0896,-3.062,-3.062,-3.0319,-2.9792,-2.9792,-2.9792,-2.9792,-2.9792,-2.9792,-2.9792,-2.9792,-2.9792,-2.9792,-2.9792,-2.9792,-2.9792,-2.9792,-2.9792,-2.9792,-2.9792,-2.9792,-2.9792,-2.9792,-2.9792,-2.9792,-2.9792,-2.9792,-2.9792,-2.9792,-2.9792,-2.9792,-2.9792,-2.9792,-2.9792,-2.9792,-2.9792,-2.9792,-2.9792,-2.9792,-2.9792,-2.9792,-2.9792,-2.9792,-2.9792,-2.9792,-2.9792,-2.9792,-2.9792,-2.9792,-2.9792,-2.9792,-2.9666,-2.9352,-2.9327,-2.9089,-2.8524,-2.8448,0.0,-2.8875,-2.89,-2.9013,-2.9315,-2.9628,-2.9792,-2.9792,-2.9792,-2.9792,-2.9792,-2.9792,-2.9792,-2.9792,-2.9792,-2.9792,-2.9792,-2.9792,-2.9616,-2.9352,-2.9666,-2.9453,-2.8888,-2.8888,-2.8436,-2.7695,-2.7394,-2.6964,-2.6499,-3.6405,-3.6405,-3.6405,-3.6405,-3.6405,-3.6182,-3.5583,-3.5031,-3.4525,-3.3972,-3.342,-3.3124,-3.3124,-3.3124,-3.3124,-3.3124,-3.3124,-3.3124,-3.3124,-3.3124,-3.3124,-3.3124,-3.3124,-3.2805,-3.2227,-3.2051,-3.1738,-3.1273,-3.0746,-3.0495,-3.0495,-3.0495,-3.0244,-2.9792,-2.9792,-2.9792,-2.9792,-2.9792,-2.9792,-2.9792,-2.9792,-2.9792,-2.9792,-2.9792,-2.9792,-2.9792,-2.9792,-2.9792,-2.9792,-2.9792,-2.9792,-2.9792,-2.9792,-2.9792,-2.9792,-2.9792,-2.9792,-2.9792,-2.9792,-2.9792,-2.9792,-2.9792,-2.9792,-2.9792,-2.9792,-2.9792,-2.9792,-2.9792,-2.9792,-2.9792,-2.9792,-2.9792,-2.9792,-2.9792,-2.9792,-2.9792,-2.9792,0.0,-2.9792,-2.9792,-2.9792,-2.9792,-2.9792,-2.9792,-2.9591,-2.9051,-2.9515,-2.9578,-2.9051,-2.9528,-2.9792,-2.9792,-2.9792,-2.9792,-2.9792,-2.9792,-2.9792,-2.9792,-2.9792,-2.9792,-2.9792,-2.9792,-2.9792,-2.9792,-2.9792,-2.9792,-2.9792,-2.9792,-2.9503,-2.9001,-2.8838,-2.8235,-2.7394,-2.7253,-2.6901,-2.6499,-3.6405,-3.6405,-3.6405,-3.6405,-3.6405,-3.6182,-3.5583,-3.5031,-3.4525,-3.3972,-3.342,-3.3124,-3.3124,-3.3124,-3.3124,-3.3124,-3.3124,-3.3124,-3.3124,-3.3124,-3.3124,-3.3124,-3.3124,-3.2805,-3.2227,-3.1323,-3.0821,-3.0733,-3.0193,-2.9917,-2.9917,-2.9917,-2.988,-2.9792,-2.9792,-2.9792,-2.9792,-2.9792,-2.9792,-2.9792,-2.9792,-2.9792,-2.9792,-2.9792,-2.9792,-2.9792,-2.9792,-2.9792,-2.9792,-2.9792,-2.9792,-2.9792,-2.9792,-2.9792,-2.9792,-2.9792,-2.9792,-2.9792,-2.9792,-2.9792,-2.9792,-2.9792,-2.9792,-2.9792,-2.9792,-2.9792,-2.9792,-2.9792,-2.9792,-2.9792,-2.9792,-2.9792,-2.9792,-2.9792,-2.9792,-2.9792,-2.9792,0.0,-2.9792,-2.9792,-2.9792,-2.9792,-2.9792,-2.9792,-2.9754,-2.9666,-2.9741,-2.9754,-2.9666,-2.9741,-2.9792,-2.9792,-2.9792,-2.9792,-2.9792,-2.9792,-2.9792,-2.9792,-2.9792,-2.9792,-2.9792,-2.9792,-2.9792,-2.9792,-2.9792,-2.9792,-2.9792,-2.9792,-2.9741,-2.9566,-2.8612,-2.8134,-2.7871,-2.6964,-2.6562,-2.6499,-3.6405,-3.6405,-3.6405,-3.6405,-3.6405,-3.6182,-3.5583,-3.5282,-3.4919,-3.4412,-3.4123,-3.396,-3.396,-3.3696,-3.352,-3.352,-3.3257,-3.3124,-3.3124,-3.3124,-3.3124,-3.3124,-3.3124,-3.2667,-3.1788,-3.0721,-3.0168,-3.0168,-2.9917,-2.9792,-2.9792,-2.9792,-2.9792,-2.9792,-2.9792,-2.9792,-2.9792,-2.9792,-2.9792,-2.9792,-2.9792,-2.9792,-2.9792,-2.9792,-2.9792,-2.9792,-2.9792,-2.9792,-2.9792,-2.9792,-2.9792,-2.9792,-2.9792,-2.9792,-2.9792,-2.9792,-2.9792,-2.9792,-2.9792,-2.9792,-2.9792,-2.9792,-2.9792,-2.9792,-2.9792,-2.9792,-2.9792,-2.9792,-2.9792,-2.9792,-2.9792,-2.9792,-2.9792,-2.9792,-2.9792,0.0,-2.9792,-2.9792,-2.9792,-2.9792,-2.9792,-2.9792,-2.9792,-2.9792,-2.9792,-2.9792,-2.9792,-2.9792,-2.9792,-2.9792,-2.9792,-2.9792,-2.9792,-2.9792,-2.9792,-2.9792,-2.9792,-2.9792,-2.9792,-2.9792,-2.9792,-2.9792,-2.9792,-2.9792,-2.9792,-2.9792,-2.9792,-2.9792,-2.9792,-2.9741,-2.9214,-2.8649,-2.8047,-2.7532,-2.719,-2.6901,-3.6405,-3.6405,-3.6405,-3.6405,-3.6304,-3.6031,-3.5558,-3.5395,-3.5157,-3.4731,-3.468,-3.468,-3.468,-3.4223,-3.3897,-3.3897,-3.3395,-3.3124,-3.3124,-3.3124,-3.3124,-3.3124,-3.2872,-3.2319,-3.1411,-3.0344,-2.9792,-2.9792,-2.9792,-2.9792,-2.9792,-2.9792,-2.9792,-2.9792,-2.9792,-2.9792,-2.9792,-2.9792,-2.9792,-2.9792,-2.9792,-2.9792,-2.9792,-2.9792,-2.9792,-2.9792,-2.9792,-2.9792,-2.9792,-2.9792,-2.9792,-2.9792,-2.9792,-2.9792,-2.9792,-2.9792,-2.9792,-2.9792,-2.9792,-2.9792,-2.9792,-2.9792,-2.9792,-2.9792,-2.9792,-2.9792,-2.9792,-2.9792,-2.9792,-2.9792,-2.9792,-2.9792,-2.9792,-2.9792,0.0,-2.9792,0.0,-2.9792,-2.9792,-2.9792,-2.9792,-2.9792,-2.9792,-2.9792,-2.9792,-2.9792,-2.9792,-2.9792,-2.9792,-2.9792,-2.9792,-2.9792,-2.9792,-2.9792,-2.9792,-2.9792,-2.9792,-2.9792,-2.9792,-2.9792,-2.9792,-2.9792,-2.9792,-2.9792,-2.9792,-2.9792,-2.9792,-2.9792,-2.9792,-2.9779,-2.9641,-2.9063,-2.8285,-2.816,-2.7833,-2.7419,-3.6405,-3.6405,-3.6405,-3.6405,-3.5943,-3.5545,-3.5508,-3.5069,-3.4718,-3.4726,-3.468,-3.468,-3.468,-3.4223,-3.3897,-3.3897,-3.3395,-3.3124,-3.3124,-3.3124,-3.3124,-3.3124,-3.2077,-3.1474,-3.1386,-3.0344,-2.9792,-2.9792,-2.9792,-2.9792,-2.9792,-2.9792,-2.9792,-2.9792,-2.9792,-2.9792,-2.9792,-2.9792,-2.9792,-2.9792,-2.9792,-2.9792,-2.9792,-2.9792,-2.9792,-2.9792,-2.9792,-2.9792,-2.9792,-2.9792,-2.9792,-2.9792,-2.9792,-2.9792,-2.9792,-2.9792,-2.9792,-2.9792,-2.9792,-2.9792,-2.9792,-2.9792,-2.9792,-2.9792,-2.9792,-2.9792,-2.9792,-2.9792,-2.9792,-2.9792,-2.9792,-2.9792,-2.9792,-2.9792,0.0,0.0,-2.9792,-2.9792,-2.9792,-2.9792,-2.9792,-2.9792,-2.9792,-2.9792,-2.9792,-2.9792,-2.9792,-2.9792,-2.9792,-2.9792,-2.9792,-2.9792,-2.9792,-2.9792,-2.9792,-2.9792,-2.9792,-2.9792,-2.9792,-2.9792,-2.9792,-2.9792,-2.9792,-2.9792,-2.9792,-2.9792,-2.9792,-2.9792,-2.9792,-2.9741,-2.9164,-2.89,-2.8762,-2.8298,-2.8084,-2.8047,-3.6405,-3.6405,-3.6405,-3.6405,-3.6194,-3.6056,-3.6056,-3.5868,-3.5742,-3.5742,-3.5742,-3.5742,-3.5742,-3.5253,-3.4776,-3.4449,-3.3909,-3.3171,-3.2232,-3.2164,-3.2438,-3.3068,-3.1433,-3.0799,-3.1386,-3.0344,-2.9792,-2.9792,-2.9792,-2.9792,-2.9792,-2.9792,-2.9792,-2.9792,-2.9792,-2.9792,-2.9792,-2.9792,-2.9792,-2.9792,-2.9792,-2.9792,-2.9792,-2.9792,-2.9792,-2.9792,-2.9792,-2.9792,-2.9792,-2.9792,-2.9792,-2.9792,-2.9792,-2.9792,-2.9792,-2.9792,-2.9792,-2.9867,-3.0218,-3.0055,-2.9792,-2.9792,-2.9792,-2.9792,-2.9792,-2.9792,-2.9892,-3.0231,-3.003,-2.9892,-3.0231,-3.0018,-2.9792,-2.9792,0.0,-2.9792,-2.9792,-2.9792,-2.9792,-2.9792,-2.9792,-2.9792,-2.9792,-2.9792,-2.9792,-2.9792,-2.9792,-2.9792,-2.9792,-2.9792,-2.9792,-2.9792,-2.9792,-2.9792,-2.9792,-2.9792,-2.9792,-2.9792,-2.9792,-2.9792,-2.9792,-2.9792,-2.9792,-2.9792,-2.9792,-2.9792,-2.9792,-2.9792,-2.9792,-2.9767,-2.9553,-2.9252,-2.8863,-2.865,-2.8612,-2.8561,-3.6405,-3.6405,-3.6405,-3.6405,-3.6267,-3.6107,-3.6107,-3.6107,-3.6107,-3.6107,-3.6304,-3.6405,-3.6405,-3.5868,-3.5207,-3.4532,-3.3838,-3.2844,-3.143,-3.1208,-3.1625,-3.2581,-3.1083,-3.0681,-3.165,-3.0758,-3.0294,-3.0294,-3.0131,-3.0043,-3.0043,-2.988,-2.9792,-2.9792,-2.9792,-2.9792,-2.9792,-2.9792,-2.9792,-2.9792,-2.9792,-2.9792,-2.9792,-2.9792,-2.9792,-2.9792,-2.9792,-2.9792,-2.9792,-2.9792,-2.9792,-2.9792,-2.9792,-2.9792,-2.9829,-2.9993,-2.993,-2.9942,-3.067,-3.047,-3.0043,-3.0043,-3.0181,-3.0206,-2.9867,-3.0055,-3.0357,-3.057,-3.0444,-3.0407,-3.0783,-3.0545,-3.0244,-3.008,-3.0043,-2.9993,-2.9817,-2.9792,-2.9792,-2.9792,-2.9792,-2.9792,-2.9792,-2.9792,-2.9792,-2.9792,-2.9792,-2.9792,-2.9792,-2.9792,-2.9792,-2.9792,-2.9792,-2.9792,-2.9792,-2.9792,-2.9792,-2.9792,-2.9792,-2.9792,-2.9792,-2.9792,-2.9792,-2.9792,-2.9792,-2.9792,-2.9792,-2.9792,-2.9792,-2.9792,-2.9792,-2.9553,-2.9202,-2.9202,-2.9202,-2.9151,-3.6405,-3.6405,-3.6405,-3.6405,-3.5906,-3.5508,-3.5508,-3.5508,-3.5508,-3.5508,-3.6031,-3.6405,-3.6405,-3.5881,-3.5112,-3.4088,-3.3054,-3.1962,-3.0858,-3.04,-3.0576,-3.1536,-3.1076,-3.1229,-3.2173,-3.1675,-3.1386,-3.1386,-3.0871,-3.062,-3.0608,-3.0055,-2.9804,-2.9804,-2.9804,-2.9804,-2.9804,-2.9804,-2.9804,-2.9804,-2.9804,-2.9792,-2.9792,-2.9792,-2.9792,-2.9792,-2.9792,-2.9792,-2.9792,-2.9792,-2.9804,-2.9804,-2.9804,-2.9804,-2.9905,-3.0457,-3.0231,-3.003,-3.1097,-3.1022,-3.062,-3.062,-3.1009,-3.111,-3.0043,-3.0633,-3.1248,-3.0733,-3.1035,-3.1386,-3.1399,-3.1386,-3.1223,-3.0708,-3.062,-3.0419,-2.9867,-2.9792,-2.9792,-2.9792,-2.9792,-2.9792,-2.9792,-2.9792,-2.9792,-2.9792,-2.9792,-2.9792,-2.9792,-2.9792,-2.9792,-2.9792,-2.9792,-2.9792,-2.9792,-2.9792,-2.9792,-2.9792,-2.9792,-2.9792,-2.9792,-2.9792,-2.9792,-2.9792,-2.9792,-2.9792,-2.9792,-2.9792,-2.9792,-2.9792,-2.9792,-2.9792,-2.9792,-2.9792,-2.9792,-2.9792,-3.6405,-3.6405,-3.6405,-3.6405,-3.6267,-3.6119,-3.6119,-3.6119,-3.6119,-3.6119,-3.6304,-3.6405,-3.6405,-3.6267,-3.5568,-3.4113,-3.3693,-3.2488,-3.0,-2.8798,-2.8574,-2.9532,-2.9676,-3.0201,-3.1186,-3.0693,-3.0716,-3.1386,-3.1235,-3.116,-3.1148,-3.062,-3.057,-3.0896,-3.0532,-3.057,-3.0909,-3.0909,-3.0708,-3.0369,-3.0369,-3.0143,-2.9792,-2.9792,-2.9792,-2.9792,-2.9792,-2.9792,-2.9854,-3.0231,-3.0369,-3.0369,-3.0369,-3.0369,-3.0407,-3.057,-3.0231,-3.0118,-3.1574,-3.1574,-3.116,-3.116,-3.1273,-3.1311,-3.0984,-3.116,-3.1449,-3.1687,-3.1549,-3.1512,-3.1888,-3.165,-3.1223,-3.0708,-3.062,-3.0419,-2.9867,-2.9792,-2.9792,-2.9792,-2.9792,-2.9792,-2.9792,-2.9792,-2.9792,-2.9792,-2.9792,-2.9792,-2.9792,-2.9792,-2.9792,-2.9792,-2.9792,-2.9792,-2.9792,-2.9792,-2.9792,-2.9792,-2.9792,-2.9792,-2.9792,-2.9792,-2.9792,-2.9792,-2.9792,-2.9792,-2.9792,-2.9792,-2.9792,-2.9792,-2.9792,-2.9792,-2.9792,-2.9792,-2.9792,-2.9792,-3.6405,-3.6405,-3.6405,-3.6405,-3.6405,-3.6329,-3.6069,-3.6267,-3.6329,-3.6069,-3.6267,-3.6175,-3.5561,-3.5639,-3.487,-3.2672,-3.1938,-3.0729,-2.8704,-2.8099,-2.7951,-2.8128,-2.8739,-2.9699,-3.1112,-3.08,-3.0931,-3.1482,-3.1272,-3.094,-3.0567,-3.0017,-2.9932,-3.0252,-2.9908,-2.9944,-3.0264,-3.0675,-3.0667,-3.0396,-3.076,-3.0721,-3.0407,-3.0193,-3.0118,-3.0093,-2.988,-2.993,-3.0168,-3.0507,-3.0758,-3.0922,-3.0922,-3.0922,-3.0972,-3.1185,-3.0859,-3.0733,-3.2164,-3.2152,-3.1763,-3.2001,-3.2051,-3.1938,-3.1486,-3.1738,-3.2089,-3.219,-3.2127,-3.2152,-3.2491,-3.2277,-3.1813,-3.1047,-3.0922,-3.0658,-2.9905,-2.9792,-2.9792,-2.9792,-2.9792,-2.9792,-2.9792,-2.9792,-2.9792,-2.9792,-2.9792,-2.9792,-2.9792,-2.9792,-2.9792,-2.9792,-2.9792,-2.9792,-2.9792,-2.9792,-2.9792,-2.9792,-2.9792,-2.9792,-2.9792,-2.9792,-2.9792,-2.9792,-2.9792,-2.9792,-2.9792,-2.9792,-2.9792,-2.9792,-2.9792,-2.9792,-2.9792,-2.9792,-2.9792,-2.9792,-3.6405,-3.6405,-3.6405,-3.6405,-3.6405,-3.6194,-3.5646,-3.6044,-3.6182,-3.5633,-3.6056,-3.5874,-3.4446,-3.4583,-3.3642,-3.0721,-2.8932,-2.78,-2.7392,-2.8113,-2.8175,-2.7357,-2.8128,-2.9452,-3.1315,-3.1359,-3.1403,-3.1492,-3.097,-3.0272,-2.9347,-2.8843,-2.8594,-2.864,-2.8594,-2.8594,-2.8726,-2.9619,-3.0031,-3.0164,-3.0997,-3.1354,-3.1336,-3.0871,-3.0683,-3.062,-3.0118,-3.0256,-3.0696,-3.0746,-3.1097,-3.1537,-3.1486,-3.1461,-3.1562,-3.2064,-3.1825,-3.1637,-3.2767,-3.2654,-3.2353,-3.293,-3.3124,-3.2847,-3.1775,-3.2328,-3.293,-3.2403,-3.2717,-3.3124,-3.3124,-3.3124,-3.2717,-3.1637,-3.1461,-3.1085,-3.0018,-2.9867,-2.9867,-2.9867,-2.9829,-2.9817,-2.9867,-2.9829,-2.9817,-2.9867,-2.9867,-2.9842,-2.9792,-2.988,-2.9892,-2.9792,-2.9842,-2.9867,-2.9867,-2.9867,-2.9842,-2.9792,-2.9792,-2.9792,-2.9792,-2.9792,-2.9792,-2.9792,-2.9792,-2.9792,-2.9792,-2.9792,-2.9792,-2.9792,-2.9792,-2.9792,-2.9792,-2.9792,-2.9792,-2.9792,-3.6405,-3.6405,-3.6405,-3.6405,-3.6405,-3.6367,-3.6194,-3.6329,-3.6367,-3.6194,-3.6329,-3.626,-3.5946,-3.5246,-3.4193,-3.2681,-3.0048,-2.8276,-2.781,-2.7687,-2.7489,-2.7309,-2.7489,-2.8128,-2.9314,-2.9314,-2.9715,-3.0486,-3.0382,-3.0234,-2.9986,-2.9425,-2.9391,-2.9814,-2.9357,-2.9402,-2.9837,-3.006,-3.0326,-3.062,-3.0834,-3.1139,-3.1386,-3.126,-3.1223,-3.121,-3.1085,-3.1122,-3.1286,-3.1725,-3.224,-3.2629,-3.2177,-3.2039,-3.2051,-3.2177,-3.1825,-3.1637,-3.2767,-3.2654,-3.2353,-3.293,-3.3124,-3.3061,-3.281,-3.2905,-3.3043,-3.2918,-3.2993,-3.3124,-3.3124,-3.3124,-3.2842,-3.2152,-3.2039,-3.1662,-3.0583,-3.0432,-3.0432,-3.0432,-3.0055,-2.9967,-3.0394,-3.0043,-2.9967,-3.0407,-3.0432,-3.0244,-2.9817,-3.0595,-3.0658,-2.9817,-3.0218,-3.0432,-3.0432,-3.0432,-3.0218,-2.9792,-2.9792,-2.9792,-2.9792,-2.9792,-2.9792,-2.9792,-2.9792,-2.9792,-2.9792,-2.9792,-2.9792,-2.9792,-2.9792,-2.9792,-2.9792,-2.9792,-2.9792,-2.9792,-3.6405,-3.6405,-3.6405,-3.6405,-3.6405,-3.6405,-3.6405,-3.6405,-3.6405,-3.6405,-3.6405,-3.6103,-3.5404,-3.4534,-3.3241,-3.1191,-2.9165,-2.7872,-2.7624,-2.7583,-2.7479,-2.732,-2.7458,-2.7708,-2.8045,-2.8034,-2.8491,-2.9486,-2.9486,-2.9268,-2.8795,-2.8486,-2.8508,-2.8795,-2.8486,-2.8519,-2.8852,-2.9303,-2.9614,-2.9869,-3.081,-3.1307,-3.1508,-3.171,-3.1788,-3.175,-3.1486,-3.1562,-3.1863,-3.2441,-3.283,-3.3018,-3.2717,-3.2629,-3.2629,-3.2629,-3.2416,-3.2328,-3.296,-3.2855,-3.2704,-3.3006,-3.3124,-3.3124,-3.3124,-3.3124,-3.3124,-3.3124,-3.3124,-3.3124,-3.3124,-3.3124,-3.288,-3.2303,-3.2215,-3.1926,-3.1097,-3.0771,-3.062,-3.062,-3.0357,-3.0294,-3.0583,-3.0357,-3.0306,-3.0595,-3.0846,-3.0859,-3.057,-3.1085,-3.1022,-3.0218,-3.047,-3.0495,-3.0231,-3.0218,-3.0218,-3.0181,-3.0181,-3.0043,-2.9792,-2.9792,-2.9792,-2.9792,-2.9792,-2.9792,-2.9792,-2.9792,-2.9792,-2.9792,-2.9792,-2.9792,-2.9792,-2.9792,-2.9792,-2.9792,-3.6405,-3.6405,-3.6405,-3.6405,-3.6405,-3.6405,-3.6405,-3.6405,-3.6405,-3.6405,-3.6405,-3.5934,-3.4649,-3.3734,-3.1978,-2.8994,-2.8048,-2.762,-2.7548,-2.7831,-2.7841,-2.7444,-2.7728,-2.7748,-2.7423,-2.7423,-2.7752,-2.8445,-2.8445,-2.8034,-2.7309,-2.7309,-2.7309,-2.7309,-2.7309,-2.7309,-2.7347,-2.8128,-2.8538,-2.8863,-3.0453,-3.1214,-3.1388,-3.1737,-3.196,-3.2037,-3.1577,-3.1839,-3.2441,-3.2918,-3.3144,-3.3262,-3.3262,-3.3262,-3.3262,-3.3262,-3.3262,-3.3206,-3.3106,-3.3219,-3.3289,-3.3015,-3.299,-3.2978,-3.299,-3.3045,-3.3124,-3.3124,-3.3124,-3.3124,-3.3124,-3.3124,-3.2918,-3.2441,-3.2353,-3.2164,-3.1612,-3.116,-3.0884,-3.0884,-3.0884,-3.0884,-3.0884,-3.0809,-3.0783,-3.0884,-3.1286,-3.1449,-3.1273,-3.1524,-3.1348,-3.0633,-3.0708,-3.0532,-3.0068,-3.0068,-3.0294,-3.0758,-3.0846,-3.0595,-3.0068,-2.998,-2.993,-2.993,-2.9829,-2.9792,-2.9792,-2.9792,-2.9792,-2.9792,-2.9792,-2.9792,-2.9792,-2.9792,-2.9792,-2.9792,-3.6405,-3.6405,-3.6405,-3.6405,-3.6405,-3.6405,-3.6405,-3.6405,-3.6405,-3.6405,-3.6405,-3.6332,-3.6103,-3.4338,-3.2124,-2.9453,-2.9104,-2.8856,-2.8452,-2.8493,-2.8317,-2.7852,-2.7893,-2.7893,-2.7831,-2.7831,-2.7693,-2.7489,-2.7489,-2.7441,-2.7309,-2.7309,-2.7309,-2.7309,-2.7309,-2.7309,-2.7309,-2.7441,-2.7951,-2.8724,-2.8991,-2.9624,-3.0384,-3.045,-3.0962,-3.168,-3.1608,-3.2179,-3.2968,-3.3056,-3.3395,-3.3784,-3.3784,-3.3784,-3.3784,-3.3784,-3.3784,-3.3684,-3.3206,-3.3771,-3.415,-3.2759,-3.2433,-3.2466,-3.24,-3.2783,-3.3124,-3.3124,-3.3124,-3.3124,-3.3124,-3.3124,-3.3056,-3.2968,-3.2998,-3.2754,-3.219,-3.2039,-3.1989,-3.1989,-3.1989,-3.1989,-3.1989,-3.1562,-3.1486,-3.1964,-3.2064,-3.17,-3.0771,-3.2077,-3.2164,-3.067,-3.1047,-3.1248,-3.1173,-3.1173,-3.121,-3.1298,-3.1775,-3.17,-3.116,-3.0708,-3.0507,-3.0482,-2.9993,-2.9792,-2.9792,-2.9792,-2.9792,-2.9792,-2.9792,-2.9792,-2.9792,-2.9792,-2.9792,-2.9792,-3.6405,-3.6405,-3.6405,-3.6405,-3.6405,-3.6405,-3.6405,-3.6405,-3.6405,-3.6405,-3.6405,-3.6405,-3.6405,-3.4269,-3.1844,-2.9515,-2.9063,-2.8835,-2.8628,-2.8856,-2.8794,-2.8328,-2.8307,-2.8183,-2.7935,-2.7924,-2.7821,-2.7634,-2.7634,-2.7634,-2.7624,-2.7423,-2.7309,-2.7309,-2.7309,-2.7309,-2.7309,-2.7309,-2.7536,-2.7951,-2.8491,-2.8945,-2.9395,-2.9988,-3.0441,-3.0937,-3.1759,-3.2889,-3.3997,-3.3997,-3.4161,-3.4361,-3.4361,-3.4361,-3.4361,-3.4361,-3.4361,-3.4311,-3.406,-3.4349,-3.4379,-3.3095,-3.2644,-3.2401,-3.1763,-3.2293,-3.3003,-3.3452,-3.3533,-3.3533,-3.3533,-3.3282,-3.3124,-3.3124,-3.3124,-3.2993,-3.2729,-3.2416,-3.2215,-3.2215,-3.1938,-3.1876,-3.2177,-3.1989,-3.1951,-3.219,-3.2516,-3.2491,-3.2014,-3.2679,-3.2453,-3.1085,-3.1574,-3.1562,-3.0959,-3.1248,-3.1549,-3.1851,-3.2102,-3.1926,-3.1373,-3.0859,-3.062,-3.0583,-3.003,-2.9792,-2.9792,-2.9792,-2.9792,-2.9792,-2.9792,-2.9792,-2.9792,-2.9792,-2.9792,-2.9792]},{"header":{"parameterUnit":"m.s-1","parameterCategory":1,"la1":30.6,"la2":28.766,"lo1":-90.7593,"lo2":-88.6598,"dy":0.0162,"dx":0.0183,"nx":116,"ny":114,"refTime":"2024-05-01T00:00:00:Z","depth":0,"parameterNumber":3,"parameterNumberName":"V-component_of_WINDS"},"data":[0.0,0.0,0.0,0.0,0.0,0.0,0.0,0.0,0.0,0.0,0.0,0.0,0.0,0.0,0.0,0.0,0.0,0.0,0.0,0.0,0.0,0.0,0.0,0.0,0.0,0.0,0.0,0.0,0.0,0.0,0.0,0.0,0.0,0.0,0.0,0.0,0.0,0.0,0.0,0.0,0.0,0.0,0.0,0.0,0.0,0.0,0.0,0.0,0.0,0.0,0.0,0.0,0.0,0.0,0.0,0.0,0.0,0.0,0.0,0.0,0.0,0.0,0.0,0.0,0.0,0.0,0.0,0.0,0.0,0.0,0.0,0.0,0.0,0.0,0.0,0.0,0.0,0.0,0.0,0.0,0.0,0.0,0.0,0.0,0.0,0.0,0.0,0.0,0.0,0.0,0.0,0.0,0.0,0.0,0.0,0.0,0.0,0.0,0.0,0.0,0.0,0.0,0.0,0.0,0.0,0.0,0.0,0.0,0.0,0.0,0.0,0.0,0.0,0.0,0.0,0.0,0.0,0.0,0.0,0.0,0.0,0.0,0.0,0.0,0.0,0.0,0.0,0.0,0.0,0.0,0.0,0.0,0.0,0.0,0.0,0.0,0.0,0.0,0.0,0.0,0.0,0.0,0.0,0.0,0.0,0.0,0.0,0.0,0.0,0.0,0.0,0.0,0.0,0.0,0.0,0.0,0.0,0.0,0.0,0.0,0.0,0.0,0.0,0.0,0.0,0.0,0.0,0.0,0.0,0.0,0.0,0.0,0.0,0.0,0.0,0.0,0.0,0.0,0.0,0.0,0.0,0.0,0.0,0.0,0.0,0.0,0.0,0.0,0.0,0.0,0.0,0.0,0.0,0.0,0.0,0.0,0.0,0.0,0.0,0.0,0.0,0.0,0.0,0.0,0.0,0.0,0.0,0.0,0.0,0.0,0.0,0.0,0.0,0.0,0.0,0.0,0.0,0.0,0.0,0.0,0.0,0.0,0.0,0.0,0.0,0.0,0.0,0.0,0.0,0.0,0.0,0.0,0.0,0.0,0.0,0.0,0.0,0.0,0.0,0.0,0.0,0.0,0.0,0.0,0.0,0.0,0.0,0.0,0.0,0.0,0.0,0.0,0.0,0.0,0.0,0.0,0.0,0.0,0.0,0.0,0.0,0.0,0.0,0.0,0.0,0.0,0.0,0.0,0.0,0.0,0.0,0.0,0.0,0.0,0.0,0.0,0.0,0.0,0.0,0.0,0.0,0.0,0.0,0.0,0.0,0.0,0.0,0.0,0.0,0.0,0.0,0.0,0.0,0.0,0.0,0.0,0.0,0.0,0.0,0.0,0.0,0.0,0.0,0.0,0.0,0.0,0.0,0.0,0.0,0.0,0.0,0.0,0.0,0.0,0.0,0.0,0.0,0.0,0.0,0.0,0.0,0.0,0.0,0.0,0.0,0.0,0.0,0.0,0.0,0.0,0.0,0.0,0.0,0.0,0.0,0.0,0.0,0.0,0.0,0.0,0.0,0.0,0.0,0.0,0.0,0.0,0.0,0.0,0.0,0.0,0.0,0.0,0.0,0.0,0.0,0.0,0.0,0.0,0.0,0.0,0.0,0.0,0.0,0.0,0.0,0.0,0.0,0.0,0.0,0.0,0.0,0.0,0.0,0.0,0.0,0.0,0.0,0.0,0.0,0.0,0.0,0.0,0.0,0.0,0.0,0.0,0.0,0.0,0.0,0.0,0.0,0.0,0.0,0.0,0.0,0.0,0.0,0.0,0.0,0.0,0.0,0.0,0.0,0.0,0.0,0.0,0.0,0.0,0.0,0.0,0.0,0.0,0.0,0.0,0.0,0.0,0.0,0.0,0.0,0.0,0.0,0.0,0.0,0.0,0.0,0.0,0.0,0.0,0.0,0.0,0.0,0.0,0.0,0.0,0.0,0.0,0.0,0.0,0.0,0.0,0.0,0.0,0.0,0.0,0.0,0.0,0.0,0.0,0.0,0.0,0.0,0.0,0.0,0.0,0.0,0.0,0.0,0.0,0.0,0.0,0.0,0.0,0.0,0.0,0.0,0.0,0.0,0.0,0.0,0.0,0.0,0.0,0.0,0.0,0.0,0.0,0.0,0.0,0.0,0.0,0.0,0.0,0.0,0.0,0.0,0.0,0.0,0.0,0.0,0.0,0.0,0.0,0.0,0.0,0.0,0.0,0.0,0.0,0.0,0.0,0.0,0.0,0.0,0.0,0.0,0.0,0.0,0.0,0.0,0.0,0.0,0.0,0.0,0.0,0.0,0.0,0.0,0.0,0.0,0.0,0.0,0.0,0.0,0.0,0.0,0.0,0.0,0.0,0.0,0.0,0.0,0.0,0.0,0.0,0.0,0.0,0.0,0.0,0.0,0.0,0.0,0.0,0.0,0.0,0.0,0.0,0.0,0.0,0.0,0.0,0.0,0.0,0.0,0.0,0.0,0.0,0.0,0.0,0.0,0.0,0.0,0.0,0.0,0.0,0.0,0.0,0.0,0.0,0.0,0.0,0.0,0.0,0.0,0.0,0.0,0.0,0.0,0.0,0.0,0.0,0.0,0.0,0.0,0.0,0.0,0.0,0.0,0.0,0.0,0.0,0.0,0.0,0.0,0.0,0.0,0.0,0.0,0.0,0.0,0.0,0.0,0.0,0.0,0.0,0.0,0.0,0.0,0.0,0.0,0.0,0.0,0.0,0.0,0.0,0.0,0.0,0.0,0.0,0.0,0.0,0.0,0.0,0.0,0.0,0.0,0.0,0.0,0.0,0.0,0.0,0.0,0.0,0.0,0.0,0.0,0.0,0.0,0.0,0.0,0.0,0.0,0.0,0.0,0.0,0.0,0.0,0.0,0.0,0.0,0.0,0.0,0.0,0.0,0.0,0.0,0.0,0.0,0.0,0.0,0.0,0.0,0.0,0.0,0.0,0.0,0.0,0.0,0.0,0.0,0.0,0.0,0.0,0.0,0.0,0.0,0.0,0.0,0.0,0.0,0.0,0.0,0.0,0.0,0.0,0.0,0.0,0.0,0.0,0.0,0.0,0.0,0.0,0.0,0.0,0.0,0.0,0.0,0.0,0.0,0.0,0.0,0.0,0.0,0.0,0.0,0.0,0.0,0.0,0.0,0.0,0.0,0.0,0.0,0.0,0.0,0.0,0.0,0.0,0.0,0.0,0.0,0.0,0.0,0.0,0.0,0.0,0.0,0.0,0.0,0.0,0.0,0.0,0.0,0.0,0.0,0.0,0.0,0.0,0.0,0.0,0.0,0.0,0.0,0.0,0.0,0.0,0.0,0.0,0.0,0.0,0.0,0.0,0.0,0.0,0.0,0.0,0.0,0.0,0.0,0.0,0.0,0.0,0.0,0.0,0.0,0.0,0.0,0.0,0.0,0.0,0.0,0.0,0.0,0.0,0.0,0.0,0.0,0.0,0.0,0.0,0.0,0.0,0.0,0.0,0.0,0.0,0.0,0.0,0.0,0.0,0.0,0.0,0.0,0.0,0.0,0.0,0.0,0.0,0.0,0.0,0.0,0.0,0.0,0.0,0.0,0.0,0.0,0.0,0.0,0.0,0.0,0.0,0.0,0.0,0.0,0.0,0.0,0.0,0.0,0.0,0.0,0.0,0.0,0.0,0.0,0.0,0.0,0.0,0.0,0.0,0.0,0.0,0.0,0.0,0.0,0.0,0.0,0.0,0.0,0.0,0.0,0.0,0.0,0.0,0.0,0.0,0.0,0.0,0.0,0.0,0.0,0.0,0.0,0.0,0.0,0.0,0.0,0.0,0.0,0.0,0.0,0.0,0.0,0.0,0.0,0.0,0.0,0.0,0.0,0.0,0.0,0.0,0.0,0.0,0.0,0.0,0.0,0.0,0.0,0.0,0.0,0.0,0.0,0.0,0.0,0.0,0.0,0.0,0.0,0.0,0.0,0.0,0.0,0.0,0.0,0.0,0.0,0.0,0.0,0.0,0.0,0.0,0.0,0.0,0.0,0.0,0.0,0.0,0.0,0.0,0.0,0.0,0.0,0.0,0.0,0.0,0.0,0.0,0.0,0.0,0.0,0.0,0.0,0.0,0.0,0.0,0.0,0.0,0.0,0.0,0.0,0.0,0.0,0.0,0.0,0.0,0.0,0.0,0.0,0.0,0.0,0.0,0.0,0.0,0.0,0.0,0.0,0.0,0.0,0.0,0.0,0.0,0.0,0.0,0.0,0.0,0.0,0.0,0.0,0.0,0.0,0.0,0.0,0.0,0.0,0.0,0.0,0.0,0.0,0.0,0.0,0.0,0.0,0.0,0.0,0.0,0.0,0.0,0.0,0.0,0.0,0.0,0.0,0.0,0.0,0.0,0.0,0.0,0.0,0.0,0.0,0.0,0.0,0.0,0.0,0.0,0.0,0.0,0.0,0.0,0.0,0.0,0.0,0.0,0.0,0.0,0.0,0.0,0.0,0.0,0.0,0.0,0.0,0.0,0.0,0.0,0.0,0.0,0.0,0.0,0.0,0.0,0.0,0.0,0.0,0.0,0.0,0.0,0.0,0.0,0.0,0.0,0.0,0.0,0.0,0.0,0.0,0.0,0.0,0.0,0.0,0.0,0.0,0.0,0.0,0.0,0.0,0.0,0.0,0.0,0.0,0.0,0.0,0.0,0.0,0.0,0.0,0.0,0.0,0.0,0.0,0.0,0.0,0.0,0.0,0.0,0.0,0.0,0.0,0.0,0.0,0.0,0.0,0.0,0.0,0.0,0.0,0.0,0.0,0.0,0.0,0.0,0.0,0.0,0.0,0.0,0.0,0.0,0.0,0.0,0.0,0.0,0.0,0.0,0.0,0.0,0.0,0.0,0.0,0.0,0.0,0.0,0.0,0.0,0.0,0.0,0.0,0.0,0.0,0.0,0.0,0.0,0.0,0.0,0.0,0.0,0.0,0.0,0.0,0.0,0.0,0.0,0.0,0.0,0.0,0.0,0.0,0.0,0.0,0.0,0.0,0.0,0.0,0.0,0.0,0.0,0.0,0.0,0.0,0.0,0.0,0.0,0.0,0.0,0.0,0.0,0.0,0.0,0.0,0.0,0.0,0.0,0.0,0.0,0.0,0.0,0.0,0.0,0.0,0.0,0.0,0.0,0.0,0.0,0.0,0.0,0.0,0.0,0.0,0.0,0.0,0.0,0.0,0.0,0.0,0.0,0.0,0.0,0.0,0.0,0.0,0.0,0.0,0.0,0.0,0.0,0.0,0.0,0.0,0.0,0.0,0.0,0.0,0.0,0.0,0.0,0.0,0.0,0.0,0.0,0.0,0.0,0.0,0.0,0.0,0.0,0.0,0.0,0.0,0.0,0.0,0.0,0.0,0.0,0.0,0.0,0.0,0.0,0.0,0.0,0.0,0.0,0.0,0.0,0.0,0.0,0.0,0.0,0.0,0.0,0.0,0.0,0.0,0.0,0.0,0.0,0.0,0.0,0.0,0.0,0.0,0.0,0.0,0.0,0.0,0.0,0.0,0.0,0.0,0.0,0.0,0.0,0.0,0.0,0.0,0.0,0.0,0.0,0.0,0.0,0.0,0.0,0.0,0.0,0.0,0.0,0.0,0.0,0.0,0.0,0.0,0.0,0.0,0.0,0.0,0.0,0.0,0.0,0.0,0.0,0.0,0.0,0.0,0.0,0.0,0.0,0.0,0.0,0.0,0.0,0.0,0.0,0.0,0.0,0.0,0.0,0.0,0.0,0.0,0.0,0.0,0.0,0.0,0.0,0.0,0.0,0.0,0.0,0.0,0.0,0.0,0.0,0.0,0.0,0.0,0.0,0.0,0.0,0.0,0.0,0.0,0.0,0.0,0.0,0.0,0.0,0.0,0.0,0.0,0.0,0.0,0.0,0.0,0.0,0.0,0.0,0.0,0.0,0.0,0.0,0.0,0.0,0.0,0.0,0.0,0.0,0.0,0.0,0.0,0.0,0.0,0.0,0.0,0.0,0.0,0.0,0.0,0.0,0.0,0.0,0.0,0.0,0.0,0.0,0.0,0.0,0.0,0.0,0.0,0.0,0.0,0.0,0.0,0.0,0.0,0.0,0.0,0.0,0.0,0.0,1.5124,0.0,0.0,0.0,0.0,0.0,0.0,0.0,0.0,0.0,0.0,0.0,0.0,0.0,0.0,0.0,0.0,0.0,0.0,0.0,0.0,0.0,0.0,0.0,0.0,1.9121,1.8765,1.9404,1.9694,1.9861,1.9928,0.0,0.0,0.0,0.0,0.0,1.9694,1.9408,1.9475,1.9881,2.0088,2.0476,2.1027,2.1097,2.0939,2.0559,0.0,0.0,0.0,0.0,0.0,0.0,0.0,0.0,0.0,0.0,0.0,0.0,0.0,0.0,0.0,0.0,0.0,0.0,0.0,0.0,0.0,0.0,0.0,0.0,0.0,0.0,0.0,0.0,0.0,0.0,0.0,0.0,0.0,0.0,0.0,0.0,0.0,0.0,0.0,0.0,0.0,0.0,0.0,0.0,0.0,0.0,0.0,0.0,0.0,0.0,0.0,0.0,0.0,0.0,0.0,0.0,0.0,0.0,0.0,0.0,0.0,0.0,0.0,0.0,0.0,0.0,0.0,0.0,0.0,0.0,0.0,1.5927,0.0,0.0,0.0,0.0,0.0,0.0,0.0,0.0,0.0,0.0,0.0,0.0,0.0,0.0,0.0,0.0,0.0,0.0,0.0,0.0,0.0,1.8773,1.961,1.8316,1.7821,1.89,1.9063,1.9123,1.9191,1.9708,0.0,0.0,0.0,1.9902,1.9902,1.9993,2.0098,2.0218,2.0767,2.1392,2.2118,2.2118,2.1807,2.1262,2.0821,0.0,0.0,0.0,0.0,0.0,0.0,0.0,0.0,0.0,0.0,0.0,0.0,0.0,0.0,0.0,0.0,0.0,0.0,0.0,0.0,0.0,0.0,0.0,0.0,0.0,0.0,0.0,0.0,0.0,0.0,0.0,0.0,0.0,0.0,0.0,0.0,0.0,0.0,0.0,0.0,0.0,0.0,0.0,0.0,0.0,0.0,0.0,0.0,0.0,0.0,0.0,0.0,0.0,0.0,0.0,0.0,0.0,0.0,0.0,0.0,0.0,0.0,0.0,1.5784,1.5825,1.5638,1.635,1.6535,1.6341,1.6936,1.6832,1.6278,1.6695,0.0,0.0,0.0,0.0,0.0,0.0,0.0,0.0,0.0,0.0,0.0,0.0,0.0,0.0,0.0,0.0,0.0,0.0,0.0,1.7943,1.915,1.8806,1.8508,1.8569,1.8905,1.9247,1.9591,1.9579,1.9639,1.9762,1.9639,1.9566,1.9566,1.9693,1.9797,1.9884,2.0974,2.2402,2.4112,2.4112,2.4343,2.4649,2.2495,2.1648,2.1858,0.0,0.0,0.0,0.0,0.0,0.0,0.0,0.0,0.0,0.0,0.0,0.0,0.0,0.0,0.0,0.0,0.0,0.0,0.0,0.0,0.0,0.0,0.0,0.0,0.0,0.0,0.0,0.0,0.0,0.0,0.0,0.0,0.0,0.0,0.0,0.0,0.0,0.0,0.0,0.0,0.0,1.658,1.7013,0.0,0.0,0.0,0.0,0.0,0.0,0.0,0.0,0.0,0.0,0.0,0.0,0.0,1.4897,1.5108,1.5781,1.6175,1.6348,1.7303,1.7544,1.7211,1.7842,1.7904,1.7504,1.8108,0.0,1.6068,1.6297,0.0,0.0,0.0,0.0,0.0,0.0,0.0,0.0,0.0,0.0,0.0,0.0,0.0,0.0,0.0,0.0,0.0,0.0,0.0,0.0,0.0,1.8509,1.8652,1.8932,1.9594,1.9869,1.9546,1.9757,1.97,1.9273,1.9165,1.9124,1.9124,1.9161,1.9953,2.1477,2.2157,2.3577,2.5675,2.5254,2.5592,2.6521,2.5099,2.3908,2.2964,2.2309,0.0,0.0,0.0,0.0,0.0,0.0,0.0,0.0,0.0,0.0,0.0,0.0,0.0,0.0,0.0,0.0,0.0,0.0,0.0,0.0,0.0,0.0,0.0,0.0,0.0,0.0,0.0,0.0,0.0,0.0,0.0,0.0,0.0,0.0,0.0,0.0,0.0,0.0,0.0,1.5874,1.64,1.7307,1.6725,1.6148,0.0,0.0,0.0,0.0,0.0,0.0,0.0,0.0,0.0,1.586,1.6227,1.6482,1.661,1.7236,1.7571,1.7634,1.8317,1.8455,1.8084,1.8719,1.8744,1.8303,1.8449,1.8278,1.7885,1.7438,1.6873,1.6291,0.0,0.0,0.0,0.0,1.5926,1.5934,0.0,0.0,0.0,0.0,0.0,0.0,0.0,0.0,0.0,0.0,0.0,0.0,1.8265,1.8512,1.8906,1.9459,2.007,2.017,1.9538,1.9705,1.9536,1.8836,1.8712,1.8669,1.8669,1.9098,2.0507,2.2932,2.3511,2.4914,2.7041,2.6627,2.7189,2.8454,2.7644,2.6251,2.4507,2.3471,2.2549,2.1748,0.0,0.0,0.0,0.0,0.0,0.0,0.0,0.0,0.0,0.0,0.0,0.0,0.0,0.0,0.0,0.0,0.0,0.0,0.0,0.0,0.0,0.0,0.0,0.0,0.0,0.0,0.0,0.0,0.0,0.0,0.0,0.0,0.0,0.0,0.0,0.0,0.0,1.6361,1.6682,1.77,1.7093,1.6397,0.0,0.0,0.0,0.0,0.0,0.0,1.7044,1.7025,1.7101,1.7308,1.7726,1.7963,1.8075,1.849,1.872,1.8798,1.9183,1.9163,1.8808,1.9459,1.9514,1.9032,1.8854,1.8958,1.9276,1.8507,1.782,1.7234,1.695,1.638,1.5776,1.6096,1.5969,1.5775,0.0,0.0,0.0,0.0,0.0,0.0,0.0,0.0,0.0,0.0,0.0,1.8274,1.9222,1.9402,1.962,2.0027,1.9866,1.976,1.9768,1.9199,1.8769,1.8528,1.8383,1.8324,1.8324,1.9875,2.1543,2.3284,2.4701,2.6391,2.8327,2.8789,2.9755,3.1044,2.9681,2.8263,2.6806,2.5003,2.3941,2.3325,2.1728,0.0,0.0,0.0,0.0,0.0,0.0,0.0,0.0,0.0,0.0,0.0,0.0,0.0,0.0,0.0,0.0,0.0,0.0,0.0,0.0,0.0,0.0,0.0,0.0,0.0,0.0,0.0,0.0,0.0,0.0,0.0,0.0,0.0,0.0,0.0,0.0,0.0,0.0,1.8425,1.7533,0.0,0.0,0.0,0.0,1.7111,1.6689,1.6814,1.7887,1.7705,1.7694,1.7968,1.8355,1.865,1.8844,1.9111,1.9347,1.9548,1.9945,1.9925,1.9558,2.0159,2.0193,1.9761,1.9741,1.949,1.9091,1.8805,1.8713,1.8848,1.9404,1.8617,1.7206,1.7295,1.7269,1.706,0.0,0.0,0.0,1.994,1.969,1.9453,1.9343,1.8828,1.8527,1.8698,1.8432,1.8494,1.919,1.9975,2.0511,2.0668,2.1116,2.0988,2.0111,1.9627,1.9115,1.8458,1.8194,1.846,1.9373,2.0754,2.2683,2.5175,2.5821,2.7271,2.9416,2.9152,2.9745,3.1003,3.0122,2.9484,2.8986,2.7131,2.5423,2.3865,2.3223,2.236,0.0,0.0,0.0,0.0,0.0,0.0,0.0,0.0,0.0,0.0,0.0,0.0,0.0,0.0,0.0,0.0,0.0,0.0,0.0,0.0,0.0,0.0,0.0,0.0,0.0,0.0,0.0,0.0,0.0,0.0,0.0,0.0,0.0,0.0,0.0,0.0,0.0,1.873,1.9089,0.0,1.7958,1.756,1.7397,1.7432,1.7441,1.7715,1.8362,1.8592,1.886,1.9219,1.9894,2.0166,1.9995,2.0351,2.0439,2.0241,2.0378,2.0369,2.0241,2.0599,2.0655,2.0496,2.0309,2.0246,2.0229,1.9839,1.9148,1.838,1.8414,1.8099,1.753,1.7248,1.7599,1.8056,0.0,2.0183,0.0,1.9636,1.938,1.9139,1.8969,1.8669,1.8397,1.8187,1.8266,1.8561,1.9169,2.0232,2.0969,2.1159,2.169,2.1468,2.0116,1.9657,1.9071,1.828,1.8478,1.9145,2.0311,2.2029,2.4047,2.629,2.6998,2.8098,2.9621,2.9353,2.9795,3.0882,3.0208,3.0022,3.0097,2.888,2.6998,2.4881,2.4537,2.3716,2.2536,0.0,0.0,0.0,0.0,0.0,0.0,0.0,0.0,0.0,0.0,0.0,0.0,0.0,0.0,0.0,0.0,0.0,0.0,0.0,0.0,0.0,0.0,0.0,0.0,0.0,0.0,0.0,0.0,0.0,0.0,0.0,0.0,0.0,0.0,0.0,1.9235,1.9057,1.975,1.9746,1.8477,1.8643,1.8583,1.7916,1.8231,1.8691,1.9258,1.9561,1.998,2.0566,2.1152,2.1318,2.1055,2.1162,2.1084,2.0791,2.0674,2.0605,2.0605,2.0731,2.0819,2.0799,2.0617,2.0646,2.0777,2.0203,1.9442,1.858,1.8448,1.8143,1.778,1.7371,1.756,1.7948,2.0096,1.9889,1.9696,1.945,1.9064,1.8745,1.8611,1.8352,1.8029,1.7557,1.7943,1.8519,1.9249,2.0167,2.0955,2.1496,2.1506,2.1004,1.9798,1.9183,1.8609,1.797,1.9288,2.0363,2.1102,2.3755,2.5633,2.66,2.8185,2.895,2.8976,2.9578,3.0215,3.0846,3.0126,2.9935,3.0074,3.0051,2.8684,2.6502,2.5631,2.4949,2.421,0.0,0.0,0.0,0.0,0.0,0.0,0.0,0.0,0.0,0.0,0.0,0.0,0.0,0.0,0.0,0.0,0.0,0.0,0.0,0.0,0.0,0.0,0.0,0.0,0.0,0.0,0.0,0.0,0.0,0.0,0.0,0.0,0.0,1.808,1.8561,1.9142,1.9509,1.948,1.9318,1.9002,1.9229,1.9189,1.8715,1.9121,1.9764,2.0605,2.0654,2.1055,2.1875,2.1924,2.1924,2.1904,2.1484,2.1229,2.121,2.0801,2.0625,2.0625,2.0615,2.0605,2.0605,2.0605,2.0586,2.0507,1.9871,1.9561,1.9547,1.963,1.9018,1.8086,1.7717,1.7252,1.6746,2.0392,1.9904,1.9453,1.9277,1.8808,1.8383,1.8187,1.8101,1.7996,1.7808,1.8327,1.9087,2.006,2.1185,2.192,2.2071,2.2083,2.1519,2.0143,1.9333,1.8874,1.8835,2.0197,2.1702,2.3369,2.555,2.7415,2.8875,2.9729,3.0344,3.0721,3.0871,3.0853,3.0671,3.0461,3.0185,2.9923,3.0425,2.9725,2.8152,2.7198,2.5969,2.4545,0.0,0.0,0.0,0.0,0.0,0.0,0.0,0.0,0.0,0.0,0.0,0.0,0.0,0.0,0.0,0.0,0.0,0.0,0.0,0.0,0.0,0.0,0.0,0.0,0.0,0.0,0.0,0.0,0.0,0.0,0.0,1.901,1.9475,1.9686,2.0549,2.1113,2.0975,2.1609,2.1647,2.0644,2.0957,2.0996,2.0518,2.0928,2.1279,2.1514,2.1807,2.209,2.2334,2.2637,2.2646,2.2344,2.2227,2.2012,2.1699,2.126,2.1055,2.1045,2.0713,2.0605,2.0605,2.0605,2.0253,1.9656,1.9468,1.8997,1.8468,1.8723,1.8664,1.8306,1.7594,1.6749,1.6163,2.0321,1.9797,1.9339,1.9109,1.8655,1.826,1.8115,1.8042,1.8037,1.8091,1.8574,1.9287,2.0281,2.1134,2.1619,2.1619,2.1619,2.1078,1.9755,1.9269,1.931,1.9934,2.1624,2.3377,2.5165,2.7264,2.8925,3.0143,3.067,3.1097,3.1386,3.1386,3.1223,3.0947,3.0947,3.0758,3.0497,3.0918,3.0521,2.9541,2.8724,2.7611,2.6209,2.4426,2.3692,2.3446,2.2416,2.2229,2.2381,2.1873,0.0,0.0,0.0,0.0,0.0,0.0,0.0,0.0,0.0,0.0,0.0,0.0,0.0,0.0,0.0,0.0,0.0,0.0,0.0,0.0,0.0,0.0,0.0,0.0,2.016,2.0751,2.135,2.1653,2.1824,2.1899,2.2473,2.257,2.1838,2.2158,2.2158,2.1553,2.1904,2.2148,2.2148,2.2383,2.2598,2.2773,2.2974,2.2974,2.273,2.2598,2.2383,2.2139,2.1483,2.119,2.1181,2.0771,2.0605,2.0605,2.0605,2.0214,1.9541,1.9365,1.8887,0.0,0.0,0.0,0.0,0.0,1.6547,1.5944,2.0058,1.9683,1.9302,1.8969,1.8572,1.8279,1.8208,1.8095,1.8106,1.8358,1.8683,1.924,2.0105,2.051,2.0666,2.0591,2.0618,2.0156,1.903,1.9222,1.9915,2.114,2.3416,2.5299,2.665,2.8888,3.0306,3.0796,3.1323,3.1587,3.1587,3.1587,3.1549,3.1486,3.1486,3.1449,3.1386,3.1386,3.1085,3.057,3.008,2.9359,2.8323,2.6178,2.5849,2.6323,2.4233,2.328,2.2978,2.2538,0.0,0.0,0.0,0.0,0.0,0.0,0.0,0.0,0.0,0.0,0.0,0.0,0.0,0.0,0.0,0.0,0.0,0.0,0.0,0.0,0.0,0.0,0.0,0.0,2.1737,2.2312,2.2807,2.2168,2.1909,2.2484,2.2578,2.2578,2.2578,2.2877,2.2789,2.209,2.2373,2.2578,2.2578,0.0,0.0,0.0,0.0,2.3091,2.3091,2.2773,2.2578,2.2578,2.1726,2.1307,2.1259,2.084,2.0654,2.0605,2.0546,2.0244,1.9814,1.9385,1.8955,1.849,1.812,1.7978,1.7842,1.7214,1.6516,1.5916,2.0005,1.9683,1.9302,1.8969,1.8572,1.8279,1.8208,1.8095,1.8099,1.8363,1.8696,1.924,2.0105,2.051,2.0503,2.0012,2.0064,1.9915,1.9429,2.0036,2.0991,2.2301,2.5326,2.7237,2.777,3.0382,3.18,3.1901,3.2466,3.2797,3.2797,3.2797,3.2503,3.2051,3.2051,3.18,3.1386,3.1386,3.1085,3.0608,3.0507,2.9555,2.8098,2.7198,2.6721,2.6467,2.5995,2.6063,2.6206,2.5099,2.4611,2.4154,2.2628,2.1666,0.0,0.0,0.0,0.0,0.0,0.0,0.0,0.0,0.0,0.0,0.0,0.0,0.0,0.0,0.0,0.0,0.0,0.0,0.0,2.134,2.2275,2.2886,2.2621,2.2699,2.2863,2.2988,2.2974,2.2974,2.2974,2.3052,2.3033,2.2867,2.2925,2.2974,2.2974,2.2974,2.3013,2.3091,2.3091,2.3091,2.3091,2.3013,2.2974,2.2974,0.0,0.0,2.1748,2.1309,2.0908,2.0586,2.0195,1.9795,1.9375,1.8909,1.8481,1.8125,1.8047,1.7803,1.7441,1.6956,1.6458,1.6009,1.9723,1.9398,1.9101,1.8917,1.8572,1.8279,1.8208,1.8095,1.814,1.8548,1.8565,1.8914,1.9854,1.9735,1.9573,1.951,1.9406,1.9581,2.0131,2.1119,2.2567,2.4526,2.6952,2.861,2.9352,3.1235,3.2215,3.2215,3.2792,3.3124,3.3124,3.3124,3.2918,3.2641,3.2641,3.2491,3.2227,3.2227,3.1913,3.1386,3.1122,3.0344,2.9302,2.875,2.836,2.8121,2.7795,2.7519,2.7153,2.627,2.5554,2.4855,2.3671,2.2758,2.1872,0.0,0.0,0.0,0.0,0.0,0.0,0.0,0.0,0.0,0.0,0.0,0.0,0.0,0.0,2.1334,2.1445,0.0,2.2684,2.2222,2.2897,2.3318,2.285,2.2964,2.3091,2.3091,2.3091,2.3091,2.3091,2.3091,2.3091,2.3091,2.3091,2.3091,2.3091,2.3091,2.3091,2.3091,2.3091,2.3091,2.3091,2.3091,2.3091,2.3091,2.2672,2.2295,2.1865,2.1395,2.0986,2.0595,2.0332,2.0,1.9551,1.887,1.8354,1.8008,1.8008,1.7754,1.7363,1.7139,1.6777,1.6338,1.945,1.9082,1.8817,1.8817,1.8553,1.8299,1.8228,1.8115,1.8201,1.8682,1.843,1.8529,1.9415,1.8894,1.8625,1.8921,1.868,1.918,2.0752,2.2089,2.3923,2.6373,2.826,2.959,3.0444,3.1725,3.2328,3.2215,3.2792,3.3124,3.3124,3.3124,3.3124,3.3111,3.2998,3.2918,3.2918,3.2918,3.2579,3.2014,3.1574,3.1085,3.0557,3.0005,2.9792,2.9716,2.9139,2.8285,2.7379,2.6713,2.5908,2.5021,2.4368,2.3662,2.2898,2.1872,2.1134,0.0,0.0,0.0,0.0,0.0,0.0,0.0,0.0,2.0736,2.0982,2.167,2.2273,2.2769,2.2891,2.3631,2.3942,2.3173,2.3495,2.3662,2.3173,2.3091,2.3091,2.3091,2.3091,2.3091,2.3091,2.3091,2.3091,2.3091,2.3091,2.3091,2.3091,2.3091,2.3091,2.3091,2.3091,2.3091,2.3091,2.3091,2.3091,2.3091,2.275,2.2412,2.1992,2.1562,2.1113,2.0723,2.0556,2.0195,1.9736,1.9043,1.8564,1.8262,1.8262,1.8047,1.7725,1.7471,1.7158,1.6797,1.9413,1.8946,1.8542,1.8542,1.8517,1.8425,1.8319,1.8234,1.8255,1.8507,1.8352,1.8363,1.8776,1.8639,1.8388,1.8074,1.7894,1.871,2.0846,2.2404,2.421,2.6399,2.9013,3.0256,2.9892,3.1913,3.2729,3.2215,3.2792,3.3124,3.3124,3.3124,3.3124,3.3099,3.2541,3.2303,3.2303,3.2303,3.1989,3.1474,3.1411,3.1085,3.0557,3.0005,2.9792,2.9716,2.9139,2.8536,2.7858,2.6851,2.6411,2.6135,2.5059,2.4644,2.4255,2.2575,2.1638,2.0875,1.98,1.9605,1.9806,2.0314,2.0486,2.1026,0.0,2.2562,2.2201,2.3444,2.3169,2.2841,2.3324,2.3847,2.4054,2.366,2.4041,2.4104,2.3212,2.3091,2.3091,2.3091,2.3091,2.3091,2.3091,2.3091,2.3091,2.3091,2.3091,2.3091,2.3091,2.3091,2.3091,2.3091,2.3091,2.3091,2.3091,2.3091,2.3091,2.3091,2.3052,2.2808,2.2432,2.2002,2.1572,2.1073,2.0332,1.9746,1.9346,1.9248,1.9189,1.9141,1.9141,1.9111,1.8936,1.7836,1.7353,1.7246,1.9731,1.9143,1.8721,1.8721,1.86,1.8445,1.8319,1.8234,1.8192,1.8221,1.7959,1.7953,1.8371,1.8257,1.797,1.7518,1.798,1.918,2.1331,2.3225,2.5075,2.6889,2.9302,3.0357,2.9804,3.1311,3.2139,3.2215,3.2453,3.2754,3.3124,3.3124,3.3124,3.3111,3.283,3.2717,3.2717,3.2717,3.2579,3.2315,3.165,3.126,3.0896,2.939,2.8612,2.8297,2.7826,2.6924,0.0,2.502,2.4754,2.4697,2.4412,2.418,2.3786,2.2894,2.2137,2.142,2.0613,2.0392,2.0507,2.0916,2.1206,2.1714,2.2875,2.301,2.3105,2.3944,2.4056,2.4039,2.4099,2.425,2.4148,2.3466,2.3527,2.356,2.3178,2.3091,2.3003,2.276,2.2945,2.3091,2.3091,2.3091,2.3091,2.3091,2.3091,2.3091,2.3091,2.3091,2.3091,2.3091,2.3091,2.3091,2.3091,2.3091,2.3091,2.3091,2.3091,2.2877,2.25,2.208,2.1504,2.083,2.0459,2.0049,1.9648,1.9648,1.9512,1.9287,1.9287,1.9287,1.9189,1.8408,1.8115,1.8018,1.9914,1.9314,1.8898,1.8898,1.8678,1.8478,1.8372,1.8268,1.8169,1.8075,1.776,1.7669,1.7945,1.7826,1.757,1.7238,1.7969,1.9304,2.1229,2.306,2.4898,2.6763,2.8662,2.9729,2.9792,3.0846,3.1662,3.2215,3.2378,3.2667,3.3124,3.3124,3.3124,3.3111,3.2918,3.283,3.283,3.283,3.2754,3.2583,3.1712,3.1122,3.0495,2.8599,2.719,2.6202,2.6117,2.5116,2.3717,2.3092,2.285,2.2881,2.3275,2.3073,2.2683,2.2686,2.2197,2.1544,2.1098,2.1119,2.133,2.1523,2.21,2.2739,2.3349,2.361,2.3913,2.4516,2.4536,2.4378,2.418,2.4112,2.3897,2.3222,2.3198,2.3227,2.311,2.3091,2.2945,2.2568,2.2676,2.2789,2.2916,2.3023,2.3091,2.3091,2.3091,2.3149,2.331,2.3159,2.3149,2.3276,2.3159,2.3091,2.3091,2.3091,2.3091,2.3091,2.3091,2.2935,2.2676,2.2246,2.1641,2.0967,2.0967,2.0752,2.0449,2.0332,2.0166,1.999,1.9873,1.9824,1.9775,1.9336,1.9014,1.8695,1.9839,1.9314,1.8898,1.8898,1.8678,1.8498,1.8498,1.8341,1.8202,1.8189,1.7902,1.7631,1.7438,1.73,1.7212,1.7199,1.7627,1.8603,2.0143,2.121,2.2942,2.5536,2.6753,2.8134,2.9754,3.0846,3.1662,3.2215,3.278,3.3056,3.3124,3.3124,3.3124,3.3056,3.2491,3.224,3.224,3.224,3.1938,3.1436,3.1399,3.0432,2.885,2.7745,2.5678,2.3495,2.4144,2.358,2.2423,2.1565,2.1168,2.1178,2.1792,2.1466,2.1056,2.1891,2.1607,2.1012,2.0943,2.142,2.1997,2.2046,2.3069,2.4316,2.5276,2.4884,2.4554,2.5566,2.4372,2.3169,2.3135,2.3135,2.3135,2.3091,2.3496,2.3623,2.3149,2.3091,2.2945,2.2568,2.2168,2.209,0.0,2.2857,2.3091,2.3091,2.3091,2.3276,2.375,2.3369,2.3286,2.375,2.3359,2.3091,2.3091,2.3091,2.3091,2.3091,2.3091,2.3091,2.3062,2.2685,2.2256,2.1846,2.1846,2.1836,2.1787,2.1327,2.1435,2.1768,2.1307,2.1132,2.1083,2.0674,2.0018,1.9268,2.0383,1.9925,1.9563,1.9347,1.8993,1.8716,1.8537,1.8366,1.8254,1.8222,1.7902,0.0,0.0,0.0,0.0,0.0,1.7748,1.8513,1.9653,2.1051,2.2341,2.3498,2.5217,2.6427,2.6992,2.8097,2.9114,2.9991,3.0608,3.1085,3.1449,3.18,3.1951,3.1951,3.175,3.1675,3.1675,3.1675,3.1361,3.0809,3.0055,2.9202,2.8147,2.6038,2.421,2.2638,0.0,2.0746,2.0011,1.932,1.932,1.9726,2.0424,2.0342,2.0016,2.0089,2.0284,2.0434,2.0332,2.1036,2.1871,2.2288,2.2959,2.3671,2.4255,2.4173,2.3917,2.3669,2.2758,2.1942,2.1616,2.1557,2.1696,2.1991,2.2801,2.332,2.312,2.3389,2.331,2.2598,2.2637,0.0,0.0,0.0,0.0,2.3071,2.3408,2.3506,2.3315,2.3496,2.3506,2.3315,2.3169,2.3091,2.3091,2.3091,2.3091,2.3091,2.3091,2.2945,2.2715,2.2578,2.2285,2.1885,2.1885,2.1885,2.1875,2.1728,2.1758,2.1875,2.1728,2.167,2.1611,2.1172,2.083,2.0459,0.0,2.0757,2.0234,1.989,1.9307,0.0,0.0,0.0,0.0,0.0,0.0,0.0,0.0,0.0,0.0,0.0,0.0,1.8157,1.8898,2.009,2.1025,2.1652,2.3124,2.4318,2.5113,2.5812,2.6798,2.8119,2.846,2.8787,2.9139,2.9478,2.9729,2.9917,2.9917,3.003,3.0218,3.0218,2.9792,2.9051,2.8158,2.7102,2.5879,2.3829,2.2267,0.0,1.9557,1.8725,1.8248,1.7891,1.823,1.8827,1.9258,1.9599,1.9725,1.9267,1.9911,2.0831,2.1019,2.1704,2.2482,2.3034,2.3408,2.3722,2.4153,2.4004,2.3595,2.2904,2.2077,2.1323,2.069,2.0582,2.072,2.1204,2.2077,2.2812,2.3062,2.3252,2.3184,2.2783,2.2672,2.2705,0.0,0.0,0.0,2.3062,2.3545,2.373,2.3559,2.3867,2.3887,2.3559,2.3447,2.3257,2.3091,2.3091,2.3091,2.3091,2.3091,2.2955,2.2691,2.2691,2.2588,2.2334,2.2334,2.2334,2.2324,2.2168,2.2197,2.2314,2.2168,2.2109,2.206,2.1631,2.1327,2.1054,0.0,0.0,2.0955,0.0,0.0,0.0,0.0,0.0,0.0,0.0,0.0,0.0,0.0,0.0,0.0,0.0,0.0,0.0,1.7852,1.8377,1.9085,2.0054,2.0616,2.1918,2.4045,2.3999,2.476,2.646,2.6362,2.6319,2.6319,2.6345,2.66,2.7102,2.7102,2.7404,2.7846,2.7846,2.7266,2.6269,2.5802,2.433,2.2306,2.1317,2.0014,1.8678,1.8154,1.7661,1.7311,1.7421,1.7956,1.8535,1.8361,1.9173,2.0047,1.9418,2.0471,2.199,2.276,2.3248,2.3677,2.4238,2.4414,2.4526,2.489,2.4335,2.3614,2.3156,2.215,2.1085,2.0254,2.0106,2.0264,2.07,2.1439,2.2207,2.3013,2.2808,2.2754,2.311,2.25,2.2334,2.3198,0.0,0.0,2.313,0.0,2.3994,2.4394,2.4443,2.4434,2.4385,2.4014,2.3603,2.3101,2.3091,2.3091,2.3091,2.3091,2.3091,2.3091,2.3091,2.3091,2.3091,2.3091,2.3091,2.3062,2.2705,2.2783,2.3052,2.2705,2.2549,2.249,2.207,2.165,2.12,0.0,0.0,0.0,0.0,0.0,0.0,0.0,0.0,0.0,0.0,0.0,0.0,0.0,0.0,0.0,0.0,0.0,0.0,1.7518,1.7883,1.8212,1.8487,1.9347,2.0271,2.1202,2.1582,2.2206,2.306,2.3475,2.3661,2.3674,2.4081,2.4347,2.4456,2.4456,2.4532,2.4671,2.4671,2.4265,2.3611,2.3056,2.2229,2.1291,2.0322,1.9702,1.9322,1.8806,1.8575,1.8457,1.839,1.8792,1.9213,1.8509,1.8951,1.9716,1.9601,2.0808,2.2234,2.2547,2.3367,2.422,2.4382,2.4414,2.4264,2.3786,2.3231,2.2513,2.1481,2.0205,1.9138,1.877,1.8844,1.9248,2.0195,2.1488,2.2646,2.3506,2.3799,2.3975,2.4082,2.3906,2.3857,2.4072,2.3994,0.0,0.0,2.4189,2.4307,2.4414,2.4727,2.4609,2.3975,2.415,2.3896,2.3101,2.3091,2.3091,2.3091,2.3091,2.3091,2.3091,2.3091,2.3091,2.3091,2.3091,2.3091,2.3091,2.2984,2.3003,2.3081,2.2974,2.2935,2.2886,2.251,2.2285,2.2129,0.0,0.0,0.0,0.0,0.0,0.0,0.0,0.0,0.0,0.0,0.0,0.0,0.0,0.0,0.0,0.0,0.0,0.0,0.0,1.7512,1.7596,1.7596,1.8144,1.8696,1.9276,1.9524,2.0014,2.0822,2.0847,2.0986,2.1243,2.1293,2.1444,2.1714,2.1714,2.1814,2.2056,2.2056,2.1752,0.0,0.0,2.0117,1.9551,1.8841,1.8718,1.89,1.8653,1.9058,1.9671,1.9242,1.9411,1.9772,1.95,1.9906,2.0517,2.078,2.1779,2.2932,2.3492,2.416,2.4697,2.4697,2.456,2.4092,2.2948,2.2382,2.1596,2.0019,1.8954,1.8207,1.7832,1.7985,1.8564,1.971,2.0899,2.2158,2.3584,2.3828,2.4062,2.4639,2.4531,2.4492,2.4687,2.4531,2.458,0.0,2.4814,2.4697,2.4697,2.5117,2.5049,2.4375,2.4394,2.3958,2.3101,2.3091,2.3091,2.3091,2.3091,2.3091,2.3091,2.3091,2.3091,2.3091,0.0,2.3091,2.3091,2.3091,2.3091,2.3091,2.3091,2.3091,2.3042,2.2666,2.251,2.2422,0.0,0.0,0.0,0.0,0.0,0.0,0.0,0.0,0.0,0.0,1.8242,1.8042,0.0,0.0,0.0,0.0,0.0,0.0,0.0,0.0,1.7298,1.7233,1.7285,1.7586,1.8087,1.7943,1.8358,1.94,1.8688,1.8603,1.9089,1.8554,1.8605,1.9092,1.9092,1.9374,1.9811,1.9887,1.9618,1.9091,1.8758,1.8296,1.7761,0.0,1.7617,1.8218,1.8366,1.9447,2.068,1.9947,1.9961,2.0357,2.0748,2.1222,2.1741,2.2259,2.2984,2.3846,2.4825,2.5165,2.5127,2.5057,2.4658,2.3912,2.2288,2.155,2.0698,1.8788,1.8142,1.7824,1.7411,1.765,1.8305,1.9545,2.0301,2.1515,2.3574,2.3545,2.3769,2.501,2.4824,2.4746,2.5117,2.4814,2.4912,2.5635,2.5371,2.5156,2.5156,2.5527,2.5557,2.5166,2.4678,2.4062,2.3266,2.3208,2.3149,2.3091,2.3091,2.3091,2.3091,2.3091,2.3091,2.3091,2.3091,2.3091,2.3091,2.3091,2.3091,2.3091,2.3091,2.3091,2.3052,2.2734,2.2598,2.249,0.0,0.0,0.0,0.0,0.0,0.0,0.0,0.0,0.0,0.0,1.8818,1.824,0.0,0.0,0.0,0.0,0.0,0.0,0.0,0.0,0.0,1.7376,1.7784,1.8044,1.81,1.7694,1.7773,1.8343,1.7735,1.7488,1.7579,1.7475,1.7488,1.7592,1.7592,1.7622,1.7752,1.8247,1.8117,1.7631,1.8044,1.7835,1.7321,1.7238,0.0,0.0,1.9768,2.0386,2.0742,2.0377,2.0754,2.1309,2.1171,2.1471,2.1981,2.2752,2.3555,2.4356,2.493,2.5342,2.5401,2.4717,2.4209,2.3394,2.147,2.0414,1.9472,1.8208,1.7447,1.7215,1.7909,1.8235,1.8939,2.0615,2.1328,2.2275,2.4053,2.4248,2.4551,2.546,2.5508,2.5489,2.5567,2.5508,0.0,0.0,2.5615,2.5625,2.5625,2.5645,2.5654,2.5577,2.4834,2.4346,2.4199,2.3848,2.3496,2.3091,2.3091,2.3091,2.3091,2.3091,2.3091,2.3091,2.3091,0.0,2.3091,2.3091,2.3091,2.3091,2.3091,2.3091,2.3081,2.3013,2.2984,2.2964,0.0,0.0,0.0,0.0,0.0,0.0,2.0291,2.0344,2.0474,2.0749,2.0122,1.9553,1.9266,1.8817,1.8625,0.0,0.0,0.0,0.0,0.0,0.0,0.0,0.0,0.0,1.8733,1.8513,1.8645,1.9182,0.0,1.8455,1.8755,1.8442,1.8297,1.8297,1.8218,1.8184,1.821,1.841,1.8349,1.8114,1.8401,1.8349,0.0,0.0,0.0,0.0,0.0,2.0578,2.0867,2.0547,2.0804,2.1268,2.1229,2.1795,2.2617,2.3027,2.375,2.4512,2.4951,2.54,2.5479,2.4639,2.4102,2.3193,2.0807,1.978,1.8874,1.7388,1.6816,1.6857,1.7676,1.8102,1.8771,2.0242,2.0967,2.1842,2.3344,2.3854,2.4414,2.5283,2.5547,2.5693,2.5693,2.5693,2.5693,2.5693,2.5693,2.5693,2.5693,2.5693,2.5586,2.54,2.498,2.4648,2.4414,2.4004,2.3682,2.3477,2.3198,2.3091,2.3091,2.3091,2.3091,2.3091,2.3091,0.0,2.3457,2.3188,2.3227,2.3457,2.3188,2.3091,2.3091,2.3091,2.3091,2.3062,0.0,0.0,0.0,0.0,0.0,0.0,2.1183,2.1145,2.1273,2.1814,2.1618,2.1289,2.0911,1.9893,1.9423,0.0,0.0,0.0,0.0,0.0,0.0,0.0,0.0,0.0,0.0,0.0,0.0,2.019,1.9594,0.0,0.0,0.0,0.0,0.0,1.9184,1.9125,1.9139,1.9179,1.9084,0.0,0.0,1.9061,0.0,0.0,0.0,0.0,0.0,2.0463,2.0787,2.0487,2.058,2.0807,2.0802,2.1637,2.267,2.2908,2.3521,2.4323,2.4949,2.5322,2.54,2.4609,2.3965,2.2879,2.0464,1.9444,1.8523,1.6854,1.6446,1.6655,1.7492,1.79,1.8504,1.9741,2.0404,2.1233,2.2599,2.3339,2.4049,2.4998,2.5469,2.5693,2.5693,2.5693,0.0,2.5693,2.5693,2.5693,2.5693,2.5693,2.5576,2.5225,2.5215,2.5,2.456,2.4131,2.3887,2.3779,2.3305,2.3091,2.3091,2.3091,2.3149,2.3237,2.3237,0.0,0.0,2.351,2.3564,2.375,2.3408,2.3179,2.3091,2.3091,2.3091,2.3052,0.0,0.0,0.0,0.0,0.0,0.0,2.1645,2.1834,2.2178,2.2712,2.3005,2.3134,2.3018,2.1254,2.0073,0.0,0.0,0.0,0.0,0.0,0.0,0.0,0.0,0.0,0.0,0.0,0.0,2.019,1.9594,0.0,0.0,0.0,0.0,0.0,0.0,1.9278,1.9318,1.9837,0.0,0.0,0.0,0.0,0.0,0.0,0.0,0.0,0.0,2.0233,2.0257,2.01,2.0058,2.0013,1.9624,2.0199,2.1165,2.1994,2.2791,2.3737,2.483,2.5145,2.5019,2.4531,2.3516,2.2232,2.0693,1.9424,1.824,1.7153,1.6663,1.6748,1.7828,1.8071,1.8606,2.0189,2.0504,2.1051,2.2601,2.3159,2.3831,2.4969,2.5469,2.5693,2.5693,2.5693,2.5693,2.5693,2.5693,2.5693,2.5693,2.5693,2.5674,2.5625,2.5625,2.5459,2.5057,2.458,2.417,2.3779,2.3305,2.3091,2.3091,2.3091,2.3315,2.373,2.373,0.0,0.0,2.4316,2.4092,2.3789,2.375,2.3486,2.3091,2.3091,2.3091,2.3091,0.0,0.0,0.0,0.0,0.0,0.0,2.237,2.2399,2.2805,2.3889,2.391,2.3803,2.3732,2.2767,2.2011,2.1761,2.1102,0.0,0.0,0.0,0.0,0.0,0.0,0.0,0.0,0.0,2.0745,2.0927,2.0698,0.0,0.0,0.0,0.0,0.0,0.0,0.0,2.0448,0.0,0.0,0.0,0.0,0.0,0.0,0.0,0.0,0.0,0.0,0.0,2.0424,1.9929,1.9634,1.9343,1.8689,1.868,1.9212,2.0567,2.1737,2.2801,2.3668,2.4287,2.457,2.415,2.3271,2.2144,2.0723,1.9424,1.8281,1.7564,1.7068,1.7079,1.809,1.8285,1.8582,1.952,1.9803,2.0242,2.1261,2.2096,2.3057,2.4186,2.4912,2.5439,0.0,0.0,2.5693,2.5693,2.5693,2.5693,2.5693,2.5693,2.5693,2.5693,2.5478,2.5381,2.5469,2.4521,2.4082,2.416,2.3422,2.3091,2.311,2.3408,2.3623,2.3799,2.4062,0.0,0.0,2.4521,2.4473,2.4512,2.3994,2.3682,2.3496,2.3188,2.3091,2.3091,0.0,0.0,0.0,0.0,0.0,2.2382,2.2855,2.2789,2.3199,2.4614,2.4508,2.4266,2.4193,2.3931,2.3638,2.3334,2.2409,0.0,0.0,0.0,0.0,0.0,0.0,0.0,0.0,0.0,2.1399,2.1399,2.1399,2.1399,0.0,0.0,0.0,0.0,0.0,0.0,0.0,0.0,0.0,0.0,0.0,0.0,0.0,0.0,0.0,0.0,0.0,0.0,0.0,0.0,0.0,1.8912,1.8383,1.7847,1.7719,1.9239,2.0579,2.1807,2.2689,2.3442,2.3965,2.3672,2.2904,2.1902,2.0711,1.946,1.8461,1.7987,1.7533,1.7451,1.8237,1.8414,1.8559,1.9025,1.9322,1.9722,2.0303,2.132,2.2342,2.326,0.0,2.4957,2.535,2.5586,2.5693,2.5693,2.5693,2.5693,2.5693,2.5693,2.5693,2.5693,2.543,2.542,2.5684,2.457,2.4189,2.46,2.374,2.3354,2.3481,2.3838,2.4043,2.4189,2.4482,0.0,0.0,2.4932,2.4834,2.4814,2.4209,2.3818,2.3555,2.3208,2.3091,2.3091,0.0,0.0,0.0,0.0,0.0,2.2992,2.2992,2.2936,2.3348,2.4634,2.4802,2.4726,2.4609,2.4589,2.4508,2.4302,2.3566,0.0,0.0,0.0,0.0,0.0,0.0,0.0,2.1399,2.1399,2.1399,2.1399,2.1399,2.1399,2.1399,2.1399,2.1399,2.1399,0.0,0.0,0.0,0.0,0.0,0.0,0.0,0.0,2.1021,0.0,0.0,0.0,0.0,0.0,0.0,0.0,0.0,0.0,0.0,1.7991,1.7027,1.8177,1.9424,2.0733,2.2134,2.2789,2.311,2.3101,2.2303,2.1323,2.0667,1.9611,1.8708,1.8442,1.803,1.7833,1.8299,1.8414,1.8559,1.9025,1.9322,1.9645,2.0058,2.109,2.194,0.0,2.3441,2.4271,2.4651,2.532,2.5693,2.5693,2.5693,0.0,2.5693,2.5693,2.5693,2.5693,2.5684,2.5684,2.5693,2.4853,2.4629,2.5096,2.4189,2.4004,2.4404,2.4414,2.4648,2.5106,0.0,0.0,0.0,2.5674,2.5157,2.4424,2.4414,2.3851,2.3101,2.3091,2.3091,2.3091,0.0,0.0,0.0,0.0,0.0,0.0,2.2936,2.2916,2.3386,2.4772,2.4926,2.4902,2.4746,2.4726,2.4666,2.4508,2.3931,0.0,0.0,0.0,0.0,0.0,0.0,0.0,2.1817,2.1793,2.1793,2.1793,2.1953,2.2034,2.2034,2.2034,2.2034,2.2007,2.1575,2.1399,0.0,0.0,0.0,0.0,0.0,2.1302,2.1277,0.0,0.0,0.0,0.0,0.0,0.0,0.0,0.0,0.0,0.0,0.0,0.0,1.7761,1.8522,1.944,2.0404,2.1183,2.1739,2.1739,2.1291,2.0727,2.0319,1.9493,1.88,1.8889,1.8528,1.8309,1.8797,1.8631,1.8608,1.9281,1.9168,1.9219,1.9792,2.0861,2.1849,2.2584,2.4146,2.5379,0.0,0.0,2.581,2.6162,2.5908,2.5693,2.5693,2.5693,2.5693,2.5693,2.5439,2.543,2.5684,2.4863,2.4639,2.5106,2.4492,2.4287,2.4424,2.4727,2.4941,0.0,0.0,0.0,0.0,2.5693,2.5391,2.4834,2.4531,2.4072,2.3545,2.3208,2.3091,2.3144,0.0,0.0,0.0,0.0,0.0,0.0,2.3385,2.333,2.3705,2.4863,2.5005,2.4982,2.4866,2.4882,2.4806,2.4686,2.4364,0.0,0.0,0.0,0.0,0.0,0.0,0.0,2.2194,2.218,2.2315,2.2555,2.2536,2.2654,2.2899,2.2899,2.2674,2.2291,2.2217,2.1904,0.0,0.0,0.0,0.0,2.1399,2.1399,2.1399,0.0,0.0,0.0,0.0,0.0,0.0,0.0,0.0,0.0,0.0,0.0,0.0,0.0,1.8621,1.9058,1.9434,2.0186,2.0857,2.0857,2.0601,2.0269,1.9966,1.9363,1.8942,1.9075,1.887,1.8766,1.9056,1.887,1.8794,1.927,1.9243,1.9338,1.9858,2.0823,0.0,2.2925,2.4401,0.0,0.0,2.5801,2.5801,2.6123,2.5889,2.5693,2.5693,2.5693,2.5693,2.5693,2.5469,2.5449,2.5693,2.5019,2.4883,2.5312,2.4873,2.4746,2.4922,2.5195,2.5322,0.0,0.0,0.0,0.0,2.5557,2.5225,2.4775,2.4346,2.3916,2.3516,2.3198,2.3091,2.3144,0.0,0.0,0.0,0.0,0.0,0.0,0.0,2.4017,2.4176,2.4891,2.5005,2.5005,2.5005,2.5005,2.4962,2.4822,2.4802,0.0,0.0,0.0,0.0,0.0,0.0,2.2717,2.2558,2.2558,2.2867,2.3478,2.3146,2.3328,2.394,2.3968,2.3472,2.2553,2.3275,2.2812,2.1502,0.0,0.0,0.0,2.1453,2.1453,0.0,0.0,0.0,0.0,0.0,0.0,0.0,0.0,0.0,0.0,0.0,0.0,0.0,0.0,0.0,0.0,0.0,1.9736,2.039,2.039,2.0224,1.9941,1.9567,1.9284,0.0,1.9108,1.9108,1.9108,1.9108,1.9077,1.9077,1.9106,1.9514,1.9877,2.0114,2.0999,0.0,0.0,2.4246,0.0,2.5125,2.5488,2.5703,2.5732,2.5703,2.5693,2.5693,2.5693,2.5693,2.5693,2.5693,2.5693,2.5693,2.5322,2.5322,2.5684,2.5312,2.5332,2.5693,2.5693,2.5693,0.0,0.0,0.0,0.0,2.5254,2.4814,2.4375,2.3955,2.3525,2.3091,2.3135,2.3178,2.3266,0.0,0.0,0.0,0.0,0.0,0.0,0.0,0.0,0.0,0.0,2.5005,2.5005,2.5005,2.5005,2.4985,0.0,0.0,0.0,0.0,0.0,0.0,0.0,2.3824,2.3616,2.2979,2.3061,2.3134,2.319,2.3774,2.4134,2.4291,2.4824,2.4901,2.4654,2.4387,2.3645,2.2554,2.1759,0.0,0.0,2.2101,2.2101,0.0,0.0,0.0,0.0,2.1021,2.1125,0.0,0.0,0.0,0.0,0.0,0.0,0.0,0.0,1.9923,1.9387,1.9329,0.0,1.9414,1.9414,1.9366,1.9297,0.0,1.9147,1.9108,1.9108,1.9108,1.9108,1.9108,1.8818,1.8742,1.9319,1.9621,1.9952,2.0367,2.1899,0.0,2.3653,2.4744,2.5517,2.5566,2.5625,2.583,2.6211,2.5879,2.5693,2.5693,2.5693,2.5693,2.5693,2.5693,2.5693,2.5693,2.5635,2.5635,2.5693,2.5586,2.5586,2.5693,2.5693,2.5693,0.0,0.0,0.0,2.5654,2.5254,2.4814,2.4375,2.3955,2.3525,2.3135,2.3319,2.381,2.4382,0.0,0.0,0.0,0.0,0.0,0.0,0.0,0.0,0.0,0.0,2.5005,2.5005,2.5005,2.5005,2.5005,0.0,0.0,0.0,0.0,0.0,0.0,2.4063,2.4219,2.4051,2.3523,2.3581,2.3858,2.4327,2.4591,2.5036,2.5665,2.5962,2.5833,2.5377,2.4586,2.3906,2.332,2.2563,2.2415,2.27,2.27,0.0,0.0,0.0,0.0,0.0,2.1457,2.1308,0.0,2.1874,2.1855,2.1655,0.0,0.0,0.0,0.0,2.0878,2.0355,2.0158,1.9587,1.9142,1.9274,1.9198,1.9108,1.9175,1.9142,1.9108,1.9108,1.9108,1.9108,1.9108,1.9011,1.9078,1.9548,1.999,0.0,0.0,0.0,2.359,2.4049,2.4873,2.5508,0.0,2.5693,2.5791,2.6074,2.582,2.5693,2.5693,2.5693,2.5693,2.5693,2.5693,2.5693,2.5693,2.5693,2.5693,2.5693,2.5693,2.5693,2.5693,2.5693,2.5577,0.0,0.0,0.0,2.505,2.4658,2.4346,2.4082,2.3662,2.3305,2.3135,2.3406,2.4069,2.4787,0.0,0.0,0.0,0.0,0.0,0.0,0.0,0.0,0.0,0.0,0.0,0.0,0.0,0.0,0.0,0.0,0.0,0.0,0.0,0.0,2.4953,2.4826,2.4493,2.4286,2.4177,2.4177,2.4726,2.584,2.5533,2.5972,2.7077,2.7078,2.6597,2.5726,2.4677,2.4142,2.4014,2.3504,2.3322,2.3337,2.3256,0.0,0.0,0.0,0.0,0.0,0.0,0.0,0.0,2.2433,2.2218,2.1618,2.3038,0.0,0.0,0.0,0.0,0.0,2.121,2.0292,1.9557,1.9725,1.9506,1.9241,1.9374,1.9241,1.9108,1.9108,1.9108,1.9129,1.9158,1.9363,1.9637,1.9875,0.0,0.0,2.2529,2.3309,2.3915,2.4336,2.4863,0.0,2.5605,2.5645,2.5693,2.5693,2.5693,2.5693,2.5693,2.5693,2.5654,2.5586,2.5586,2.5557,2.5489,2.5615,2.5693,2.5693,2.5625,2.5586,2.5635,2.5518,2.5332,2.5018,0.0,0.0,2.4431,2.401,2.3834,2.3795,2.331,2.3222,2.3387,2.3493,2.4274,2.5368,0.0,0.0,0.0,0.0,0.0,0.0,0.0,0.0,0.0,0.0,0.0,0.0,0.0,0.0,0.0,0.0,0.0,0.0,0.0,2.5005,2.5234,2.5757,2.4983,2.4704,2.5007,2.5022,2.5323,2.5971,2.6462,2.6816,2.7028,2.7569,2.768,2.737,2.6212,2.5477,2.508,2.4161,2.3869,2.392,2.3418,0.0,0.0,0.0,0.0,0.0,0.0,0.0,0.0,2.2094,2.2465,2.284,2.3586,0.0,0.0,0.0,0.0,0.0,2.1987,2.1672,2.1151,2.0585,2.0118,1.9769,1.9802,1.944,1.9108,1.9108,1.9108,1.9155,1.9411,1.9613,1.9877,2.0319,0.0,2.2742,0.0,0.0,2.4734,2.4443,0.0,2.5518,2.5205,2.5518,2.5693,2.5693,2.5693,2.5693,2.5693,2.5693,2.5566,2.5185,2.5166,2.499,2.4619,2.5313,2.5693,2.5684,2.5352,2.5166,2.5156,2.4785,2.458,2.4512,0.0,2.4815,2.4716,2.4226,2.4048,2.4009,2.3345,2.3671,2.4467,2.395,2.5389,2.7643,0.0,0.0,0.0,0.0,0.0,0.0,0.0,0.0,0.0,0.0,0.0,0.0,0.0,0.0,0.0,0.0,0.0,0.0,0.0,2.5555,2.5851,2.6562,2.611,2.5851,2.5901,2.5881,2.6114,2.6634,2.6954,2.7265,2.7534,2.7779,2.7675,2.7302,2.6813,2.6323,2.584,2.5163,2.4925,2.4929,0.0,0.0,0.0,0.0,0.0,0.0,0.0,0.0,0.0,0.0,2.3078,2.3186,2.3596,0.0,0.0,0.0,0.0,0.0,2.2787,2.2516,2.2087,2.1622,2.0986,2.052,2.0622,2.0041,1.9498,1.9637,1.9637,1.977,2.0124,2.041,2.0845,2.1779,0.0,2.3226,2.402,2.4359,2.4611,0.0,0.0,2.5391,2.543,2.5567,2.5693,2.5693,2.5693,2.5693,2.5693,2.5693,2.5527,2.5135,2.5116,2.4863,2.4424,2.4824,2.5146,2.5371,2.4922,2.4834,2.5096,2.4619,2.4287,2.4082,0.0,2.4556,2.4747,2.4169,2.421,2.4551,2.3771,2.4102,2.5041,2.5839,2.7035,2.8398,0.0,0.0,0.0,0.0,0.0,0.0,0.0,0.0,0.0,0.0,0.0,0.0,0.0,0.0,0.0,0.0,0.0,0.0,0.0,2.6261,2.6577,2.7304,2.7211,2.7027,2.6818,2.6731,2.6972,2.754,2.7493,2.7697,2.8094,2.793,2.76,2.7148,2.724,2.689,2.6283,2.586,2.5533,2.5273,0.0,0.0,0.0,0.0,0.0,0.0,0.0,0.0,0.0,0.0,0.0,0.0,0.0,0.0,0.0,2.373,2.3378,2.3113,2.339,2.3226,2.2967,2.2839,2.2026,2.1315,2.1539,2.0993,2.0534,2.0886,2.0814,2.0782,2.1133,2.1326,0.0,2.2935,2.3262,2.3672,2.446,2.4513,2.4667,2.5194,2.5225,2.5361,2.5654,2.5693,2.5693,2.5693,2.5693,2.5645,2.5538,2.5586,2.5418,2.5102,2.4906,2.47,2.452,2.4303,2.4431,2.4912,2.4473,2.4582,2.5156,2.45,2.4161,2.4102,2.4323,2.4625,2.4925,2.4616,2.4904,2.542,2.4488,2.4563,2.5462,2.7683,2.849,2.8621,0.0,0.0,0.0,0.0,0.0,0.0,0.0,0.0,0.0,0.0,0.0,0.0,0.0,0.0,0.0,0.0,0.0,0.0,2.702,2.702,2.732,2.8,2.7897,2.783,2.7807,2.7603,2.7853,2.8511,2.8367,2.8326,2.8363,2.8103,2.7955,2.793,2.779,2.7203,2.6281,2.5813,2.5061,2.4164,2.3554,0.0,0.0,0.0,0.0,0.0,0.0,0.0,0.0,0.0,0.0,0.0,0.0,0.0,2.3891,2.3891,2.373,2.3556,2.3569,2.3831,2.4117,2.4305,2.3187,2.209,2.2426,2.2418,2.2547,2.3349,2.287,2.2334,2.2366,2.2234,2.2325,2.3,2.3782,2.4499,2.4998,0.0,2.5615,2.5635,2.5635,2.5654,2.5684,2.5693,2.5693,2.5693,2.5693,2.5557,2.5137,2.5117,2.5136,2.5108,2.4317,2.4196,2.4763,2.3964,2.3875,2.4463,2.4033,2.4366,2.5332,2.4122,2.4107,2.5009,2.5274,2.5432,2.5526,2.6276,2.6607,2.6565,2.542,2.5179,2.5819,2.8621,2.917,2.8621,0.0,0.0,0.0,0.0,0.0,0.0,0.0,0.0,0.0,0.0,0.0,0.0,0.0,0.0,0.0,0.0,0.0,0.0,2.7683,2.7715,2.8015,2.8688,2.8674,2.8651,2.8651,2.8373,2.8349,2.8597,2.8381,2.8275,2.8259,2.8162,2.8054,2.788,2.7905,2.7839,2.7648,2.6529,2.6062,2.5979,2.4792,2.4448,0.0,0.0,0.0,0.0,0.0,0.0,0.0,0.0,2.3846,2.3796,2.4018,2.4008,2.392,2.4008,2.3907,2.3802,2.3802,2.4051,2.4248,2.4006,2.3876,2.3814,2.3982,2.3628,2.3487,2.4248,2.4415,2.4253,2.3619,2.3094,2.2929,2.343,2.4019,2.457,2.501,2.5215,2.543,2.5654,2.5488,2.543,2.5664,2.5693,2.5781,2.5965,2.5661,2.5482,2.5372,2.5189,2.5108,2.5093,2.5073,2.4987,2.4797,2.5158,2.52,2.4844,2.4152,2.4466,2.561,2.4857,2.501,2.5964,2.6235,2.6637,2.7116,2.7017,2.7354,2.7799,2.7371,2.7302,2.7557,2.9209,2.9585,2.9378,0.0,0.0,0.0,0.0,0.0,0.0,0.0,0.0,0.0,0.0,0.0,0.0,0.0,0.0,0.0,0.0,0.0,0.0,2.8395,2.8426,2.8537,2.8767,2.8783,2.8783,2.8783,2.8482,2.8427,2.866,2.8381,2.8259,2.8259,2.821,2.821,2.8183,2.8107,2.8289,2.8592,2.6897,2.6419,2.6677,2.5273,2.4734,0.0,0.0,0.0,0.0,0.0,0.0,0.0,0.0,2.4203,2.4083,2.4083,2.4037,2.3979,2.4054,2.4125,2.4162,2.4162,2.4283,2.4348,2.4181,2.4391,2.4815,2.5394,2.5182,2.5143,2.6018,2.624,2.5768,2.4204,2.3677,0.0,0.0,2.4063,2.4414,2.5037,2.4951,2.498,2.5235,2.5096,2.5132,2.5388,2.5466,2.5599,2.5779,2.5491,2.5272,2.5189,2.5037,2.5084,2.5507,2.5572,2.5669,2.583,2.6359,2.6307,2.5714,2.5115,2.5445,2.6479,2.5602,2.5922,2.7139,2.7261,2.7666,2.8227,2.8051,2.8171,2.8542,2.8791,2.8752,2.8633,2.9495,2.9792,2.9792,0.0,0.0,0.0,0.0,0.0,0.0,0.0,0.0,2.8074,2.8539,2.9356,0.0,0.0,0.0,0.0,0.0,0.0,0.0,2.9098,2.9098,2.8783,2.811,2.8094,2.8094,2.8094,2.7832,2.8077,2.8794,2.8532,2.8411,2.8411,2.8275,2.8478,2.8981,2.8442,2.8464,2.8788,2.6745,2.5825,2.5604,2.4546,2.4109,2.4164,0.0,0.0,0.0,0.0,0.0,0.0,0.0,2.4203,2.4083,2.4083,2.4083,2.4083,2.4083,2.4368,2.4701,2.4701,2.4535,2.4556,2.5149,2.4859,2.4857,2.6525,2.7172,2.776,2.902,2.8373,2.6764,2.4046,2.3903,0.0,2.4122,2.3969,2.4137,2.4988,2.4687,2.4414,2.4414,2.4644,2.4792,2.4802,2.4975,2.5113,2.5113,2.5103,2.4922,2.4535,2.4549,2.5138,2.6453,2.563,2.6088,2.8091,2.7273,2.6935,2.711,2.711,2.7464,2.8056,2.6307,2.6607,2.8502,2.8502,2.8502,2.8581,2.9456,2.9287,2.8581,2.9456,2.9248,2.8633,2.9495,2.9792,2.9792,0.0,0.0,0.0,0.0,0.0,0.0,0.0,0.0,2.8563,2.8587,2.9269,0.0,0.0,0.0,0.0,0.0,0.0,0.0,2.8426,2.841,2.8094,2.7431,2.7841,2.805,2.796,2.8202,2.8395,2.8532,2.8913,2.8873,2.8411,2.875,2.8921,2.8996,2.8824,2.8794,2.8775,2.7102,2.6372,2.6246,2.5161,2.4747,2.4761,0.0,0.0,0.0,0.0,0.0,0.0,0.0,0.0,0.0,2.4083,2.4083,2.4083,2.4083,2.4184,2.4255,2.4166,2.4474,2.4925,2.5394,2.5768,2.6322,2.7415,2.7589,2.7784,2.8614,2.8066,2.7024,2.5793,2.5454,0.0,2.5817,2.553,2.538,2.5645,2.4685,2.4127,2.4625,2.4479,2.4716,2.5823,2.5412,2.5684,2.7117,2.6331,2.6042,2.6605,2.6435,2.6681,2.7395,2.7464,2.7678,2.8103,2.8633,2.8633,2.8091,2.8091,2.8211,2.8359,2.7839,2.8251,2.9417,2.9417,2.9417,2.9417,2.9702,2.9663,2.9456,2.9714,2.9624,2.9456,2.9714,2.9792,2.9792,0.0,0.0,0.0,0.0,0.0,0.0,0.0,0.0,2.8924,2.9027,2.9424,2.963,0.0,0.0,0.0,0.0,0.0,0.0,2.7747,2.7699,2.7525,2.713,2.7494,2.7759,2.7893,2.8879,2.9082,2.8411,2.8762,2.8584,2.7939,2.8727,2.9194,2.9316,2.9186,2.9185,2.9169,2.7425,2.6797,2.6858,2.579,2.5358,2.5358,0.0,0.0,0.0,0.0,0.0,0.0,0.0,0.0,0.0,2.4083,2.4083,2.4135,2.4298,2.4459,2.4641,2.4921,2.5281,2.5749,2.6311,2.6763,2.7238,2.8112,2.8463,2.8697,2.9143,2.8971,2.8334,2.701,2.6758,0.0,2.6335,2.5827,2.5474,2.5441,2.4818,2.448,2.4886,2.5057,2.556,2.6487,2.6172,2.639,2.7623,2.695,2.6752,2.7307,2.7188,2.7395,2.8051,2.8127,2.8364,2.8752,2.9232,2.9322,2.9,2.9,2.9,2.9,2.8673,2.8961,2.9792,2.9792,2.9666,2.9453,2.9453,2.9453,2.9453,2.9453,2.9591,2.9792,2.9792,2.9792,2.9767,0.0,0.0,2.8942,2.9046,0.0,0.0,0.0,0.0,2.9231,2.9639,2.9697,2.9592,0.0,0.0,0.0,0.0,0.0,0.0,0.0,2.7162,2.7162,2.7099,2.7267,2.758,2.8081,2.9688,2.9784,2.8304,2.8266,2.7972,2.7391,2.8556,2.9331,2.9808,2.9449,2.945,2.9537,2.7561,2.6955,2.7272,2.628,2.5928,2.5968,2.5914,0.0,0.0,0.0,0.0,0.0,0.0,0.0,0.0,2.4083,2.4083,2.4158,2.4542,2.4957,2.548,2.6362,2.6586,2.6779,2.7603,2.773,2.7863,2.8724,2.952,3.0066,3.006,3.0408,3.0024,2.7832,2.7786,2.766,2.6335,2.5568,2.5143,2.5148,2.519,2.5241,2.5252,2.6182,2.6853,2.6935,2.7028,2.7191,2.7313,2.7273,2.7273,2.7354,2.7354,2.7695,2.8509,2.7987,2.835,2.9628,2.9114,2.9114,2.9641,2.9641,2.9641,2.9602,2.8863,2.8966,2.9716,2.9716,2.9415,2.8888,2.8838,2.8813,2.8813,2.8813,2.9202,2.9716,2.9716,2.9716,2.9641,0.0,0.0,2.8816,2.8874,0.0,0.0,0.0,0.0,0.0,2.957,0.0,0.0,0.0,0.0,0.0,0.0,0.0,0.0,0.0,2.7589,2.7652,2.713,2.8572,2.943,2.9548,2.9704,2.9073,2.7541,2.8412,2.8753,2.8622,2.9312,2.9741,2.9935,2.945,2.8766,2.7933,2.663,2.6149,2.621,2.6,2.6185,2.6535,2.6077,2.5805,0.0,0.0,0.0,0.0,0.0,0.0,0.0,2.4083,2.4083,2.4109,2.421,2.4819,2.5504,2.5717,2.6493,2.7397,2.7836,2.8362,2.8919,2.953,2.9821,2.9794,2.9304,2.9124,2.8933,2.843,2.8531,2.8711,2.8786,2.8208,2.7763,2.777,2.6853,2.6265,2.6431,2.6648,2.7139,2.8051,2.7516,2.7689,2.9131,2.8593,2.8502,2.917,2.9209,2.909,2.881,2.8673,2.8575,2.8473,2.8348,2.8348,0.0,2.8473,2.8473,2.8486,2.8712,2.8912,2.9076,2.9076,2.9001,2.8863,2.8461,2.8285,2.8285,2.8285,2.8624,2.9076,2.9076,2.9076,2.9101,0.0,0.0,0.0,0.0,0.0,0.0,0.0,0.0,0.0,0.0,0.0,2.9396,2.9121,2.9098,0.0,0.0,2.8609,2.8205,0.0,2.7731,2.8214,2.8478,3.0002,3.0563,2.9922,2.9956,2.94,2.8222,2.8348,2.842,2.845,2.9376,2.9943,3.0213,2.9545,2.8727,2.7822,2.6783,2.6335,2.6335,2.6335,2.6701,2.7145,2.6475,2.6215,2.6051,2.5016,0.0,0.0,0.0,0.0,0.0,0.0,0.0,2.4187,2.4645,2.4931,2.5298,2.6204,2.6981,2.7698,2.8487,2.9047,2.9452,2.9633,2.9655,2.9644,2.9544,2.9564,2.9491,2.9159,2.9249,2.9279,2.9075,2.8661,2.8292,2.806,2.7707,2.7504,2.7597,2.7971,2.8462,2.904,2.8673,2.8791,2.9714,2.9378,2.9176,2.9352,2.9377,2.9114,2.8549,2.8285,2.8134,2.8109,2.7846,2.7846,2.8109,2.8109,2.7971,2.7733,2.8285,2.8536,2.8536,2.8536,2.8386,2.8122,2.7833,2.7708,2.7708,2.7708,2.8047,2.8536,2.8536,2.8536,2.8461,0.0,0.0,0.0,0.0,0.0,0.0,0.0,0.0,0.0,0.0,0.0,2.933,2.9295,2.9177,2.8925,0.0,0.0,0.0,2.7277,0.0,0.0,2.9916,3.1029,3.1093,2.9962,3.0149,2.991,2.9205,2.8404,2.8057,2.8182,2.9252,3.004,3.0517,2.9667,2.8921,2.8239,2.7242,2.6847,2.6955,2.6955,2.7294,2.7723,2.7049,2.6647,2.63,2.4997,2.4826,2.5094,2.4514,0.0,0.0,0.0,0.0,2.4396,2.5078,2.505,2.5189,2.6807,2.7503,2.8017,2.9186,2.965,2.974,2.9509,2.947,2.9594,2.9963,3.026,3.0266,2.9748,2.9735,2.9528,2.8709,2.8445,2.8246,2.7856,2.8353,2.8712,2.8712,2.9378,2.9792,2.9792,2.9792,2.9792,2.9792,2.9691,2.944,2.8913,2.88,2.8536,2.7984,2.7519,2.7457,2.7821,2.7469,2.7469,2.7821,2.7821,2.7582,2.719,2.7607,2.7871,2.7959,2.7959,2.7708,2.7268,2.718,2.7178,2.7178,2.7178,2.7482,2.7959,2.7959,2.7959,2.7896,0.0,0.0,0.0,0.0,0.0,0.0,0.0,0.0,0.0,0.0,2.9403,2.9619,3.0022,2.9485,2.9304,2.9872,2.9343,2.8626,2.7837,0.0,0.0,2.9795,3.0551,3.0803,3.0504,2.9983,2.9524,2.9205,2.8966,2.907,2.9527,2.9579,3.0032,3.072,2.9663,2.8916,2.8312,2.727,2.7091,2.7596,2.7596,2.7841,2.8177,2.7705,2.7041,2.6276,2.5714,2.5391,2.5189,2.508,2.5275,0.0,0.0,0.0,2.4809,2.4409,2.4793,2.5517,2.6107,2.7478,2.8875,2.9565,2.9792,2.9792,2.974,2.9753,2.9714,0.0,2.9396,2.9423,2.9775,2.9655,2.9401,2.9283,2.9454,2.9571,2.9477,2.9545,2.9624,2.9624,2.9714,2.9792,2.9792,2.9792,2.9792,2.9792,2.9327,2.8976,2.8888,2.8473,2.7959,2.7406,2.7318,2.7115,2.6713,2.7115,2.7115,2.6713,2.6713,2.6675,2.6612,2.6688,2.6977,2.7394,2.7394,2.7392,2.7278,2.6801,2.66,2.66,2.66,2.6939,2.7394,2.7394,2.7394,2.7381,0.0,0.0,0.0,0.0,0.0,0.0,0.0,0.0,0.0,0.0,0.0,2.9815,2.9595,2.9659,2.9651,2.9486,2.9179,2.899,2.8967,2.9145,2.9555,3.0223,3.0448,3.0356,2.9934,2.9641,2.9362,2.9109,2.9032,2.9407,3.0201,3.0535,3.0699,3.0763,2.9738,2.894,2.8346,2.7636,2.7474,2.7705,2.7705,2.8069,2.8552,2.7726,2.744,2.7347,2.6157,2.5647,2.5538,2.5538,2.5214,2.4905,2.5328,0.0,0.0,0.0,2.4653,2.4935,2.5852,2.7478,2.895,2.9252,2.9553,2.9792,2.9792,2.9792,2.9753,2.965,2.9534,2.953,2.9584,2.9605,2.9611,2.9611,2.9702,2.9792,2.9792,2.9792,2.9792,2.9792,2.9792,2.9792,2.9792,2.9792,2.9654,2.934,2.9038,2.8624,2.8047,2.777,2.7394,2.6876,2.6851,2.6738,2.6499,2.6738,2.6738,2.6499,2.6499,2.6499,2.6499,2.6499,2.6625,2.6851,2.6851,2.6851,2.6839,2.66,2.6499,2.6499,2.6499,2.6637,2.6851,2.6851,2.6851,2.6851,0.0,0.0,0.0,0.0,0.0,0.0,0.0,0.0,0.0,0.0,0.0,2.9927,2.9383,0.0,0.0,0.0,2.8983,2.9061,2.9457,2.9381,2.9515,3.0026,2.9955,2.9648,2.9156,2.9166,2.9066,2.8865,2.8956,2.9452,3.0393,3.0956,3.1027,3.0598,2.9995,2.9324,2.8597,2.8142,2.7904,2.7872,2.7971,2.8304,2.8709,2.7987,2.7939,2.8057,2.6713,2.6192,2.6134,2.6054,2.5532,2.5049,2.561,2.5206,0.0,0.0,0.0,2.4498,2.5646,2.7049,2.8294,2.8649,2.9076,2.9478,2.9729,2.9792,2.9792,0.0,2.9792,2.974,2.956,2.9663,2.9792,2.9792,2.9792,2.9792,2.9792,2.9792,2.9792,2.9792,2.9792,2.9792,2.9792,2.9792,2.9553,2.8938,2.8762,2.8298,2.7331,2.719,2.6927,2.6512,2.6499,2.6499,2.6499,2.6499,2.6562,2.67,2.6562,2.6499,2.6499,2.6499,2.6499,2.6499,2.6499,2.6499,2.6499,2.6499,2.6499,2.6499,2.6499,2.6499,2.6499,2.6499,2.6499,2.6499,0.0,0.0,0.0,0.0,0.0,0.0,0.0,0.0,0.0,0.0,0.0,2.9988,2.9956,2.9866,2.9793,2.9755,2.9177,2.8747,2.8683,2.8539,2.8473,2.8504,2.8519,0.0,2.8458,2.8458,2.8458,2.8433,2.8804,2.9345,3.0042,3.0378,3.0395,3.0158,3.0683,3.027,2.9223,2.8757,2.8436,2.83,2.8692,2.8667,2.8477,2.8922,2.8572,2.778,2.7499,2.7298,2.7095,2.6772,2.6948,2.7137,2.6119,2.5754,2.5493,0.0,0.0,0.0,2.5355,2.5871,2.6569,2.7984,2.8342,2.8645,2.9579,2.9792,2.9792,2.9792,2.9792,2.9792,2.9792,2.9792,2.9792,2.9792,2.9792,2.9792,2.9792,2.9792,2.9792,2.9792,2.9792,2.9792,2.9792,2.9792,2.9553,2.8938,2.8448,2.7896,2.7318,2.6826,2.6524,2.6499,2.6499,2.6499,2.6499,2.6499,2.6763,2.7231,2.6738,2.6499,2.6499,2.6499,2.6499,2.6499,2.6499,2.6499,2.6499,2.6499,2.6499,2.6499,2.6499,2.6499,2.6499,2.6499,2.6499,2.6499,0.0,0.0,0.0,0.0,0.0,0.0,0.0,0.0,0.0,0.0,0.0,0.0,0.0,2.9552,2.9581,2.9073,2.8728,2.8517,2.8468,2.8436,2.8411,2.8411,2.8411,2.8411,2.8411,2.8411,2.8348,2.8259,2.9174,2.9728,2.9894,3.1191,3.1323,3.0553,3.045,2.9771,2.8675,2.8605,2.8425,2.8218,2.8705,2.8828,2.8727,2.8922,2.8888,2.8662,2.8338,2.7782,2.7255,2.7517,2.7084,2.6328,2.5923,2.5563,2.5118,2.4347,2.4381,2.4753,2.4934,2.5544,2.6228,2.6659,2.7288,2.7938,2.8573,2.8988,2.934,2.9716,2.9792,2.9792,2.9792,2.9792,2.9792,2.9792,2.9792,2.9792,2.9792,2.9792,2.9654,2.9289,2.9239,2.9101,2.875,2.8712,2.8473,2.7921,2.7695,2.7344,2.6813,2.66,2.6499,2.6499,2.6499,2.6499,2.6499,2.6499,2.66,2.6788,2.6587,2.6499,2.6499,2.6499,2.6499,2.6499,2.6499,2.6499,2.6499,2.6499,2.6499,2.6499,2.6499,2.6499,2.6499,2.6499,2.6499,2.6499,0.0,0.0,0.0,2.892,0.0,2.8771,2.8747,2.8771,2.8771,2.8747,0.0,0.0,0.0,0.0,2.994,2.8958,2.8583,2.8411,2.8411,2.8411,2.8504,2.8735,2.875,2.8842,2.9073,2.8858,2.8686,2.8596,2.9576,3.0008,2.9894,3.1518,3.1738,3.0777,3.0297,2.956,2.8643,2.8605,2.8406,2.8146,2.8749,2.8861,2.8673,2.9145,2.9245,2.9149,2.8965,0.0,0.0,0.0,0.0,2.6661,2.6167,2.5397,2.4609,2.423,2.4298,2.452,2.452,2.496,2.5492,2.5703,2.6289,2.7023,2.775,2.8182,2.8624,2.9352,2.9503,2.9566,2.9754,2.9792,2.9792,2.9792,2.9628,2.9566,2.9767,2.9465,2.9151,2.8913,2.8725,2.8511,2.8134,2.8109,2.7871,2.7318,2.7281,0.0,2.6524,2.6499,2.6499,2.6499,2.6499,2.6499,2.6499,2.6499,2.6499,2.6499,2.6499,2.6499,2.6499,2.6499,2.6499,2.6499,2.6499,2.6499,2.6499,2.6499,2.6499,2.6499,2.6499,2.6499,2.6499,2.6499,2.6499,2.6499,2.9259,2.9014,2.8834,2.8905,2.8881,2.8809,2.8659,2.8746,2.8809,2.8659,0.0,0.0,0.0,0.0,0.0,2.9525,2.8818,2.8458,2.8427,2.8458,2.875,2.9356,2.9417,2.9725,3.0386,2.9756,2.9417,2.9417,2.995,3.0155,3.0042,3.1237,3.1438,3.0748,3.0283,2.978,2.9251,2.8798,2.8392,2.8153,2.8882,2.8768,2.826,2.9591,2.972,2.9238,2.9437,2.9387,0.0,2.8747,0.0,2.8331,2.6858,2.5356,2.4122,2.4122,2.4096,2.4083,0.0,0.0,0.0,2.5262,2.5503,2.5859,2.7154,2.7478,2.7736,2.8662,2.8863,2.9051,2.9641,2.9767,2.9779,2.9767,2.9315,2.9101,2.9691,2.8825,2.8323,2.8787,2.8411,2.8072,2.8059,2.8059,2.7833,2.7341,2.7291,2.7065,2.6524,2.6499,2.6499,2.6499,2.6499,2.6499,2.6499,2.6499,2.6499,2.6499,2.6499,2.6499,2.6499,2.6499,2.6499,2.6499,2.6499,2.6499,2.6499,2.6499,2.6499,2.6499,2.6499,2.6499,2.6499,2.6499,2.6499,2.6499,2.8873,2.9129,2.9341,2.9292,2.966,2.9934,2.9909,2.9934,2.9934,0.0,0.0,0.0,3.0217,3.0474,3.0525,3.0156,2.994,2.9633,2.9166,2.9571,2.971,2.9402,2.9848,3.0202,3.0402,3.0124,2.9965,2.9965,3.0521,3.064,3.0381,3.1364,3.1256,3.0263,2.9533,2.9054,2.8775,2.8498,2.8118,2.7728,2.8651,2.8753,2.8574,2.9517,2.9768,2.963,0.0,2.9505,2.9187,0.0,2.8692,2.8053,2.696,2.5754,2.4756,2.4756,2.4439,2.4217,2.4622,0.0,0.0,0.0,0.0,0.0,2.6343,2.6718,2.7123,2.7761,2.8447,2.8813,2.8612,2.9239,2.9654,2.9239,2.939,2.9465,2.9202,2.8863,2.8461,2.7821,2.7607,2.7356,2.6989,2.6952,2.6889,0.0,2.6725,2.6663,2.6499,2.6499,2.6499,2.6499,2.6499,2.6499,2.6499,2.6499,2.6499,2.6499,2.6499,2.6499,2.6499,2.6499,2.6499,2.6499,2.6499,2.6499,2.6499,2.6499,2.6499,2.6499,2.6499,2.6499,2.6499,2.6499,2.6499,2.6499,2.905,2.9317,2.9564,2.9781,3.014,3.0402,3.0402,3.0402,3.0402,0.0,0.0,0.0,3.1213,3.0997,3.0828,3.0828,3.0555,3.0233,2.9833,3.0119,3.0262,3.014,3.047,3.0823,3.1137,3.0743,3.0563,3.0601,3.0879,3.0721,3.0233,3.1291,3.1102,2.9771,2.9174,2.8755,2.8421,2.7935,2.7682,2.7695,2.8581,2.8715,2.8495,2.953,2.9782,0.0,0.0,0.0,2.9467,2.9467,2.8789,2.788,2.7333,2.631,2.5328,2.5328,2.5092,2.4909,2.5236,2.5328,2.5375,2.5621,0.0,0.0,2.5993,2.6118,2.6375,2.7243,2.7868,2.821,2.8122,2.8649,2.8976,2.8599,2.8863,2.9051,2.8913,2.8499,2.8009,2.7356,2.7115,2.6851,2.6524,2.6499,2.6499,2.6499,2.6499,2.6499,2.6499,2.6499,2.6499,2.6499,2.6499,2.6499,2.6499,2.6499,2.6499,2.6499,2.6499,2.6499,2.6499,2.6499,2.6499,2.6499,2.6499,2.6499,2.6499,2.6499,2.6499,2.6499,2.6499,2.6499,2.6499,2.6499,2.6499,2.6499,0.0,2.9549,2.9694,3.0294,3.0525,3.0591,3.0617,3.0617,3.0617,0.0,3.1213,3.1813,3.2308,3.1921,3.1582,3.1505,3.0955,3.0586,3.0483,3.0466,3.0647,3.1167,3.1138,3.1457,3.2176,3.146,3.1156,3.1277,3.108,3.0628,2.9997,3.1138,3.0863,2.9453,2.9015,2.8651,2.8227,2.7273,2.7268,2.7907,2.8594,2.8599,2.8379,2.9704,2.9859,2.9477,2.9999,3.0075,2.9882,2.9793,2.9034,2.8116,2.793,2.702,2.6054,0.0,2.5884,2.5853,2.5884,2.5884,2.5897,2.5963,2.5589,0.0,2.5929,2.5685,2.564,2.6766,2.7075,2.7301,2.7693,2.7869,2.7932,2.7869,2.797,2.8185,2.8674,2.7896,2.7291,2.7241,2.6788,2.6499,2.6499,2.6499,2.6499,2.6499,2.6499,2.6499,2.6499,2.6499,2.6499,2.6499,2.6499,2.6499,2.6499,2.6499,2.6499,2.6499,2.6499,2.6499,2.6499,2.6499,2.6499,2.6499,2.6499,2.6499,2.6499,2.6499,2.6499,2.6499,2.6499,2.6499,2.6499,2.6499,2.6499,2.6499,2.9314,2.9843,3.0248,3.0371,3.1198,3.1891,3.1986,3.1903,3.1891,3.1986,3.2582,3.2831,3.2293,3.2711,3.2742,3.2093,3.2035,3.1728,3.1083,3.153,3.157,3.1065,3.1539,3.1944,3.2191,3.1832,3.1702,3.1855,3.117,3.0915,3.0992,3.0823,3.047,2.9907,2.8937,2.841,2.8227,2.7178,2.7229,2.8075,2.8502,2.8797,2.9119,3.0285,3.068,3.0564,3.0719,3.072,3.0556,2.963,2.9764,3.0073,2.8699,2.7971,0.0,2.6875,0.0,0.0,0.0,0.0,0.0,0.0,0.0,0.0,2.5952,2.5669,2.5414,2.5229,2.5825,2.6225,2.5926,2.6569,2.6994,2.6569,2.7119,2.7612,2.7618,2.7419,2.7153,2.6713,2.6562,2.6499,2.6499,2.6499,2.6499,2.6499,2.6499,2.6499,2.6499,2.6499,2.6499,2.6499,2.6499,2.6499,2.6499,2.6499,2.6499,2.6499,2.6499,2.6499,2.6499,2.6499,2.6499,2.6499,2.6499,2.6499,2.6499,2.6499,2.6499,2.6499,2.6499,2.6499,2.6499,2.6499,2.6499,2.6521,2.9235,2.9797,3.0326,3.062,3.1494,3.2122,3.2191,3.2135,3.2107,3.2191,3.2481,3.2545,3.2124,3.2468,3.2529,3.2153,3.2163,3.2025,3.1622,3.1536,3.148,3.1399,3.1313,3.1492,3.1981,3.1769,3.1712,3.1898,3.1048,3.0578,3.044,3.0494,3.0175,2.9571,2.913,2.8804,2.8637,2.7502,2.7459,2.8127,2.8469,2.8839,2.9338,3.0462,3.0895,3.097,3.1328,3.1489,3.1436,3.102,3.0863,0.0,3.0354,2.9528,2.866,0.0,2.7908,2.7404,0.0,0.0,0.0,2.7703,0.0,0.0,0.0,2.5849,2.5394,2.5073,2.5364,2.5627,2.5345,2.5723,2.6017,2.5736,2.6268,2.6692,2.6624,2.6999,2.7115,2.6562,2.6499,2.6499,2.6499,2.6499,2.6499,2.6499,2.6499,2.6499,2.6499,2.6499,2.6499,2.6499,2.6499,2.6499,2.6499,2.6499,2.6499,2.6499,2.6499,2.6499,2.6499,2.6499,2.6499,2.6499,2.6499,2.6499,2.6499,2.6499,2.6499,2.6499,2.6499,2.6499,2.6499,2.6499,2.6499,2.6521,2.9506,2.9905,3.0357,3.0904,3.1528,3.1968,3.1996,3.1968,3.1968,3.1996,3.2209,3.233,3.2165,3.2406,3.2513,3.2347,3.2332,3.2315,3.2122,3.1522,3.1392,3.1921,3.1132,3.1027,3.1769,3.1597,3.1537,3.1603,3.0876,3.0313,2.9968,3.0315,3.0131,2.9566,2.9682,2.9592,2.9261,2.8479,2.8311,2.8651,2.9073,2.9228,2.9358,3.059,3.1132,3.1316,3.2141,3.2434,3.2478,3.2398,3.1973,3.1461,3.1826,3.1026,0.0,0.0,0.0,0.0,0.0,0.0,0.0,0.0,0.0,2.7063,0.0,0.0,0.0,2.5368,0.0,0.0,0.0,0.0,0.0,0.0,0.0,0.0,0.0,2.6304,0.0,2.6524,2.6499,2.6499,2.6499,2.6499,2.6499,2.6499,2.6499,2.6499,2.6499,2.6499,2.6499,2.6499,2.6499,2.6499,2.6499,2.6499,2.6499,2.6499,2.6499,2.6499,2.6499,2.6521,2.6521,2.6499,2.6521,2.6521,2.6521,2.6521,2.6521,2.6521,2.6499,2.6499,2.6499,2.6521,2.6521,2.6568,3.0539,3.0828,3.0904,3.0995,3.146,3.187,3.1968,3.1898,3.187,3.1996,3.3029,3.347,3.2703,3.3834,3.4334,3.3563,3.3622,3.3365,3.2673,3.2538,3.2465,3.2422,3.175,3.1522,3.1784,3.1597,3.1297,3.0893,3.0636,3.0776,3.1271,3.0635,3.0636,3.1215,3.1139,3.0742,3.0201,3.061,3.0671,3.0554,3.1185,3.0616,0.0,3.1105,3.1986,3.2503,3.3308,3.3665,3.3585,0.0,3.2679,3.3589,0.0,3.1907,3.2263,3.1108,0.0,0.0,0.0,0.0,0.0,0.0,2.8026,0.0,0.0,0.0,2.668,2.5476,0.0,0.0,0.0,0.0,0.0,0.0,0.0,0.0,2.4124,2.4902,2.5784,2.642,2.6499,2.6499,2.6499,2.6499,2.6499,2.6499,2.6499,2.6499,2.6499,2.6499,2.6499,2.6499,2.6499,2.6499,2.6499,2.6499,2.6499,2.6499,2.6499,2.6499,2.6499,2.6624,2.6624,2.6499,2.6624,2.6692,2.6692,2.6692,2.6692,2.6692,2.6555,2.6499,2.6499,2.6624,2.6692,2.6726,2.9815,2.9957,3.0295,3.0656,3.1204,3.1626,3.1712,3.197,3.209,3.1757,3.2885,3.3562,3.3186,3.4104,3.4706,3.4731,3.4794,3.4509,3.3802,3.3021,3.2571,3.2512,3.1466,3.1149,3.1626,3.1539,3.139,3.1206,3.073,3.0657,3.0898,3.0557,3.0739,3.141,3.1721,3.1693,3.1421,3.1697,3.1584,3.1221,3.15,3.1411,0.0,3.2469,3.3363,3.3993,3.4451,3.4572,3.4447,0.0,3.4008,0.0,0.0,0.0,0.0,3.2143,0.0,0.0,0.0,0.0,0.0,0.0,0.0,0.0,2.7655,0.0,2.6934,0.0,0.0,0.0,0.0,0.0,0.0,0.0,2.4711,0.0,0.0,0.0,2.562,0.0,0.0,0.0,2.6139,2.6366,2.6499,2.6499,2.6499,2.6499,2.6499,2.6499,2.6499,2.6499,2.6499,2.6499,2.6499,2.6499,2.6499,2.6499,2.6499,2.6521,2.6624,2.6692,2.6726,2.6807,2.6841,2.6863,2.6863,2.6863,2.6863,2.6875,2.6807,2.6705,2.6624,2.6692,2.676,2.6909,2.9489,2.9735,3.0253,3.0717,3.1182,3.157,3.175,3.2183,3.2378,3.2079,3.3066,3.3829,3.4023,3.4668,3.5295,3.5968,3.6028,3.5669,3.4848,3.3858,3.3245,3.3066,3.1764,3.1285,3.1765,3.16,3.1406,3.1227,3.0746,3.0597,3.0776,3.0597,3.0796,3.1381,3.2065,3.2312,3.2256,3.2652,3.2605,3.2248,3.2434,3.2782,3.3241,3.3738,3.4378,3.5082,3.5213,3.518,3.5085,3.5183,3.4886,0.0,3.507,0.0,3.3144,0.0,0.0,0.0,3.026,0.0,0.0,0.0,0.0,0.0,0.0,0.0,0.0,0.0,0.0,0.0,0.0,0.0,0.0,0.0,0.0,2.5074,0.0,2.5099,0.0,0.0,0.0,0.0,0.0,2.6168,2.6396,2.6396,0.0,2.6499,2.6499,2.6499,2.6499,2.6499,2.6499,2.6499,2.6499,2.6499,2.6499,2.6499,2.6499,2.6555,2.6679,2.676,2.6863,2.699,2.7045,2.7079,2.7079,2.7079,2.7079,2.7079,2.7079,2.7011,2.685,2.685,2.6964,2.7113,3.0342,3.0972,3.1451,3.1466,3.1496,3.172,3.2363,3.2497,3.2736,3.335,3.4054,3.4728,3.537,3.6028,3.6671,3.73,3.7345,3.6821,3.5549,3.5429,3.5115,3.4474,3.3155,3.2467,3.2482,3.1824,3.1182,3.0537,3.0507,3.0823,3.1451,3.0806,3.0853,3.1525,3.2183,3.2422,3.2391,3.3608,3.4127,3.4186,3.4821,3.5201,3.5305,0.0,3.4713,3.5472,3.5504,0.0,0.0,3.4741,3.4951,0.0,0.0,0.0,0.0,0.0,0.0,0.0,0.0,0.0,0.0,2.9375,0.0,0.0,0.0,0.0,2.8365,0.0,0.0,0.0,0.0,0.0,0.0,0.0,0.0,0.0,0.0,0.0,0.0,0.0,0.0,0.0,0.0,2.5949,2.61,0.0,2.6354,2.6499,2.6499,2.6499,2.6499,2.6499,2.6499,2.6499,2.6499,2.6499,2.6499,2.6499,2.6499,2.6555,2.6726,2.6909,2.6977,2.7024,2.7214,2.7302,2.7302,2.7302,2.7302,2.7302,2.7302,2.7302,2.7268,2.7268,2.7268,2.7302,3.1122,3.1346,3.1511,3.1511,3.1511,3.1735,3.2392,3.2886,3.3395,3.4053,3.5147,3.6058,3.6701,3.736,3.8018,3.8676,3.8701,3.8362,3.7479,3.6626,3.6058,3.5851,3.4548,3.3814,3.3814,3.317,3.2512,3.1809,3.1376,3.1271,3.1511,3.1271,3.1271,3.1525,3.2183,3.2721,3.3139,3.4035,3.4663,3.5063,0.0,3.5439,3.5489,0.0,3.523,3.5504,3.5504,3.5504,0.0,3.5235,3.531,3.5459,3.5235,3.4996,3.481,3.4659,3.3897,0.0,0.0,0.0,3.2206,3.0749,0.0,0.0,0.0,0.0,0.0,0.0,0.0,0.0,0.0,0.0,0.0,0.0,0.0,0.0,0.0,0.0,0.0,0.0,0.0,0.0,0.0,0.0,0.0,0.0,2.5987,0.0,2.6474,2.6499,2.6499,2.6499,2.6499,2.6499,2.6499,2.6499,2.6521,2.6624,2.6624,2.6794,2.71,2.7167,2.7235,2.7335,2.7403,2.7436,2.7436,2.7436,2.7436,2.7436,2.7436,2.7436,2.7436,2.7335,2.7369,2.7436,3.1511,3.1511,3.1511,3.1511,3.1705,3.2079,3.2766,3.3634,3.4442,3.5132,3.6133,3.706,3.7689,3.8138,3.8661,3.9328,3.9388,3.902,3.8093,3.7494,3.6956,3.6507,3.5654,3.5222,0.0,0.0,3.3634,3.3215,3.2049,3.163,3.1854,3.1361,3.1271,3.1525,3.1944,3.2662,3.3529,3.3948,3.4666,3.5504,0.0,3.5504,0.0,0.0,3.5504,3.5504,0.0,3.5504,3.5504,3.5504,3.5504,3.5504,3.5504,3.519,3.4857,3.4919,3.4363,3.3706,3.345,3.3558,0.0,3.1919,3.1894,0.0,3.0229,0.0,0.0,0.0,0.0,0.0,0.0,0.0,0.0,0.0,0.0,0.0,0.0,2.5005,0.0,0.0,0.0,0.0,0.0,0.0,0.0,2.6043,2.5975,2.6051,0.0,2.6555,2.6555,2.6499,2.6499,2.6499,2.6499,2.6555,2.6624,2.6679,2.676,2.6964,2.7302,2.7302,2.7369,2.749,2.749,2.749,2.749,2.749,2.749,2.749,2.749,2.749,2.749,2.7403,2.7436,2.749,3.1511,3.1511,3.1511,3.154,3.2064,3.2751,3.344,3.4651,3.5759,3.6492,3.709,3.7704,3.8377,3.8437,3.8706,3.9328,3.9388,3.8871,3.7584,3.8063,3.7868,0.0,3.6596,3.6582,3.6582,0.0,0.0,0.0,3.2557,3.1884,3.2407,3.115,3.0883,3.1511,3.1511,3.2228,3.3499,3.3499,3.4277,3.5504,3.5504,3.5504,3.5504,3.5504,3.5504,3.5504,3.5504,3.5504,3.5504,3.5504,3.5504,3.5504,3.5504,3.5504,3.5504,3.5504,3.5504,3.5311,3.4576,3.4076,3.3623,3.2887,0.0,0.0,0.0,0.0,3.0954,0.0,0.0,0.0,0.0,0.0,0.0,0.0,0.0,0.0,0.0,0.0,0.0,0.0,0.0,0.0,0.0,2.5385,2.556,2.6044,2.6245,2.6416,0.0,2.6633,2.662,2.6521,2.6499,2.6499,2.6499,2.6658,2.6714,2.6714,2.6909,2.7113,2.7302,2.7302,2.7369,2.749,2.749,2.749,2.749,2.749,2.749,2.749,2.749,2.749,2.749,2.749,2.749,2.749,3.1511,3.1511,3.166,3.2153,3.2378,3.2901,3.4038,3.4951,3.6088,3.7689,3.8048,3.8392,3.908,3.9155,3.923,3.9373,3.9388,3.9239,3.8931,0.0,0.0,3.8661,3.8182,3.7898,3.7898,3.709,3.5938,3.4503,3.3484,3.2572,3.175,3.1406,3.1331,3.1511,3.1511,3.2228,3.3499,3.3499,3.4277,3.5504,3.5504,3.5504,3.5504,0.0,3.5504,3.5504,3.5504,3.5504,3.5504,3.5504,3.5504,3.5504,3.5504,3.5504,3.5504,3.5504,3.5504,3.5457,3.5246,3.5127,3.4874,3.4194,3.375,3.329,0.0,0.0,0.0,0.0,0.0,0.0,0.0,0.0,0.0,0.0,0.0,0.0,0.0,0.0,0.0,2.5005,0.0,0.0,2.512,2.5205,2.5402,2.5766,2.5767,2.6013,2.6641,0.0,2.6529,2.6645,2.6658,2.6658,2.6658,2.6692,2.685,2.7134,2.7201,2.7302,2.7469,2.7469,2.7469,2.749,2.749,2.749,2.749,2.749,2.749,2.749,2.749,2.749,2.749,2.749,2.749,2.749,3.1511,3.1735,3.2138,3.2826,3.3425,3.4083,3.4816,3.5729,3.6836,3.8212,3.8661,3.899,3.9379,3.9388,3.9388,3.9388,3.9388,3.929,3.899,0.0,0.0,3.896,3.8886,3.8841,3.8841,3.7898,0.0,3.5387,3.4113,3.2961,3.1929,3.1645,3.1511,3.1511,3.1511,3.2079,3.3095,3.3679,3.4532,3.5504,3.5504,3.5504,0.0,3.5504,3.5504,3.5504,3.5504,3.5504,3.5504,3.5504,3.5504,3.5504,3.5504,3.5504,3.5504,3.5504,3.5504,3.5504,3.5504,3.5504,3.5415,3.5026,3.4793,3.4431,3.363,3.33,3.3204,0.0,0.0,0.0,0.0,0.0,0.0,0.0,0.0,0.0,0.0,0.0,0.0,0.0,2.536,0.0,2.5031,2.5411,2.5691,2.5696,2.5785,2.5978,0.0,0.0,2.6504,2.656,2.7011,2.7232,2.7232,2.7288,2.7426,2.7644,2.7452,2.7436,2.749,2.749,2.749,2.749,2.749,2.749,2.749,2.749,2.749,2.749,2.749,2.749,2.749,2.749,2.749,2.749,3.175,3.2213,3.2841,3.3499,3.4741,3.5669,3.5744,3.6761,3.7778,3.8437,3.905,3.9388,3.9388,3.9388,3.9388,3.9388,3.9388,3.917,3.8556,3.9095,3.9155,3.8556,3.9095,3.9379,3.929,3.8138,3.7105,0.0,3.4487,3.32,3.2348,3.1765,3.1511,3.1511,3.1511,3.1914,3.2721,3.3979,3.4876,3.5504,3.5504,3.5504,3.5504,3.5504,3.5504,3.5504,3.5504,3.5504,3.5504,3.5504,3.5504,3.5504,3.5504,3.5504,3.5504,3.5504,3.5504,3.5504,3.5504,3.5504,3.5504,3.5504,3.5504,3.5326,3.461,3.4461,3.4461,3.4461,3.3657,3.3475,0.0,0.0,0.0,0.0,0.0,0.0,0.0,0.0,0.0,0.0,0.0,0.0,0.0,2.5807,2.6091,2.5772,2.6078,0.0,0.0,0.0,2.6616,2.6511,2.743,2.7927,2.7927,2.8131,2.8187,2.8144,2.7775,2.7568,2.749,2.749,2.749,2.749,2.749,2.749,2.749,2.749,2.749,2.749,2.749,2.749,2.749,2.749,2.749,2.749,3.3036,3.3245,3.3529,3.4219,3.5415,3.6492,3.7,3.7719,3.8467,3.9155,3.9349,3.9388,3.9388,3.9388,3.9388,3.9388,3.9388,0.0,0.0,0.0,0.0,3.9245,3.9349,3.9155,3.8586,3.8347,3.7105,3.4863,3.4503,3.341,3.1675,3.1555,3.1511,3.1511,3.1511,3.2168,3.338,3.4174,0.0,3.5504,3.5504,3.5504,3.5504,3.5504,3.5504,3.5504,3.5504,3.5504,3.5504,3.5504,3.5504,3.5504,3.5504,3.5504,3.5504,3.5504,3.5504,3.5504,3.5504,3.5504,3.5504,3.5504,3.5504,3.5472,3.5311,3.5279,3.5279,3.5279,3.5124,3.4949,3.4694,0.0,0.0,0.0,0.0,0.0,0.0,0.0,0.0,0.0,0.0,2.7108,0.0,2.5855,2.5788,2.5928,2.6184,0.0,0.0,0.0,2.6961,0.0,2.7739,0.0,0.0,0.0,2.8681,2.8351,2.8281,2.7981,2.749,2.749,2.749,2.749,2.749,2.749,2.749,2.749,2.749,2.749,2.749,2.749,2.749,2.749,2.749,2.749,3.3873,3.4039,3.4427,3.5759,3.6821,3.7808,3.8811,3.9514,3.9813,3.9469,3.9709,3.9798,3.9454,3.9723,3.9783,3.9454,3.9388,3.9388,3.9388,3.9388,3.9388,3.9388,3.9388,3.9095,3.8407,3.8063,3.6761,3.4503,3.4159,3.3125,3.1511,3.1511,3.1511,3.1525,3.1854,3.2557,3.3544,0.0,0.0,3.5504,3.5504,3.5504,3.5504,3.5504,3.5504,3.5504,3.5504,3.5504,3.5504,3.5504,3.5504,3.5504,3.5504,3.5504,3.5504,3.5504,3.5504,3.5504,3.5504,3.5504,3.5504,3.5504,3.5504,3.5504,3.5504,3.5504,3.5504,3.5504,3.5504,3.5255,3.451,3.3542,0.0,0.0,0.0,0.0,0.0,0.0,0.0,0.0,0.0,0.0,0.0,2.627,0.0,0.0,0.0,2.6454,2.6769,0.0,2.6953,0.0,0.0,0.0,2.8716,0.0,2.9203,2.9287,2.8673,2.8242,2.7968,2.7633,2.749,2.749,2.749,2.749,2.7523,2.7875,2.8039,2.8039,2.8039,2.8039,2.8039,2.8039,2.8039,2.7973,3.5177,3.5342,3.5848,3.7539,3.8497,3.9334,4.0262,4.107,4.1115,3.9798,4.0083,4.0142,3.9448,3.9888,3.9978,3.9433,3.9388,3.9388,3.9388,3.9388,3.9388,3.9388,3.9388,3.9095,3.8407,3.7749,3.6522,3.4728,3.3888,3.2901,3.1705,3.157,3.1585,3.1735,0.0,0.0,0.0,0.0,3.4876,3.5504,3.5504,3.5504,3.5504,3.5504,3.5504,3.5504,3.5504,3.5504,3.5504,3.5504,3.5504,3.5504,3.5504,3.5504,3.5504,3.5504,3.5504,3.5504,3.5504,3.5504,3.5504,3.5504,3.5504,3.5504,3.5504,3.5504,3.5504,3.5504,3.5504,3.5326,3.4677,3.4299,0.0,0.0,0.0,0.0,0.0,0.0,0.0,0.0,0.0,0.0,2.7352,0.0,0.0,0.0,0.0,2.637,2.656,2.6865,2.7051,0.0,0.0,2.8708,2.931,0.0,2.9693,3.0087,2.9196,2.8686,2.859,2.7968,2.7673,2.7659,2.7555,2.749,2.7556,2.8222,2.8514,2.85,2.8661,2.8725,2.8725,2.8725,2.8725,2.8629,3.7793,3.8018,3.8272,3.9059,4.0277,4.095,4.0472,4.1459,4.1841,4.0487,4.0367,4.0142,3.9448,3.9469,3.9484,3.9424,3.9388,3.9388,3.9388,3.9388,3.9388,3.9388,3.9388,3.9095,3.8407,3.7749,3.6761,0.0,3.4128,3.3125,3.2378,3.178,3.1824,0.0,0.0,0.0,0.0,3.4474,3.4876,3.5504,3.5504,3.5504,3.5504,3.5504,3.5504,3.5504,3.5504,3.5504,3.5504,3.5504,3.5504,3.5504,3.5504,3.5504,3.5504,3.5504,3.5504,3.5504,3.5504,3.5504,3.5504,3.5504,3.5504,3.5504,3.5504,3.5504,3.5504,3.5504,3.5504,3.5472,3.5392,3.5347,3.5302,0.0,0.0,0.0,0.0,0.0,3.2701,3.1427,0.0,0.0,0.0,2.8346,0.0,0.0,2.6835,2.6603,2.7347,2.7419,2.7445,2.7445,2.8059,2.8708,2.931,2.9797,3.0048,3.01,2.9983,2.9693,2.9205,2.8569,2.8307,2.8281,2.7758,2.749,2.7556,2.8222,2.8514,2.8565,2.9174,2.9411,2.9411,2.9411,2.9411,2.93,3.8916,3.9005,3.9349,4.0412,4.1025,0.0,0.0,4.2611,4.2476,4.116,4.1324,4.1175,4.0127,4.0367,4.0277,3.9448,3.9388,3.9388,3.9388,3.9388,3.9388,3.9388,3.9388,3.9095,3.8407,3.7749,3.6791,0.0,0.0,0.0,0.0,0.0,0.0,0.0,0.0,3.3978,3.4533,3.4921,3.525,3.5504,3.5504,3.5504,3.5504,3.5504,3.5504,3.5504,3.5504,3.5504,3.5504,3.5504,3.5504,3.5504,3.5504,3.5504,3.5504,3.5504,3.5504,3.5504,3.5504,3.5504,3.5504,3.5504,3.5504,3.5504,3.5504,3.5504,3.5504,3.5504,3.5504,3.5504,3.5504,3.5504,3.5504,0.0,0.0,0.0,0.0,0.0,0.0,3.276,0.0,3.0749,0.0,0.0,0.0,0.0,0.0,2.6691,2.6778,2.7256,0.0,2.7683,0.0,2.849,2.9784,2.968,2.9967,3.0647,3.0728,3.0637,3.0432,3.031,3.0055,2.9624,2.899,2.8698,2.873,2.9425,2.9687,2.9718,2.9981,3.0103,3.0103,3.0103,3.0103,3.0042,4.0202,0.0,4.0636,0.0,4.1953,4.2267,4.3155,4.329,4.2886,4.1856,4.2111,4.1826,4.0277,4.0531,4.0427,3.9463,3.9388,3.9388,3.9388,3.9388,3.9388,3.9388,3.9388,0.0,3.8691,3.7853,3.6971,3.6073,3.4996,0.0,0.0,0.0,0.0,0.0,3.4294,3.4623,3.4848,3.5295,3.5504,3.5504,3.5504,3.5504,3.5504,3.5504,3.5504,3.5504,3.5504,3.5504,3.5504,3.5504,3.5504,3.5504,3.5504,3.5504,3.5504,3.5504,3.5504,3.5504,3.5504,3.5504,3.5504,3.5504,3.5504,3.5504,3.5504,3.5504,3.5504,3.5504,3.5504,3.5504,3.5504,3.5504,3.5504,3.5504,0.0,0.0,0.0,3.4517,0.0,0.0,3.2497,3.1409,3.0467,3.0191,0.0,0.0,0.0,0.0,0.0,0.0,0.0,0.0,0.0,0.0,3.0771,3.0405,3.0699,3.164,3.1738,3.1803,3.1789,3.1766,3.1303,3.0467,2.9999,2.9673,2.958,3.044,3.08,3.08,3.1025,3.1085,3.1056,3.088,3.0807,3.0777,4.2111,4.2366,4.2575,4.3155,4.3275,4.3275,4.329,4.329,4.309,4.247,4.2396,4.1647,3.9649,3.9403,3.9439,3.9388,3.9388,3.9388,3.9388,3.9388,3.9388,0.0,0.0,3.9388,3.9373,3.8093,3.7404,3.7389,0.0,0.0,3.4474,0.0,3.3844,3.4503,3.4503,3.4861,3.5489,3.5504,3.5504,3.5504,3.5504,3.5504,3.5504,3.5504,3.5504,3.5504,3.5504,3.5504,3.5504,3.5504,3.5504,3.5504,3.5504,3.5504,3.5504,3.5504,3.5504,3.5504,3.5504,3.5504,3.5504,3.5504,3.5504,3.5504,3.5504,3.5504,3.5504,3.5504,3.5504,3.5504,3.5504,3.5504,3.5504,3.5504,0.0,0.0,0.0,0.0,0.0,3.3574,3.2901,3.2213,3.1555,3.0896,0.0,0.0,0.0,0.0,0.0,0.0,0.0,3.0435,3.0467,0.0,3.2368,3.2368,3.2643,3.3178,3.3178,3.3178,3.315,3.265,3.1711,3.0481,3.0481,3.0098,2.9608,3.0945,3.1484,3.1545,3.2213,3.2467,3.2392,3.175,3.1511,3.138,4.294,4.3015,4.309,4.326,4.329,4.329,4.329,4.329,4.294,4.1871,4.1737,4.1115,3.9553,3.9828,3.9903,0.0,3.9388,3.9388,0.0,3.9388,3.9388,3.9388,3.8975,3.8931,3.9373,3.8093,3.7629,3.8078,0.0,0.0,0.0,3.5672,3.5415,3.5175,3.5175,3.5295,3.5504,3.5504,3.5504,3.5504,3.5504,3.5504,3.5504,3.5504,3.5504,3.5504,3.5504,3.5504,3.5504,3.5504,3.5504,3.5504,3.5504,3.5504,3.5504,3.5504,3.5504,3.5504,3.5504,3.5504,3.5504,3.5504,3.5504,3.5504,3.5504,3.5504,3.5504,3.5504,3.5504,3.5504,3.5504,3.5504,3.5504,3.5504,3.5504,0.0,0.0,0.0,3.4429,3.4219,3.3589,3.2916,3.2243,3.1976,0.0,0.0,0.0,0.0,0.0,0.0,0.0,0.0,3.0983,0.0,3.2918,3.2579,3.2678,3.3213,3.3699,3.424,3.4739,3.4097,3.36,3.3206,3.2733,3.2144,3.1601,3.2507,3.2583,3.2257,3.2915,3.2901,3.2452,3.2243,3.1884,3.1467,4.3245,4.329,4.329,4.329,4.329,4.329,4.329,4.3135,4.2581,4.1519,4.116,4.0606,3.9508,3.9783,0.0,3.9454,3.9388,3.9388,3.9388,3.9388,3.9388,3.9388,3.9005,3.8975,3.9373,3.8332,0.0,3.8018,3.7375,3.6866,3.6492,3.6492,3.6133,3.5504,3.5504,3.5504,3.5504,3.5504,3.5504,3.5504,3.5504,3.5504,3.5504,3.5504,3.5504,3.5504,3.5504,3.5504,3.5504,3.5504,3.5504,3.5504,3.5504,3.5504,3.5504,3.5504,3.5504,3.5504,3.5504,3.5504,3.5504,3.5504,3.5504,3.5504,3.5504,3.5504,3.5504,3.5504,3.5504,3.5504,3.5504,3.5504,3.5504,3.5504,3.5504,3.5504,3.5504,0.0,3.4788,0.0,0.0,0.0,0.0,3.2886,3.2781,0.0,0.0,0.0,0.0,0.0,0.0,3.2086,3.2442,3.3099,3.407,3.3715,3.3715,3.407,3.4524,3.5019,3.5489,3.5055,3.4758,3.4488,3.4038,3.3499,3.2931,3.3589,3.3469,3.2916,3.3335,3.3095,3.2452,3.2213,3.1854,3.1511,4.317,4.329,4.329,0.0,4.329,0.0,4.329,4.2776,4.2171,4.1512,4.0816,4.0142,3.9448,3.9388,3.9388,3.9388,0.0,0.0,0.0,3.9388,3.9388,3.9388,3.9379,3.9328,3.9388,3.8736,3.8093,3.7479,3.6851,3.6537,3.6492,3.6492,3.6133,3.5504,3.5504,3.5504,3.5504,3.5504,3.5504,3.5504,3.5504,3.5504,3.5504,3.5504,3.5504,3.5504,3.5504,3.5504,3.5504,3.5504,3.5504,3.5504,3.5504,3.5504,3.5504,3.5504,3.5504,3.5504,3.5504,3.5504,3.5504,3.5504,3.5504,3.5504,3.5504,3.5504,3.5504,3.5504,3.5504,3.5504,3.5504,3.5504,3.5504,3.5504,3.5504,3.5504,3.5504,0.0,0.0,0.0,0.0,0.0,3.3619,3.3559,3.329,0.0,0.0,0.0,0.0,0.0,3.188,3.4412,3.4563,3.4861,3.5489,3.5504,3.5504,3.5504,3.5504,3.5504,3.5504,3.5504,3.516,3.4578,3.4578,3.4173,3.3619,3.4309,3.4189,3.3559,3.3559,3.3155,3.2497,3.1809,3.154,3.1511,0.0,0.0,4.329,4.329,4.329,4.329,4.329,4.2776,4.2171,4.1512,4.0816,4.0142,3.9448,3.9388,3.9388,3.9388,3.9388,3.9388,3.9388,3.9388,3.9388,3.9388,3.8916,3.8886,3.9373,3.8736,3.8317,3.8153,3.7509,3.6941,3.6492,3.6492,3.6133,3.5504,3.5504,3.5504,3.5504,3.5504,3.5504,3.5504,3.5504,3.5504,3.5504,3.5504,3.5504,3.5504,3.5504,3.5504,3.5504,3.5504,3.5504,3.5504,3.5504,3.5504,3.5504,3.5504,3.5504,3.5504,3.5504,3.5504,3.5504,3.5504,3.5504,3.5504,3.5504,3.5504,3.5504,3.5504,3.5504,3.5504,3.5504,3.5504,3.5504,3.5504,3.5504,3.5504,3.5504,3.5504,3.5444,0.0,3.5265,3.4996,3.4339,3.4279,3.3978,0.0,0.0,0.0,3.3994,3.3257,3.3316,3.4474,3.4996,3.534,3.5504,3.5504,3.5504,3.5504,3.5504,3.5504,3.5504,3.5504,3.5415,3.5265,3.5265,3.4876,3.4339,3.4981,3.4861,3.4279,3.4279,3.3844,3.3185,3.2497,3.1929,3.1511,4.329,4.329,4.329,4.329,4.329,4.32,4.294,4.2327,4.1707,4.101,4.0367,3.9813,3.9454,3.9388,3.9388,3.9388,3.9388,3.9388,3.9388,3.9388,3.9388,3.9388,3.9065,3.8886,3.8945,3.8586,3.8242,3.7943,3.73,3.6821,3.6492,3.6492,3.6133,3.5504,3.5504,3.5504,3.5504,3.5504,3.5504,3.5504,3.5504,3.5504,3.5504,3.5504,3.5504,3.5504,3.5504,3.5504,3.5504,3.5504,3.5504,3.5504,3.5504,3.5504,3.5504,3.5504,3.5504,3.5504,3.5504,3.5504,3.5504,3.5504,3.5504,3.5504,3.5504,3.5504,3.5504,3.5504,3.5504,3.5504,3.5504,3.5504,3.5504,3.5504,3.5504,3.5504,3.5504,3.5504,3.5504,3.5504,3.5504,3.5355,3.4981,3.4951,3.4666,3.3993,3.3903,0.0,3.4488,3.4442,3.4577,3.4936,3.531,3.5504,3.5504,3.5504,3.5504,3.5504,3.5504,3.5504,3.5504,3.5504,3.5504,3.5504,3.5504,3.5295,3.4981,3.5355,3.51,3.4503,3.4503,3.3888,3.3006,3.2647,3.2064,3.1511,4.329,4.329,4.329,4.329,4.329,4.312,4.25,4.1841,4.1145,4.0487,3.9828,3.9388,3.9388,3.9388,3.9388,3.9388,3.9388,3.9388,3.9388,3.9388,3.9388,3.9388,3.9388,3.9095,3.8407,3.8197,3.7823,3.727,3.6641,3.6342,3.6342,3.6342,3.6043,3.5504,3.5504,3.5504,3.5504,3.5504,3.5504,3.5504,3.5504,3.5504,3.5504,3.5504,3.5504,3.5504,3.5504,3.5504,3.5504,3.5504,3.5504,3.5504,3.5504,3.5504,3.5504,3.5504,3.5504,3.5504,3.5504,3.5504,3.5504,3.5504,3.5504,3.5504,3.5504,3.5504,3.5504,3.5504,3.5504,3.5504,3.5504,3.5504,3.5504,3.5504,3.5504,3.5504,3.5504,0.0,3.5504,3.5504,3.5504,3.5504,3.5504,3.5504,3.5265,3.4698,3.5175,3.525,3.4698,3.519,3.5504,3.5504,3.5504,3.5504,3.5504,3.5504,3.5504,3.5504,3.5504,3.5504,3.5504,3.5504,3.5504,3.5504,3.5504,3.5504,3.5504,3.5504,3.516,3.4638,3.4444,3.3649,3.2647,3.2407,3.1989,3.1511,4.329,4.329,4.329,4.329,4.329,4.312,4.25,4.1841,4.1145,4.0487,3.9828,3.9388,3.9388,3.9388,3.9388,3.9388,3.9388,3.9388,3.9388,3.9388,3.9388,3.9388,3.9388,3.9095,3.8407,3.733,3.6731,3.6626,3.5983,3.5654,3.5654,3.5654,3.5609,3.5504,3.5504,3.5504,3.5504,3.5504,3.5504,3.5504,3.5504,3.5504,3.5504,3.5504,3.5504,3.5504,3.5504,3.5504,3.5504,3.5504,3.5504,3.5504,3.5504,3.5504,3.5504,3.5504,3.5504,3.5504,3.5504,3.5504,3.5504,3.5504,3.5504,3.5504,3.5504,3.5504,3.5504,3.5504,3.5504,3.5504,3.5504,3.5504,3.5504,3.5504,3.5504,3.5504,3.5504,0.0,3.5504,3.5504,3.5504,3.5504,3.5504,3.5504,3.5459,3.5355,3.5444,3.5459,3.5355,3.5444,3.5504,3.5504,3.5504,3.5504,3.5504,3.5504,3.5504,3.5504,3.5504,3.5504,3.5504,3.5504,3.5504,3.5504,3.5504,3.5504,3.5504,3.5504,3.5444,3.5235,3.4098,3.3529,3.3215,3.2064,3.1585,3.1511,4.329,4.329,4.329,4.329,4.329,4.312,4.25,4.2141,4.1707,4.101,4.0666,4.0472,4.0472,4.0157,3.9948,3.9948,3.9634,3.9388,3.9388,3.9388,3.9388,3.9388,3.9388,3.8931,3.7883,3.6611,3.5953,3.5953,3.5654,3.5504,3.5504,3.5504,3.5504,3.5504,3.5504,3.5504,3.5504,3.5504,3.5504,3.5504,3.5504,3.5504,3.5504,3.5504,3.5504,3.5504,3.5504,3.5504,3.5504,3.5504,3.5504,3.5504,3.5504,3.5504,3.5504,3.5504,3.5504,3.5504,3.5504,3.5504,3.5504,3.5504,3.5504,3.5504,3.5504,3.5504,3.5504,3.5504,3.5504,3.5504,3.5504,3.5504,3.5504,3.5504,3.5504,0.0,3.5504,3.5504,3.5504,3.5504,3.5504,3.5504,3.5504,3.5504,3.5504,3.5504,3.5504,3.5504,3.5504,3.5504,3.5504,3.5504,3.5504,3.5504,3.5504,3.5504,3.5504,3.5504,3.5504,3.5504,3.5504,3.5504,3.5504,3.5504,3.5504,3.5504,3.5504,3.5504,3.5504,3.5444,3.4816,3.4143,3.3425,3.2811,3.2333,3.1989,4.329,4.329,4.329,4.329,4.317,4.294,4.247,4.2276,4.1991,4.1482,4.1422,4.1422,4.1422,4.0786,4.0397,4.0397,3.9798,3.9388,3.9388,3.9388,3.9388,3.9388,3.9089,3.8431,3.7434,3.6163,3.5504,3.5504,3.5504,3.5504,3.5504,3.5504,3.5504,3.5504,3.5504,3.5504,3.5504,3.5504,3.5504,3.5504,3.5504,3.5504,3.5504,3.5504,3.5504,3.5504,3.5504,3.5504,3.5504,3.5504,3.5504,3.5504,3.5504,3.5504,3.5504,3.5504,3.5504,3.5504,3.5504,3.5504,3.5504,3.5504,3.5504,3.5504,3.5504,3.5504,3.5504,3.5504,3.5504,3.5504,3.5504,3.5504,3.5504,3.5504,0.0,3.5504,0.0,3.5504,3.5504,3.5504,3.5504,3.5504,3.5504,3.5504,3.5504,3.5504,3.5504,3.5504,3.5504,3.5504,3.5504,3.5504,3.5504,3.5504,3.5504,3.5504,3.5504,3.5504,3.5504,3.5504,3.5504,3.5504,3.5504,3.5504,3.5504,3.5504,3.5504,3.5504,3.5504,3.5489,3.5325,3.4637,3.3709,3.3559,3.317,3.2677,4.329,4.329,4.329,4.329,4.2836,4.2455,4.241,4.1886,4.1467,4.1384,4.1422,4.1422,4.1422,4.0786,4.0397,4.0397,3.9798,3.9388,3.9388,3.9388,3.9388,3.9388,3.8227,3.7509,3.7404,3.6163,3.5504,3.5504,3.5504,3.5504,3.5504,3.5504,3.5504,3.5504,3.5504,3.5504,3.5504,3.5504,3.5504,3.5504,3.5504,3.5504,3.5504,3.5504,3.5504,3.5504,3.5504,3.5504,3.5504,3.5504,3.5504,3.5504,3.5504,3.5504,3.5504,3.5504,3.5504,3.5504,3.5504,3.5504,3.5504,3.5504,3.5504,3.5504,3.5504,3.5504,3.5504,3.5504,3.5504,3.5504,3.5504,3.5504,3.5504,3.5504,0.0,0.0,3.5504,3.5504,3.5504,3.5504,3.5504,3.5504,3.5504,3.5504,3.5504,3.5504,3.5504,3.5504,3.5504,3.5504,3.5504,3.5504,3.5504,3.5504,3.5504,3.5504,3.5504,3.5504,3.5504,3.5504,3.5504,3.5504,3.5504,3.5504,3.5504,3.5504,3.5504,3.5504,3.5504,3.5444,3.4833,3.4518,3.4354,3.3724,3.3469,3.3425,4.329,4.329,4.329,4.329,4.3135,4.297,4.297,4.2746,4.2596,4.2596,4.2596,4.2596,4.2596,4.2013,4.1444,4.1055,4.0412,4.0061,4.0071,4.0076,3.9879,3.9409,3.8557,3.7864,3.7404,3.6163,3.5504,3.5504,3.5504,3.5504,3.5504,3.5504,3.5504,3.5504,3.5504,3.5504,3.5504,3.5504,3.5504,3.5504,3.5504,3.5504,3.5504,3.5504,3.5504,3.5504,3.5504,3.5504,3.5504,3.5504,3.5504,3.5504,3.5504,3.5504,3.5504,3.5504,3.5504,3.5594,3.6013,3.5818,3.5504,3.5504,3.5504,3.5504,3.5504,3.5504,3.5624,3.6028,3.5789,3.5624,3.6028,3.5774,3.5504,3.5504,0.0,3.5504,3.5504,3.5504,3.5504,3.5504,3.5504,3.5504,3.5504,3.5504,3.5504,3.5504,3.5504,3.5504,3.5504,3.5504,3.5504,3.5504,3.5504,3.5504,3.5504,3.5504,3.5504,3.5504,3.5504,3.5504,3.5504,3.5504,3.5504,3.5504,3.5504,3.5504,3.5504,3.5504,3.5504,3.5474,3.522,3.4861,3.4474,3.4219,3.4098,3.4038,4.329,4.329,4.329,4.329,4.3125,4.303,4.303,4.303,4.303,4.303,4.317,4.329,4.329,4.2746,4.2331,4.2078,4.1232,4.0832,4.1146,4.0948,4.0478,3.9788,3.9164,3.8485,3.7719,3.6656,3.6103,3.6103,3.5908,3.5804,3.5804,3.5609,3.5504,3.5504,3.5504,3.5504,3.5504,3.5504,3.5504,3.5504,3.5504,3.5504,3.5504,3.5504,3.5504,3.5504,3.5504,3.5504,3.5504,3.5504,3.5504,3.5504,3.5504,3.5504,3.5549,3.5744,3.5669,3.5684,3.6552,3.6312,3.5804,3.5804,3.5968,3.5998,3.5594,3.5818,3.6178,3.6432,3.6282,3.6237,3.6686,3.6402,3.6043,3.5848,3.5804,3.5744,3.5534,3.5504,3.5504,3.5504,3.5504,3.5504,3.5504,3.5504,3.5504,3.5504,3.5504,3.5504,3.5504,3.5504,3.5504,3.5504,3.5504,3.5504,3.5504,3.5504,3.5504,3.5504,3.5504,3.5504,3.5504,3.5504,3.5504,3.5504,3.5504,3.5504,3.5504,3.5504,3.5504,3.5504,3.5504,3.522,3.4801,3.4801,3.4801,3.4741,4.329,4.329,4.329,4.329,4.2791,4.241,4.241,4.241,4.241,4.241,4.294,4.329,4.329,4.2761,4.2689,4.3436,4.2212,4.1748,4.257,4.1938,4.1227,4.0547,3.9865,3.9173,3.8427,3.7749,3.7404,3.7404,3.6791,3.6492,3.6477,3.5818,3.5519,3.5519,3.5519,3.5519,3.5519,3.5519,3.5519,3.5519,3.5519,3.5504,3.5504,3.5504,3.5504,3.5504,3.5504,3.5504,3.5504,3.5504,3.5519,3.5519,3.5519,3.5519,3.5639,3.6297,3.6028,3.5789,3.706,3.6971,3.6492,3.6492,3.6956,3.7075,3.5804,3.6507,3.724,3.6626,3.6985,3.7404,3.7419,3.7404,3.721,3.6596,3.6492,3.6252,3.5594,3.5504,3.5504,3.5504,3.5504,3.5504,3.5504,3.5504,3.5504,3.5504,3.5504,3.5504,3.5504,3.5504,3.5504,3.5504,3.5504,3.5504,3.5504,3.5504,3.5504,3.5504,3.5504,3.5504,3.5504,3.5504,3.5504,3.5504,3.5504,3.5504,3.5504,3.5504,3.5504,3.5504,3.5504,3.5504,3.5504,3.5504,3.5504,3.5504,4.329,4.329,4.329,4.329,4.3125,4.3045,4.3045,4.3045,4.3045,4.3045,4.317,4.329,4.329,4.3125,4.3148,4.3466,4.3125,4.3016,4.3346,4.31,4.2663,4.1981,4.0846,3.9897,3.9207,3.8501,3.7931,3.7404,3.7225,3.7135,3.712,3.6492,3.6432,3.6821,3.6387,3.6432,3.6836,3.6836,3.6596,3.6193,3.6193,3.5923,3.5504,3.5504,3.5504,3.5504,3.5504,3.5504,3.5579,3.6028,3.6193,3.6193,3.6193,3.6193,3.6237,3.6432,3.6028,3.5893,3.7629,3.7629,3.7135,3.7135,3.727,3.7315,3.6926,3.7135,3.7479,3.7764,3.7599,3.7554,3.8003,3.7719,3.721,3.6596,3.6492,3.6252,3.5594,3.5504,3.5504,3.5504,3.5504,3.5504,3.5504,3.5504,3.5504,3.5504,3.5504,3.5504,3.5504,3.5504,3.5504,3.5504,3.5504,3.5504,3.5504,3.5504,3.5504,3.5504,3.5504,3.5504,3.5504,3.5504,3.5504,3.5504,3.5504,3.5504,3.5504,3.5504,3.5504,3.5504,3.5504,3.5504,3.5504,3.5504,3.5504,3.5504,4.329,4.329,4.329,4.329,4.329,4.32,4.2985,4.3125,4.32,4.2985,4.3125,4.3304,4.3331,4.362,4.3838,4.3952,4.3959,4.3885,4.3678,4.3373,4.3143,4.3005,4.1914,4.0877,3.9912,3.9511,3.906,3.8618,3.836,3.8378,3.8601,3.7991,3.7883,3.8203,3.7853,3.7899,3.8218,3.7965,3.7619,3.7286,3.6985,3.6611,3.6237,3.5983,3.5893,3.5863,3.5609,3.5669,3.5953,3.6357,3.6656,3.6851,3.6851,3.6851,3.6911,3.7165,3.6776,3.6626,3.8332,3.8317,3.7853,3.8138,3.8197,3.8063,3.7524,3.7823,3.8242,3.8362,3.8287,3.8317,3.8721,3.8467,3.7913,3.7,3.6851,3.6537,3.5639,3.5504,3.5504,3.5504,3.5504,3.5504,3.5504,3.5504,3.5504,3.5504,3.5504,3.5504,3.5504,3.5504,3.5504,3.5504,3.5504,3.5504,3.5504,3.5504,3.5504,3.5504,3.5504,3.5504,3.5504,3.5504,3.5504,3.5504,3.5504,3.5504,3.5504,3.5504,3.5504,3.5504,3.5504,3.5504,3.5504,3.5504,3.5504,3.5504,4.329,4.329,4.329,4.329,4.329,4.3135,4.2575,4.2955,4.312,4.256,4.297,4.3326,4.3402,4.4065,4.4543,4.4699,4.4765,4.4489,4.3731,4.3084,4.2974,4.3568,4.3005,4.2061,4.0718,4.0684,4.065,4.0581,3.9998,3.9991,4.0578,3.9882,3.9628,3.9691,3.9628,3.9628,3.9629,3.9039,3.8699,3.8521,3.7854,3.7533,3.7345,3.6791,3.6567,3.6492,3.5893,3.6058,3.6582,3.6641,3.706,3.7584,3.7524,3.7494,3.7614,3.8212,3.7928,3.7704,3.905,3.8916,3.8556,3.9245,3.9388,3.9059,3.7868,3.8527,3.9245,3.8616,3.899,3.9388,3.9388,3.9388,3.899,3.7704,3.7494,3.7045,3.5774,3.5594,3.5594,3.5594,3.5549,3.5534,3.5594,3.5549,3.5534,3.5594,3.5594,3.5564,3.5504,3.5609,3.5624,3.5504,3.5564,3.5594,3.5594,3.5594,3.5564,3.5504,3.5504,3.5504,3.5504,3.5504,3.5504,3.5504,3.5504,3.5504,3.5504,3.5504,3.5504,3.5504,3.5504,3.5504,3.5504,3.5504,3.5504,3.5504,4.329,4.329,4.329,4.329,4.329,4.3245,4.3135,4.32,4.3245,4.3135,4.32,4.3309,4.3317,4.4014,4.4763,4.5397,4.5506,4.5251,4.4506,4.3776,4.3462,4.3598,4.3462,4.3005,4.2158,4.2158,4.1852,4.1294,4.1152,4.114,4.1272,4.0593,4.0546,4.1035,4.0499,4.0562,4.1067,4.0904,4.0244,3.928,3.9112,3.8368,3.7404,3.7255,3.721,3.7195,3.7045,3.709,3.7285,3.7808,3.8422,3.8886,3.8347,3.8182,3.8197,3.8347,3.7928,3.7704,3.905,3.8916,3.8556,3.9245,3.9388,3.9313,3.9014,3.9215,3.9379,3.923,3.932,3.9388,3.9388,3.9388,3.914,3.8317,3.8182,3.7734,3.6447,3.6267,3.6267,3.6267,3.5818,3.5714,3.6222,3.5804,3.5714,3.6237,3.6267,3.6043,3.5534,3.6462,3.6537,3.5534,3.6013,3.6267,3.6267,3.6267,3.6013,3.5504,3.5504,3.5504,3.5504,3.5504,3.5504,3.5504,3.5504,3.5504,3.5504,3.5504,3.5504,3.5504,3.5504,3.5504,3.5504,3.5504,3.5504,3.5504,4.329,4.329,4.329,4.329,4.329,4.329,4.329,4.329,4.329,4.329,4.329,4.3313,4.3333,4.4401,4.5232,4.5703,4.5126,4.4605,4.4208,4.4141,4.3976,4.3615,4.3943,4.3809,4.3082,4.3066,4.2741,4.2013,4.2013,4.219,4.249,4.2133,4.2166,4.249,4.2133,4.2182,4.2475,4.2142,4.1613,4.0923,4.0244,3.9535,3.8823,3.8127,3.7883,3.7838,3.7524,3.7614,3.7973,3.8661,3.9125,3.9349,3.899,3.8886,3.8886,3.8886,3.8631,3.8527,3.9194,3.9155,3.8975,3.9334,3.9388,3.9388,3.9388,3.9388,3.9388,3.9388,3.9388,3.9388,3.9388,3.9388,3.9185,3.8497,3.8392,3.8048,3.706,3.6671,3.6492,3.6492,3.6178,3.6103,3.6447,3.6178,3.6118,3.6462,3.6761,3.6776,3.6432,3.7045,3.6971,3.6013,3.6312,3.6342,3.6028,3.6013,3.6013,3.5968,3.5968,3.5804,3.5504,3.5504,3.5504,3.5504,3.5504,3.5504,3.5504,3.5504,3.5504,3.5504,3.5504,3.5504,3.5504,3.5504,3.5504,3.5504,4.329,4.329,4.329,4.329,4.329,4.329,4.329,4.329,4.329,4.329,4.329,4.3301,4.3365,4.4767,4.5776,4.5953,4.4887,4.4095,4.3979,4.4539,4.4556,4.3813,4.4373,4.4406,4.378,4.378,4.3457,4.2772,4.2772,4.3066,4.3598,4.3598,4.3598,4.3598,4.3598,4.3598,4.3552,4.3005,4.271,4.2491,4.1343,4.0771,4.0538,3.9367,3.8857,3.8692,3.8136,3.8197,3.8661,3.923,3.9499,3.9553,3.9553,3.9553,3.9553,3.9553,3.9553,3.9574,3.9454,3.9589,3.976,3.9784,3.9754,3.9739,3.9754,3.9556,3.9388,3.9388,3.9388,3.9388,3.9388,3.9388,3.923,3.8661,3.8556,3.8332,3.7674,3.7135,3.6806,3.6806,3.6806,3.6806,3.6806,3.6716,3.6686,3.6806,3.7285,3.7479,3.727,3.7569,3.736,3.6507,3.6596,3.6387,3.5833,3.5833,3.6103,3.6656,3.6761,3.6462,3.5833,3.5729,3.5669,3.5669,3.5549,3.5504,3.5504,3.5504,3.5504,3.5504,3.5504,3.5504,3.5504,3.5504,3.5504,3.5504,4.329,4.329,4.329,4.329,4.329,4.329,4.329,4.329,4.329,4.329,4.329,4.3299,4.3313,4.475,4.5984,4.668,4.6576,4.6179,4.5533,4.5599,4.5317,4.4572,4.4638,4.4638,4.4539,4.4539,4.4211,4.3462,4.3462,4.3492,4.3598,4.3598,4.3598,4.3598,4.3598,4.3598,4.3598,4.3492,4.3143,4.2585,4.238,4.1917,4.1344,4.115,4.0717,4.0186,4.0094,3.9738,3.929,3.9394,3.9798,4.0262,4.0262,4.0262,4.0262,4.0262,4.0262,4.0142,3.9574,4.0247,4.1152,4.1275,4.1234,4.1183,4.1284,4.0304,3.9388,3.9388,3.9388,3.9388,3.9388,3.9388,3.9394,3.929,3.9239,3.9035,3.8362,3.8182,3.8123,3.8123,3.8123,3.8123,3.8123,3.7614,3.7524,3.8093,3.8212,3.7778,3.6671,3.8227,3.8332,3.6552,3.7,3.724,3.715,3.715,3.7195,3.73,3.7868,3.7778,3.7135,3.6596,3.6357,3.6327,3.5744,3.5504,3.5504,3.5504,3.5504,3.5504,3.5504,3.5504,3.5504,3.5504,3.5504,3.5504,4.329,4.329,4.329,4.329,4.329,4.329,4.329,4.329,4.329,4.329,4.329,4.329,4.329,4.4359,4.5584,4.6779,4.651,4.6146,4.5814,4.6179,4.6079,4.5334,4.5301,4.5102,4.4705,4.4688,4.4522,4.4224,4.4224,4.4224,4.4208,4.378,4.3598,4.3598,4.3598,4.3598,4.3598,4.3598,4.3432,4.3143,4.2741,4.2412,4.2078,4.1656,4.1327,4.1055,4.1017,4.0796,4.0516,4.0516,4.0711,4.095,4.095,4.095,4.095,4.095,4.095,4.0891,4.0591,4.0935,4.152,4.1981,4.216,4.2322,4.2827,4.2085,4.103,4.0132,3.9963,3.9963,3.9963,3.9664,3.9388,3.9388,3.9388,3.932,3.9005,3.8631,3.8392,3.8392,3.8063,3.7988,3.8347,3.8123,3.8078,3.8362,3.8751,3.8721,3.8153,3.8945,3.8676,3.7045,3.7629,3.7614,3.6896,3.724,3.7599,3.7958,3.8257,3.8048,3.7389,3.6776,3.6492,3.6447,3.5789,3.5504,3.5504,3.5504,3.5504,3.5504,3.5504,3.5504,3.5504,3.5504,3.5504,3.5504]}]]